[[{"header":{"parameterUnit":"m.s-1","parameterCategory":1,"la1":30.6,"la2":29.2853,"lo1":-89.7004,"lo2":-87.6739,"dy":0.0162,"dx":0.0183,"nx":112,"ny":82,"refTime":"2024-08-23T18:00:00:Z","depth":0,"parameterNumber":2,"parameterNumberName":"U-component_of_WINDS"},"data":[0.0,0.0,0.0,0.0,0.0,0.0,0.0,0.0,0.0,0.0,0.0,0.0,0.0,0.0,0.0,0.0,0.0,0.0,0.0,0.0,0.0,0.0,0.0,0.0,0.0,0.0,0.0,0.0,0.0,0.0,0.0,0.0,0.0,0.0,0.0,0.0,0.0,0.0,0.0,0.0,0.0,0.0,0.0,0.0,0.0,0.0,0.0,0.0,0.0,0.0,0.0,0.0,0.0,0.0,0.0,0.0,0.0,0.0,0.0,0.0,0.0,0.0,0.0,0.0,0.0,0.0,0.0,0.0,0.0,0.0,0.0,0.0,0.0,0.0,0.0,0.0,0.0,0.0,0.0,0.0,0.0,0.0,0.0,0.0,0.0,0.0,0.0,0.0,0.0,0.0,1.216,1.2358,1.2702,1.2905,1.2905,1.2905,1.2524,1.1665,0.0,0.0,0.0,0.0,0.0,0.0,0.0,0.0,0.0,0.0,0.0,0.0,0.0,0.0,0.0,0.0,0.0,0.0,0.0,0.0,0.0,0.0,0.0,0.0,0.0,0.0,0.0,0.0,0.0,0.0,0.0,0.0,0.0,0.0,0.0,0.0,0.0,0.0,0.0,0.0,0.0,0.0,0.0,0.0,0.0,0.0,0.0,0.0,0.0,0.0,0.0,0.0,0.0,0.0,0.0,0.0,0.0,0.0,0.0,0.0,0.0,0.0,0.0,0.0,0.0,0.0,0.0,0.0,0.0,0.0,0.0,0.0,0.0,0.0,0.0,0.0,0.0,0.0,0.0,0.0,0.0,0.0,0.0,0.0,0.0,0.0,0.0,0.0,0.0,0.0,0.0,0.0,0.0,0.0,0.0,0.0,0.0,0.0,0.0,0.0,0.0,0.0,0.0,0.0,1.1843,1.2722,1.2865,1.2905,1.2905,1.2905,1.2524,1.1665,0.0,0.0,0.0,0.0,0.0,0.0,0.0,0.0,0.0,0.0,0.0,0.0,0.0,0.0,0.0,0.0,0.0,0.0,0.0,0.0,0.0,0.0,0.0,0.0,0.0,0.0,0.0,0.0,0.0,0.0,0.0,0.0,0.0,0.0,0.0,0.0,0.0,0.0,0.0,0.0,0.0,0.0,0.0,0.0,0.0,0.0,0.0,0.0,0.0,0.0,0.0,0.0,0.0,0.0,0.0,0.0,0.0,0.0,0.0,0.0,0.0,0.0,0.0,0.0,0.0,0.0,0.0,0.0,0.0,0.0,0.0,0.0,0.0,0.0,0.0,0.0,0.0,0.0,0.0,0.0,0.0,0.0,0.0,0.0,0.0,0.0,0.0,0.0,0.0,0.0,0.0,0.0,0.0,0.0,0.0,0.0,0.0,0.0,0.0,0.0,0.0,0.0,0.0,1.2093,1.2162,1.284,1.2905,1.2905,1.2905,1.2905,1.2524,1.1665,1.0782,0.0,0.0,0.0,0.0,0.0,0.0,0.0,0.0,0.0,0.0,0.0,0.0,0.0,0.0,0.0,0.0,0.0,0.0,0.0,0.0,0.0,0.0,0.0,0.0,0.0,0.0,0.0,0.0,0.0,0.0,0.0,0.0,0.0,0.0,0.0,0.0,0.0,0.0,0.0,0.0,0.0,0.0,0.0,0.0,0.0,0.0,0.0,0.0,0.0,0.0,0.0,0.0,0.0,0.0,0.0,0.0,0.0,0.0,0.0,0.0,0.0,0.0,0.0,0.0,0.0,0.0,0.0,0.0,0.0,0.0,0.0,0.0,0.0,0.0,0.0,0.0,0.0,0.0,0.0,0.0,0.0,0.0,0.0,0.0,0.0,0.0,0.0,0.0,0.0,0.0,0.0,0.0,0.0,0.0,0.0,0.0,0.0,0.0,0.0,0.0,0.0,0.0,1.27,1.2453,1.2865,1.2905,1.2905,1.2905,1.2719,1.2299,1.1645,1.0586,0.0,0.0,0.0,0.0,0.0,0.0,0.0,0.0,0.0,0.0,0.0,0.0,0.0,0.0,0.0,0.0,0.0,0.0,0.0,0.0,0.0,0.0,0.0,0.0,0.0,0.0,0.0,0.0,0.0,0.0,0.0,0.0,0.0,0.0,0.0,0.0,0.0,0.0,0.0,0.0,0.0,0.0,0.0,0.0,0.0,0.0,0.0,0.0,0.0,0.0,0.0,0.0,0.0,0.0,0.0,0.0,0.0,0.0,0.0,0.0,0.0,0.0,0.0,0.0,0.0,0.0,0.0,0.0,0.0,0.0,0.0,0.0,0.0,0.0,0.0,0.0,0.0,0.0,0.0,0.0,0.0,0.0,0.0,0.0,0.0,0.0,0.0,0.0,0.0,0.0,0.0,0.0,0.0,0.0,0.0,0.0,0.0,0.0,0.0,0.0,0.0,0.0,1.2217,1.2387,1.2856,1.2905,1.2905,1.2905,1.2152,1.1675,1.1606,1.0029,0.0,0.0,0.0,0.0,0.0,0.0,0.0,0.0,0.0,0.0,0.0,0.0,0.0,0.0,0.0,0.0,0.0,0.0,0.0,0.0,0.0,0.0,0.0,0.0,0.0,0.0,0.0,0.0,0.0,0.0,0.0,0.0,0.0,0.0,0.0,0.0,0.0,0.0,0.0,0.0,0.0,0.0,0.0,0.0,0.0,0.0,0.0,0.0,0.0,0.0,0.0,0.0,0.0,0.0,0.0,0.0,0.0,0.0,0.0,0.0,0.0,0.0,0.0,0.0,0.0,0.0,0.0,0.0,0.0,0.0,0.0,0.0,0.0,0.0,0.0,0.0,0.0,0.0,0.0,0.0,0.0,0.0,0.0,0.0,0.0,0.0,0.0,0.0,0.0,0.0,0.0,0.0,0.0,0.0,0.0,0.0,0.0,0.0,0.0,0.0,0.0,0.0,1.2666,1.2745,1.288,1.2905,1.2905,1.2905,1.2602,1.2054,1.1222,0.0,0.0,0.0,0.0,0.0,0.0,0.0,0.0,0.0,0.0,0.0,0.0,0.0,0.0,0.0,0.0,0.0,0.0,0.0,0.0,0.0,0.0,0.0,0.0,0.0,0.0,0.0,0.0,0.0,0.0,0.0,0.0,0.0,0.0,0.0,0.0,0.0,0.0,0.0,0.0,0.0,0.0,0.0,0.0,0.0,0.0,0.0,0.0,0.0,0.0,0.0,0.0,0.0,0.0,0.0,0.0,0.0,0.0,0.0,0.0,0.0,0.0,0.0,0.0,0.0,0.0,0.0,0.0,0.0,0.0,0.0,0.0,0.0,0.0,0.0,0.0,0.0,0.0,0.0,0.0,0.0,0.0,0.0,0.0,0.0,0.0,0.0,0.0,0.0,0.0,0.0,0.0,0.0,0.0,0.0,0.0,0.0,0.0,0.0,0.0,0.0,0.0,1.2641,1.2884,1.2943,1.289,1.2905,1.2832,1.2652,1.2301,1.1663,1.0708,0.0,0.0,0.0,0.0,0.0,0.0,0.0,0.0,0.0,0.0,0.0,0.0,0.0,0.0,0.0,0.0,0.0,0.0,0.0,0.0,0.0,0.0,0.0,0.0,0.0,0.0,0.0,0.0,0.0,0.0,0.0,0.0,0.0,0.0,0.0,0.0,0.0,0.0,0.0,0.0,0.0,0.0,0.0,0.0,0.0,0.0,0.0,0.0,0.0,0.0,0.0,0.0,0.0,0.0,0.0,0.0,0.0,0.0,0.0,0.0,0.0,0.0,0.0,0.0,0.0,0.0,0.0,0.0,0.0,0.0,0.0,0.0,0.0,0.0,0.0,0.0,0.0,0.0,0.0,0.0,0.0,0.0,0.0,0.0,0.0,0.0,0.0,0.0,0.0,0.0,0.0,0.0,0.0,0.0,0.0,0.0,0.0,0.0,0.0,0.0,0.0,0.0,1.2193,1.2659,1.2881,1.2881,1.2881,1.2686,1.2126,1.0993,1.0233,0.0,0.0,0.0,0.0,0.0,0.0,0.0,0.0,0.0,0.0,0.0,0.0,0.0,0.0,0.0,0.0,0.0,0.0,0.0,0.0,0.0,0.0,0.0,0.0,0.0,0.0,0.0,0.0,0.0,0.0,0.0,0.0,0.0,0.0,0.0,0.0,0.0,0.0,0.0,0.0,0.0,0.0,0.0,0.0,0.0,0.0,0.0,0.0,0.0,0.0,0.0,0.0,0.0,0.0,0.0,0.0,0.0,0.0,0.0,0.0,0.0,0.0,0.0,0.0,0.0,0.0,0.0,0.0,0.0,0.0,0.0,0.0,0.0,0.0,0.0,0.0,0.0,0.0,0.0,0.0,0.0,0.0,0.0,0.0,0.0,0.0,0.0,0.0,0.0,0.0,0.0,0.0,0.0,0.0,0.0,0.0,0.0,0.0,0.0,0.0,0.0,0.0,0.0,1.231,1.2384,1.2348,1.2348,1.1968,1.1635,1.1485,1.0974,1.0374,0.9724,0.0,0.0,0.0,0.0,0.0,0.0,0.0,0.0,0.0,0.0,0.0,0.0,0.0,0.0,0.0,0.0,0.0,0.0,0.0,0.0,0.0,0.0,0.0,0.0,0.0,0.0,0.0,0.0,0.0,0.0,0.0,0.0,0.0,0.0,0.0,0.0,0.0,0.0,0.0,0.0,0.0,0.0,0.0,0.0,0.0,0.0,0.0,0.0,0.0,0.0,0.0,0.0,0.0,0.0,0.0,0.0,0.0,0.0,0.0,0.0,0.0,0.0,0.0,0.0,0.0,0.0,0.0,0.0,0.0,0.0,0.0,0.0,0.0,0.0,0.0,0.0,0.0,0.0,0.0,0.0,0.0,0.0,0.0,0.0,0.0,0.0,0.0,0.0,0.0,0.0,0.0,0.0,0.0,0.0,0.0,0.0,0.0,0.0,0.0,0.0,0.0,0.0,1.1759,1.2001,1.2002,1.1769,1.141,1.1099,1.0905,1.0647,1.0122,0.924,0.0,0.0,0.0,0.0,0.0,0.0,0.0,0.0,0.0,0.0,0.0,0.0,0.0,0.0,0.0,0.0,0.0,0.0,0.0,0.0,0.0,0.0,0.0,0.0,0.0,0.0,0.0,0.0,0.0,0.0,0.0,0.0,0.0,0.0,0.0,0.0,0.0,0.0,0.0,0.0,0.0,0.0,0.0,0.0,0.0,0.0,0.0,0.0,0.0,0.0,0.0,0.0,0.0,0.0,0.0,0.0,0.0,0.0,0.0,0.0,0.0,0.0,0.0,0.0,0.0,0.0,0.0,0.0,0.0,0.0,0.0,0.0,0.0,0.0,0.0,0.0,0.0,0.0,0.0,0.0,0.0,0.0,0.0,0.0,0.0,0.0,0.0,0.0,0.0,0.0,0.0,0.0,0.0,0.0,0.0,0.0,0.0,0.0,0.0,0.0,0.0,0.0,1.0851,1.1506,1.1719,1.1175,1.1074,1.0846,1.0377,1.0087,0.9565,0.8738,0.0,0.0,0.0,0.0,0.0,0.0,0.0,0.0,0.0,0.0,0.0,0.0,0.0,0.0,0.0,0.0,0.0,0.0,0.0,0.0,0.0,0.0,0.0,0.0,0.0,0.0,0.0,0.0,0.0,0.0,0.0,0.0,0.0,0.0,0.0,0.0,0.0,0.0,0.0,0.0,0.0,0.0,0.0,0.0,0.0,0.0,0.0,0.0,0.0,0.0,0.0,0.0,0.0,0.0,0.0,0.0,0.0,0.0,0.0,0.0,1.0792,1.0452,0.0,0.0,0.0,0.0,0.0,0.0,0.0,0.0,0.0,0.0,0.0,0.0,0.0,0.0,0.0,0.0,0.0,0.0,0.0,0.0,0.0,0.0,0.0,0.0,0.0,0.0,0.0,0.0,0.0,0.0,0.0,0.0,0.0,0.0,0.0,0.0,0.0,0.0,0.0,0.0,1.0798,1.0819,1.0702,1.0574,1.0182,0.9899,0.9769,0.9519,0.9169,0.8716,0.8068,0.0,0.0,0.0,0.0,0.0,0.0,0.0,0.0,0.0,0.0,0.0,0.0,0.0,0.0,0.0,0.0,0.0,0.0,0.0,0.0,0.0,0.0,0.0,0.0,0.0,0.0,0.0,0.0,0.0,0.0,0.0,0.0,0.0,0.0,0.0,0.0,0.0,0.0,0.0,0.0,0.0,0.0,0.0,0.0,0.0,0.0,0.0,0.0,0.0,0.0,0.0,0.0,0.0,0.0,0.0,0.0,0.0,0.0,0.0,1.1057,1.085,0.0,0.0,0.0,0.0,0.0,0.0,0.0,0.0,0.0,0.0,0.0,0.0,0.0,0.0,0.0,0.0,0.0,0.0,0.0,0.0,0.0,0.0,0.0,0.0,0.0,0.0,0.0,0.0,0.0,0.0,0.0,0.0,0.0,0.0,0.0,0.0,0.0,0.0,0.0,0.0,1.0116,1.0295,1.03,1.0035,0.9769,0.9588,0.9588,0.9475,0.9249,0.8965,0.8459,0.0,0.0,0.0,0.0,0.0,0.0,0.0,0.0,0.0,0.0,0.0,0.0,0.0,0.0,0.0,0.0,0.0,0.0,0.0,0.0,0.0,0.0,0.0,0.0,0.0,0.0,0.0,0.0,0.0,0.0,0.0,0.0,0.0,0.0,0.0,0.0,0.0,0.0,0.0,0.0,0.0,0.0,0.0,0.0,0.0,0.0,0.0,0.0,0.0,0.0,0.0,0.0,0.0,1.224,1.2264,1.1885,1.1885,1.1922,1.1949,1.1509,1.1435,1.1608,1.134,0.0,0.0,0.0,0.0,0.0,0.0,0.0,0.0,0.0,0.0,0.0,0.0,0.0,0.0,0.0,0.0,0.0,0.0,0.0,0.0,0.0,0.0,1.0763,1.0238,1.0423,1.0557,0.983,0.0,0.0,0.0,0.0,0.0,0.0,0.0,0.0,0.0,0.0,0.0,0.9445,0.9893,1.0087,0.964,0.9588,0.9562,0.9458,0.9458,0.9303,0.8909,0.8597,0.8162,0.0,0.0,0.0,0.0,0.0,0.0,0.0,0.0,0.0,0.0,0.0,0.0,0.0,0.0,0.0,0.0,0.0,0.0,0.0,0.0,0.0,0.0,0.0,0.0,0.0,0.0,0.0,0.0,0.0,0.0,0.0,0.0,1.04,1.0469,0.0,0.0,0.0,0.0,0.0,0.0,0.0,0.0,0.0,0.0,0.0,0.0,0.0,1.202,1.1349,1.166,1.1711,1.1469,1.2285,1.2543,1.2332,1.2332,1.2565,1.2957,1.2438,0.0,1.1636,1.0847,0.0,0.0,0.0,0.0,0.0,0.0,0.0,0.0,0.0,0.0,0.0,0.0,0.0,0.0,0.0,0.0,0.0,0.0,0.0,0.0,0.0,0.0,1.0846,1.0589,1.0909,1.1056,1.0227,0.9644,0.9291,0.9304,0.9054,0.8815,0.0,0.0,0.0,0.0,0.0,0.0,0.966,0.9716,0.9666,0.9614,0.9588,0.9406,0.8935,0.8909,0.8547,0.7696,0.7383,0.7175,0.7108,0.6725,0.0,0.0,0.0,0.0,0.0,0.0,0.0,0.0,0.0,0.0,0.0,0.0,0.0,0.0,0.0,0.0,0.0,0.0,0.0,0.0,0.0,0.0,0.0,0.0,0.0,0.0,0.0,0.0,0.0,1.044,1.1226,1.1419,1.1726,1.183,0.0,0.0,0.0,0.0,0.0,0.0,0.0,0.0,0.0,1.2792,1.2851,1.2621,1.2059,1.2269,1.2172,1.1729,1.2312,1.2526,1.2445,1.2445,1.2575,1.2794,1.2575,1.2355,1.2103,1.1615,1.1375,1.1284,0.0,0.0,0.0,0.0,1.1634,1.1572,1.1175,1.1021,1.098,1.0621,0.0,0.0,0.0,0.0,0.0,0.0,0.0,1.0898,1.0671,1.0898,1.1087,1.0693,1.0779,1.0855,1.046,1.0188,0.9936,0.9635,0.9463,0.924,0.8879,0.9044,0.0,0.0,0.0,0.8842,0.894,0.8764,0.8639,0.8639,0.8639,0.856,0.8323,0.8296,0.8114,0.7703,0.7564,0.7413,0.7234,0.7043,0.6822,0.0,0.0,0.0,0.0,0.0,0.0,0.0,0.0,0.0,0.0,0.0,0.0,0.0,0.0,0.0,0.0,0.0,0.0,0.0,0.0,0.0,0.0,0.0,0.0,0.0,0.0,0.0,0.0,1.1183,1.1942,1.2194,1.2505,1.2575,0.0,0.0,0.0,0.0,0.0,0.0,1.3234,1.3528,1.3643,1.3483,1.3434,1.3165,1.2649,1.2747,1.2623,1.2251,1.2499,1.2584,1.2456,1.2456,1.2346,1.2137,1.2137,1.2192,1.231,1.2195,1.1861,1.1411,1.1291,1.1358,1.1489,1.1491,1.1532,1.1581,1.1071,1.0995,1.1018,1.0494,1.031,1.0297,1.0456,0.0,0.0,0.0,0.0,1.1187,1.074,1.0833,1.095,1.0448,1.0323,1.0309,1.0196,1.0182,1.0123,0.9933,0.9776,0.9503,0.8911,0.9115,0.0,0.8289,0.8367,0.8443,0.8228,0.8013,0.7898,0.7898,0.7898,0.7845,0.7717,0.7691,0.7637,0.7477,0.7477,0.7365,0.71,0.7155,0.6913,0.631,0.0,0.0,0.0,0.0,0.0,0.0,0.0,0.0,0.0,0.0,0.0,0.0,0.0,0.0,0.0,0.0,0.0,0.0,0.0,0.0,0.0,0.0,0.0,0.0,0.0,0.0,0.0,0.0,0.0,1.2579,1.3298,0.0,0.0,0.0,0.0,1.1332,1.1991,1.2379,1.2295,1.3348,1.3651,1.2973,1.329,1.3189,1.2508,1.2523,1.265,1.2958,1.298,1.2742,1.2295,1.2295,1.189,1.118,1.118,1.1436,1.1826,1.1969,1.2358,1.2798,1.1779,1.179,1.2171,1.0805,1.0577,1.076,0.9497,0.9321,0.9625,0.921,0.9603,1.0293,1.0659,1.0651,0.0,0.0,1.0647,1.0408,1.0203,1.0141,1.0062,0.9643,0.9539,0.9472,0.915,0.9065,0.9292,0.9957,0.9665,0.924,0.8948,0.0,0.7666,0.8052,0.7741,0.7591,0.787,0.7919,0.7898,0.7898,0.7898,0.7691,0.7192,0.7133,0.6896,0.6309,0.6282,0.6277,0.6268,0.6514,0.6611,0.6574,0.6333,0.0,0.0,0.0,0.0,0.0,0.0,0.0,0.0,0.0,0.0,0.0,0.0,0.0,0.0,0.0,0.0,0.0,0.0,0.0,0.0,0.0,0.0,0.0,0.0,0.0,0.0,0.0,0.0,1.2551,1.3049,0.0,1.2823,1.2962,1.3162,1.3313,1.3466,1.3726,1.411,1.4136,1.4088,1.3929,1.3662,1.3459,1.3332,1.3219,1.3206,1.3323,1.2804,1.246,1.2268,1.1744,1.1372,1.1111,1.1111,1.1205,1.1358,1.1409,1.1597,1.1806,1.0922,1.0703,1.0863,1.0342,1.0247,1.0331,0.9841,0.9793,0.9866,0.9559,0.963,0.9882,0.9781,0.9875,0.9978,0.9851,0.9915,0.9964,0.9775,0.9731,0.9693,0.9526,0.9486,0.9462,0.9366,0.931,0.9327,0.9379,0.9105,0.8752,0.8446,0.826,0.8155,0.8111,0.7799,0.7638,0.7755,0.7422,0.7136,0.7015,0.6999,0.6859,0.6537,0.6522,0.6418,0.6205,0.6205,0.6205,0.6205,0.6291,0.6286,0.6143,0.6056,0.6032,0.0,0.0,0.0,0.0,0.0,0.0,0.0,0.0,0.0,0.0,0.0,0.0,0.0,0.0,0.0,0.0,0.0,0.0,0.0,0.0,0.0,0.0,0.0,0.0,0.0,1.1658,1.2192,1.2798,1.3401,1.3622,1.3293,1.3565,1.3825,1.4015,1.4012,1.4196,1.4646,1.436,1.4261,1.4431,1.4017,1.3704,1.359,1.3433,1.3208,1.2907,1.2365,1.1948,1.1676,1.1142,1.0758,1.0489,1.0489,1.0598,1.079,1.0486,1.0572,1.0758,1.0224,1.0046,1.001,0.9724,0.974,0.9838,0.9782,0.9614,0.9447,0.9491,0.9508,0.9513,0.9507,0.951,0.9507,0.9561,0.9571,0.953,0.9396,0.9325,0.9202,0.8968,0.8874,0.8812,0.8812,0.8812,0.8762,0.8532,0.8493,0.8362,0.8023,0.7974,0.7971,0.7862,0.7605,0.7439,0.7588,0.7116,0.674,0.6624,0.6548,0.645,0.6318,0.6243,0.6205,0.6205,0.6205,0.6205,0.6205,0.6134,0.6026,0.5911,0.5769,0.5826,0.6062,0.0,0.0,0.0,0.0,0.0,0.0,0.0,0.0,0.0,0.0,0.0,0.0,0.0,0.0,0.0,0.0,0.0,0.0,0.0,0.0,0.0,0.0,0.0,1.1318,1.2363,1.3119,1.3365,1.4307,1.4601,1.3708,1.3909,1.3832,1.3186,1.3466,1.3657,1.3665,1.3956,1.4175,1.4291,1.4268,1.3868,1.3087,1.3048,1.2612,1.1702,1.1662,1.1255,1.0479,1.0479,1.004,0.9282,0.9282,0.9606,1.0076,0.9306,0.934,0.9862,0.9852,0.9846,0.9765,0.897,0.8983,0.9358,0.9161,0.8659,0.824,0.8871,0.9082,0.9217,0.9846,0.9602,0.9217,0.9875,0.959,0.9066,0.906,0.893,0.8596,0.7957,0.7664,0.7512,0.7512,0.7503,0.7498,0.7498,0.7874,0.8086,0.7765,0.7195,0.696,0.734,0.7076,0.0,0.7345,0.7076,0.681,0.6805,0.6647,0.6516,0.6501,0.6295,0.6182,0.6178,0.6178,0.6173,0.615,0.6003,0.592,0.592,0.5538,0.5482,0.5812,0.0,0.0,0.0,0.0,0.0,0.0,0.0,0.0,0.0,0.0,0.0,0.0,0.0,0.0,0.0,0.0,0.0,0.0,0.0,0.0,0.0,1.115,1.1538,1.1728,1.1925,1.2243,1.2899,1.3439,1.3729,1.3616,1.3905,1.4174,1.4403,1.4358,1.4482,1.4886,1.4402,1.4108,1.4164,1.334,1.2824,1.2579,1.2261,1.1942,1.1702,1.1094,1.0727,1.0479,0.9882,0.9521,0.9282,0.9282,0.9122,0.8824,0.8585,0.8595,0.8755,0.8971,0.9046,0.9003,0.878,0.8779,0.8872,0.8846,0.8678,0.8566,0.8752,0.8827,0.8864,0.9045,0.8976,0.883,0.886,0.8747,0.8563,0.8401,0.8348,0.8239,0.8069,0.7987,0.7944,0.7944,0.7826,0.7726,0.7726,0.7715,0.7678,0.7582,0.7418,0.7354,0.745,0.7386,0.7354,0.745,0.7386,0.7239,0.7119,0.7052,0.6861,0.6525,0.619,0.5931,0.5768,0.5759,0.5618,0.5258,0.5815,0.6116,0.6116,0.6207,0.6174,0.0,0.0,0.0,0.0,0.0,0.0,0.0,0.0,0.0,0.0,0.0,0.0,0.0,0.0,0.0,0.0,0.0,0.0,0.0,0.0,0.0,0.0,1.0747,1.1008,1.1539,1.2003,1.2539,1.3191,1.3576,1.3871,1.424,1.4208,1.4342,1.4789,1.4463,1.4353,1.4669,1.4209,1.3866,1.372,1.3079,1.2485,1.1946,1.1657,1.1197,1.0528,1.0065,0.9689,0.9349,0.8897,0.8691,0.8691,0.8691,0.8396,0.7951,0.7951,0.7907,0.7853,0.0,0.0,0.0,0.0,0.828,0.8665,0.8394,0.8318,0.8356,0.8627,0.8508,0.8318,0.8318,0.8318,0.8257,0.7882,0.7776,0.775,0.7638,0.7548,0.7456,0.7456,0.7391,0.7296,0.7296,0.721,0.7112,0.7104,0.6996,0.0,0.6852,0.6999,0.7129,0.706,0.6933,0.6868,0.7027,0.6933,0.6796,0.666,0.6573,0.6431,0.6152,0.5781,0.0,0.0,0.0,0.5144,0.4777,0.5449,0.0,0.0,0.0,0.0,0.0,0.0,0.0,0.0,0.6293,0.6424,0.0,0.0,0.0,0.0,0.0,0.0,0.0,0.0,0.0,0.0,0.0,0.0,0.0,0.0,0.0,0.0,0.9812,0.9931,1.1188,1.2444,1.3342,1.3719,1.4055,1.4423,1.4926,1.4464,1.4265,1.4613,1.4088,1.3754,1.3829,1.375,0.0,0.0,0.0,1.2314,1.1192,1.102,1.0193,0.8759,0.8759,0.8448,0.779,0.779,0.779,0.779,0.779,0.7665,0.7411,0.7411,0.7271,0.7026,0.7035,0.7417,0.7919,0.7184,0.7585,0.8426,0.7906,0.0,0.0,0.8318,0.8127,0.7706,0.7706,0.7706,0.7591,0.7057,0.6903,0.6903,0.6903,0.676,0.6619,0.6619,0.6463,0.6281,0.6281,0.6266,0.6211,0.6174,0.6115,0.6044,0.5874,0.6263,0.6539,0.6367,0.6079,0.602,0.6305,0.6083,0.5888,0.5888,0.5754,0.0,0.5607,0.528,0.5071,0.5035,0.4854,0.4729,0.4643,0.4973,0.5205,0.5257,0.5601,0.588,0.6064,0.606,0.6073,0.6087,0.6367,0.6627,0.0,0.0,0.0,0.0,0.0,0.0,0.0,0.0,0.0,0.0,0.0,0.0,0.0,0.0,0.0,1.0572,1.0779,1.1172,1.2194,1.2547,1.2772,1.2838,1.3105,1.3398,1.3651,1.3771,1.3923,1.4273,1.4181,1.4204,1.4496,1.3978,1.3677,1.3604,1.1832,1.0742,1.0491,0.9139,0.8313,0.8009,0.8009,0.0,0.779,0.779,0.779,0.779,0.779,0.7464,0.6913,0.6913,0.6483,0.5925,0.6826,0.7256,0.736,0.7082,0.7141,0.7316,0.7142,0.7092,0.7092,0.7207,0.7169,0.7092,0.7092,0.7092,0.0,0.6938,0.6903,0.6903,0.6903,0.6877,0.6854,0.6854,0.6794,0.6768,0.6768,0.663,0.653,0.65,0.6274,0.594,0.5508,0.5773,0.6053,0.602,0.5954,0.5921,0.5984,0.5954,0.5888,0.5888,0.5862,0.5784,0.5614,0.5199,0.4816,0.4552,0.4097,0.415,0.4829,0.4576,0.46,0.4961,0.5043,0.5113,0.5148,0.5265,0.5302,0.5327,0.6119,0.6517,0.0,0.0,0.0,0.0,0.0,0.0,0.0,0.0,0.0,0.0,0.0,0.9064,0.9715,0.0,0.9473,1.0294,1.0521,1.0861,1.1646,1.1853,1.2196,1.2876,1.3068,1.3314,1.3703,1.3552,1.3601,1.3904,1.3627,1.3526,1.3669,1.2954,1.24,1.2143,1.0577,0.9579,0.9235,0.8408,0.7749,0.7305,0.7305,0.7088,0.6741,0.6741,0.6741,0.6741,0.6741,0.6564,0.6257,0.6257,0.6001,0.5679,0.6214,0.6567,0.6719,0.632,0.658,0.7042,0.6648,0.652,0.6545,0.6813,0.6672,0.6402,0.6402,0.6402,0.6325,0.6018,0.5941,0.5941,0.5941,0.5941,0.5941,0.5941,0.5941,0.5941,0.5941,0.5886,0.5781,0.5707,0.5576,0.5347,0.5068,0.5117,0.5174,0.5106,0.5096,0.5096,0.5096,0.5096,0.5096,0.5096,0.5096,0.5064,0.4961,0.4662,0.4412,0.4153,0.3907,0.3931,0.4394,0.4391,0.451,0.4742,0.4977,0.5093,0.5093,0.5174,0.5185,0.5218,0.5775,0.6177,0.0,0.0,0.0,0.0,0.0,0.0,0.0,0.8902,0.8824,0.9015,0.8932,0.9066,0.9732,0.9599,0.9561,1.0058,1.0197,1.0396,1.0774,1.1022,1.1511,1.2415,1.2711,1.3014,1.3527,1.2962,1.2672,1.2936,1.2479,1.2137,1.2137,1.1451,1.0847,1.0458,0.9497,0.8711,0.8109,0.7889,0.7404,0.6605,0.6605,0.6254,0.5688,0.5688,0.5688,0.5688,0.5688,0.5688,0.5688,0.5688,0.5688,0.5688,0.5688,0.5915,0.6105,0.5622,0.6026,0.6791,0.6163,0.5953,0.6012,0.6456,0.621,0.574,0.5718,0.5709,0.5631,0.5132,0.5018,0.5018,0.5018,0.5018,0.5018,0.5018,0.5018,0.5018,0.5018,0.5018,0.4949,0.4852,0.4814,0.4766,0.4742,0.4621,0.4501,0.4352,0.4314,0.43,0.43,0.43,0.43,0.43,0.43,0.43,0.43,0.4189,0.4043,0.3946,0.3916,0.3903,0.3903,0.4272,0.4455,0.4455,0.482,0.5032,0.5032,0.5064,0.5078,0.5081,0.5357,0.5764,0.9969,0.9843,0.9791,1.0037,0.9343,0.8895,0.0,0.9656,0.9168,0.9831,0.9479,0.919,0.9659,0.9564,0.9646,1.0394,1.0896,1.0998,1.0603,1.0589,1.0393,0.9832,1.0593,1.1203,1.1258,1.0682,1.0283,1.0308,1.0269,1.0226,1.0226,1.0096,1.0009,0.9966,0.8877,0.8181,0.7834,0.683,0.6171,0.5822,0.5822,0.5777,0.5688,0.5688,0.5688,0.5688,0.5688,0.5688,0.5688,0.5688,0.5688,0.5688,0.5688,0.5716,0.5766,0.557,0.5572,0.5681,0.5516,0.5474,0.5455,0.5407,0.5325,0.5268,0.5123,0.5093,0.5093,0.5018,0.5018,0.5018,0.5018,0.5018,0.5018,0.5018,0.5018,0.5018,0.5018,0.5018,0.5012,0.4999,0.4871,0.4793,0.4779,0.4713,0.4627,0.4503,0.4365,0.43,0.43,0.43,0.43,0.43,0.43,0.43,0.43,0.4189,0.4081,0.4067,0.3965,0.3903,0.3903,0.3964,0.3964,0.3964,0.4025,0.4058,0.4058,0.4167,0.4223,0.4258,0.4869,0.5354,0.994,0.9939,0.9987,1.025,1.0094,0.991,1.0178,0.9715,0.9384,0.9943,0.9615,0.9495,1.0151,0.9848,0.9672,1.0105,1.0121,1.0032,0.9944,0.9985,0.9907,0.9576,0.9381,0.9497,1.0119,1.0024,0.9879,0.9879,0.9879,0.9879,0.9879,0.9362,0.9104,0.9104,0.8101,0.7353,0.7,0.652,0.6083,0.5688,0.5688,0.5688,0.5688,0.5688,0.5419,0.4926,0.5466,0.506,0.4164,0.524,0.5374,0.4926,0.5466,0.5688,0.5683,0.5632,0.5613,0.5597,0.5475,0.5474,0.5455,0.5333,0.5333,0.5271,0.5151,0.5116,0.5102,0.5034,0.5018,0.5018,0.5018,0.5018,0.5018,0.5018,0.5018,0.5018,0.5018,0.5018,0.5018,0.5018,0.4938,0.4903,0.4903,0.4838,0.4741,0.4689,0.4583,0.4514,0.4443,0.4398,0.4374,0.4308,0.43,0.43,0.43,0.4254,0.4224,0.4224,0.4175,0.4148,0.4148,0.4148,0.4148,0.4148,0.4148,0.4148,0.4148,0.42,0.4224,0.4224,0.4505,0.4737,0.9967,1.0072,1.0196,1.0404,1.0536,1.0496,1.0113,0.973,0.9491,0.9612,0.9425,0.9346,0.9807,0.9555,0.9392,0.963,0.9484,0.9306,0.9233,0.9277,0.9185,0.8921,0.8176,0.8023,0.882,0.8999,0.9087,0.9139,0.9139,0.9139,0.9139,0.8496,0.8105,0.8105,0.7404,0.683,0.6384,0.6343,0.6127,0.5688,0.5419,0.5329,0.5285,0.506,0.4567,0.3941,0.4612,0.4164,0.3001,0.4389,0.4523,0.3985,0.4656,0.4926,0.4926,0.4926,0.524,0.5677,0.5588,0.5559,0.5494,0.5159,0.5039,0.5016,0.4902,0.4642,0.4482,0.4649,0.4528,0.4309,0.4309,0.4309,0.4309,0.4309,0.4504,0.4659,0.4659,0.4859,0.5018,0.5018,0.5018,0.5018,0.5018,0.4906,0.4847,0.4847,0.4809,0.4734,0.4575,0.4525,0.446,0.4314,0.43,0.43,0.43,0.43,0.43,0.43,0.43,0.43,0.43,0.43,0.43,0.43,0.43,0.43,0.43,0.43,0.4317,0.4346,0.4346,0.4443,1.0028,1.0141,1.034,1.0555,1.0205,0.9898,1.0067,0.9824,0.9421,0.8845,0.8737,0.8539,0.8009,0.8237,0.8635,0.8977,0.9419,0.9403,0.8642,0.8424,0.7954,0.693,0.6743,0.6743,0.6788,0.6929,0.7033,0.7173,0.7183,0.7183,0.7183,0.7139,0.7139,0.7139,0.6925,0.6659,0.6384,0.6213,0.5952,0.5688,0.4792,0.4344,0.43,0.3403,0.2957,0.2957,0.2956,0.2957,0.2911,0.2957,0.2957,0.2957,0.2956,0.3001,0.3001,0.3001,0.4119,0.5688,0.5686,0.5683,0.5528,0.4494,0.4159,0.4097,0.3964,0.3299,0.2756,0.3683,0.3264,0.2582,0.2582,0.2582,0.2582,0.2582,0.3207,0.383,0.383,0.4462,0.5018,0.5018,0.5018,0.5018,0.5018,0.5015,0.5012,0.5012,0.501,0.492,0.4714,0.4577,0.446,0.4314,0.43,0.43,0.43,0.43,0.43,0.43,0.43,0.43,0.43,0.43,0.43,0.43,0.43,0.43,0.43,0.43,0.4357,0.4498,0.4498,0.4566,0.9573,0.9849,1.0004,0.991,0.9729,0.9533,0.9256,0.889,0.8685,0.8898,0.8751,0.8624,0.8895,0.8405,0.8037,0.8282,0.7936,0.7569,0.7383,0.7361,0.7208,0.676,0.6702,0.6702,0.6702,0.6749,0.6878,0.7078,0.7011,0.6997,0.7092,0.7095,0.6738,0.5983,0.5894,0.5359,0.4287,0.42,0.4071,0.3851,0.3539,0.336,0.336,0.3045,0.2553,0.1928,0.2598,0.2152,0.1077,0.2376,0.251,0.1973,0.2644,0.2911,0.2911,0.2911,0.3314,0.3851,0.3851,0.3851,0.3803,0.342,0.3323,0.3266,0.3151,0.2872,0.2687,0.2889,0.2749,0.2503,0.2503,0.2503,0.2503,0.2503,0.2737,0.2934,0.2934,0.3169,0.3326,0.3326,0.3326,0.3326,0.3326,0.3834,0.4384,0.4937,0.4909,0.4828,0.4784,0.4703,0.458,0.446,0.4449,0.4382,0.4308,0.43,0.43,0.43,0.43,0.43,0.43,0.43,0.43,0.43,0.43,0.4338,0.4449,0.4449,0.4509,0.4627,0.4627,0.4692,0.9255,0.9472,0.9542,0.9265,0.9195,0.9124,0.8784,0.8508,0.8349,0.848,0.8259,0.8095,0.8212,0.7509,0.7034,0.7342,0.685,0.6538,0.6779,0.6857,0.6849,0.6793,0.6437,0.6216,0.6266,0.5889,0.6054,0.7031,0.6705,0.6518,0.6602,0.6201,0.5622,0.4865,0.4723,0.4143,0.322,0.3108,0.2839,0.2376,0.2376,0.2196,0.1883,0.1883,0.1524,0.0942,0.1569,0.1166,0.009,0.1346,0.148,0.0942,0.1614,0.1883,0.1883,0.1883,0.1883,0.1973,0.2644,0.2911,0.2822,0.2465,0.2376,0.2369,0.2248,0.199,0.1779,0.2045,0.187,0.159,0.1603,0.1626,0.1608,0.1622,0.1852,0.2074,0.2074,0.2309,0.2503,0.2503,0.2503,0.2503,0.2503,0.2971,0.3599,0.4462,0.4481,0.4536,0.4763,0.4765,0.4561,0.4157,0.4393,0.4383,0.3961,0.423,0.439,0.4306,0.4338,0.4344,0.4303,0.43,0.4319,0.436,0.436,0.4454,0.4569,0.4569,0.4632,0.4753,0.4753,0.4781,0.9115,0.9111,0.9056,0.8712,0.8627,0.8627,0.8589,0.8589,0.8356,0.7587,0.7254,0.6908,0.6128,0.5729,0.5662,0.6182,0.6238,0.6352,0.6813,0.681,0.6807,0.68,0.5867,0.5289,0.5397,0.4464,0.4706,0.6817,0.6121,0.5633,0.5638,0.452,0.3898,0.3807,0.3383,0.3112,0.3051,0.2833,0.2285,0.1348,0.1346,0.0853,0.0,0.0,0.0,0.0,0.0,0.0,0.0,0.0,0.0,0.0,0.0,0.0,0.0,0.0,0.0,0.0269,0.2107,0.2732,0.2598,0.1659,0.1346,0.1346,0.1346,0.0708,0.0174,0.1086,0.0674,0.0,0.0,0.0,0.0,0.0,0.0639,0.1216,0.1215,0.184,0.2386,0.2386,0.2386,0.2387,0.2426,0.2426,0.2737,0.3597,0.3713,0.3994,0.4704,0.4769,0.442,0.3505,0.4152,0.425,0.3297,0.4118,0.4591,0.4333,0.4449,0.446,0.4322,0.4314,0.4363,0.4512,0.4514,0.4575,0.4698,0.4698,0.4724,0.4806,0.4806,0.4868,0.9251,0.9387,0.9388,0.8105,0.7787,0.7633,0.7065,0.6911,0.68,0.6448,0.6353,0.6215,0.5917,0.5735,0.5726,0.5893,0.6016,0.6119,0.6262,0.5849,0.5504,0.5553,0.4802,0.4289,0.4424,0.4285,0.44,0.4972,0.4685,0.4542,0.466,0.422,0.3555,0.267,0.2307,0.1743,0.0844,0.0743,0.0599,0.0367,0.0362,0.0225,0.0,0.0,0.0,0.0,0.0,0.0,0.0,0.0,0.0,0.0,0.0,0.0,0.0,0.0,0.0,0.009,0.0584,0.0718,0.0718,0.0449,0.0359,0.0359,0.0359,0.0177,0.0044,0.0305,0.0171,0.0,0.0,0.0,0.0,0.0,0.0162,0.0321,0.0315,0.051,0.0628,0.0628,0.0628,0.0862,0.1488,0.1605,0.1879,0.2698,0.2815,0.3357,0.4779,0.4421,0.3917,0.3599,0.374,0.3739,0.3389,0.4164,0.4662,0.4602,0.4539,0.4534,0.4597,0.4509,0.452,0.464,0.4643,0.4703,0.4787,0.4787,0.4852,0.4933,0.4933,0.4949,0.9165,0.9022,0.8709,0.7383,0.7051,0.69,0.6301,0.6159,0.6115,0.5962,0.5881,0.5789,0.5637,0.5483,0.545,0.5566,0.5342,0.5225,0.5408,0.4854,0.4444,0.457,0.3712,0.3204,0.3393,0.2998,0.2725,0.2709,0.3257,0.3569,0.3502,0.2929,0.2236,0.1429,0.1152,0.0676,0.0,0.0,0.0,0.0,0.0,0.0,0.0,0.0,0.0,-0.0045,-0.0449,-0.0629,-0.0629,-0.0629,-0.0853,-0.1211,-0.0808,-0.0898,-0.1256,-0.1256,-0.0987,-0.0629,-0.0629,-0.0359,0.0,0.0,0.0,0.0,0.0,0.0,0.0,0.0,0.0,0.0,0.0,0.0,0.0,0.0,0.0,0.0,0.0,0.0,0.0,0.0,0.0,0.0157,0.0628,0.0745,0.1019,0.184,0.1957,0.2426,0.3717,0.3521,0.3073,0.2651,0.2916,0.2925,0.2447,0.3211,0.3682,0.3566,0.3912,0.4128,0.4143,0.4408,0.4643,0.473,0.4732,0.4792,0.4876,0.4876,0.4755,0.4462,0.4462,0.4462,0.8858,0.8349,0.7681,0.675,0.6497,0.6373,0.6057,0.5963,0.5892,0.5776,0.5644,0.5545,0.5392,0.52,0.5044,0.5145,0.4536,0.4155,0.4358,0.3779,0.3383,0.3616,0.2597,0.1986,0.2217,0.1318,0.0716,0.0718,0.1883,0.2535,0.2293,0.1295,0.0625,0.0336,0.0098,0.0,0.0,0.0,0.0,0.0,0.0,0.0,0.0,0.0,0.0,-0.0045,-0.0991,-0.1394,-0.1391,-0.1524,-0.2107,-0.2823,-0.1928,-0.2152,-0.2911,-0.2911,-0.2331,-0.1614,-0.1614,-0.1077,-0.0359,-0.009,0.0,0.0,0.0,0.0,0.0,0.0,0.0,0.0,0.0,0.0,0.0,0.0,0.0,0.0,0.0,0.0,0.0,0.0,0.0,0.0,0.0,0.0,0.0275,0.1019,0.1136,0.1371,0.2074,0.227,0.2074,0.1371,0.1918,0.2019,0.1181,0.1973,0.2382,0.2173,0.2954,0.3371,0.327,0.399,0.4399,0.4475,0.4591,0.4678,0.4662,0.4779,0.4423,0.3636,0.3636,0.3636,0.8269,0.791,0.7681,0.675,0.6422,0.6289,0.6033,0.584,0.5623,0.5501,0.545,0.5388,0.5199,0.5196,0.5029,0.4399,0.4148,0.3823,0.3292,0.2388,0.1888,0.2142,0.1277,0.0786,0.0971,0.0801,0.072,0.0781,0.1022,0.1168,0.1074,0.0694,0.035,0.01,0.0,0.0,0.0,0.0,0.0,0.0,0.0,0.0,0.0,0.0,0.0,-0.0046,-0.1011,-0.1411,-0.148,-0.2286,-0.2732,-0.2867,-0.2688,-0.2732,-0.2911,-0.2911,-0.2778,-0.2644,-0.2644,-0.2553,-0.2152,-0.0539,0.0,0.0,0.0,0.0,0.0,0.0,0.0,0.0,0.0,0.0,0.0,0.0,0.0,0.0,0.0,0.0,0.0,0.0,0.0,0.0,0.0,0.0,0.0039,0.0196,0.0235,0.0275,0.0432,0.1058,0.1449,0.1332,0.141,0.1447,0.1286,0.2031,0.2495,0.2436,0.2477,0.2549,0.2664,0.2693,0.277,0.2914,0.3614,0.3622,0.2934,0.3677,0.3558,0.2737,0.2737,0.2737,0.7894,0.7506,0.7151,0.6629,0.6405,0.6238,0.5966,0.5684,0.546,0.5274,0.5182,0.5084,0.4931,0.4731,0.4423,0.402,0.3241,0.259,0.2201,0.1314,0.0778,0.1026,0.0553,0.0282,0.0517,0.0435,0.0345,0.0398,0.0399,0.0448,0.0598,0.0352,0.0152,0.0,0.0,0.0,0.0,0.0,0.0,0.0,0.0,0.0,0.0,0.0,0.0,-0.0047,-0.0974,-0.1378,-0.1456,-0.1936,-0.2419,-0.2911,-0.2911,-0.3181,-0.3673,-0.4164,-0.403,-0.3628,-0.3628,-0.2956,-0.1973,-0.1032,-0.1077,-0.1525,-0.1525,-0.1525,-0.1525,-0.1525,-0.1525,-0.1525,-0.1525,-0.1122,-0.0717,-0.0709,-0.0351,0.0,0.0,0.0,0.0,0.0,0.0,0.0,0.0,0.0,0.0,0.0,0.0,0.0,0.0,0.0353,0.0628,0.0628,0.0628,0.0628,0.0628,0.098,0.1214,0.1214,0.1551,0.1819,0.1879,0.2208,0.2437,0.2503,0.2893,0.2934,0.2503,0.2934,0.2699,0.1879,0.1879,0.1879,0.749,0.7067,0.6664,0.6552,0.6378,0.617,0.5827,0.5501,0.5191,0.5004,0.4761,0.456,0.4445,0.3992,0.355,0.3301,0.2239,0.141,0.1206,0.0498,0.0086,0.0268,-0.0093,-0.0191,0.0286,-0.0296,-0.0505,-0.0051,0.0,0.0101,0.0303,0.0101,0.0,0.0,0.0,0.0,0.0,0.0,0.0,0.0,0.0,0.0,0.0,0.0,0.0,-0.0048,-0.0978,-0.1382,-0.142,-0.1625,-0.2196,-0.2911,-0.2911,-0.336,-0.4076,-0.4837,-0.4612,-0.3985,-0.3985,-0.3001,-0.1704,-0.1704,-0.1973,-0.2331,-0.251,-0.2419,-0.2331,-0.251,-0.2419,-0.2285,-0.2285,-0.1704,-0.1122,-0.1122,-0.0532,0.0,0.0,0.0,0.0,0.0,0.0,0.0,0.0,0.0,0.0,0.0,0.0,0.0,0.0,0.0,0.0,0.0,0.0,0.0,0.0,0.0,0.0,0.0,0.0628,0.1019,0.1019,0.1644,0.1957,0.1957,0.2152,0.2152,0.1957,0.2152,0.184,0.1019,0.1019,0.1019,0.6792,0.6664,0.6664,0.6552,0.6261,0.5973,0.5677,0.5173,0.4729,0.4582,0.4007,0.3528,0.3516,0.3135,0.2514,0.1655,0.1407,0.1054,0.0241,0.0042,0.0,0.0045,-0.0837,-0.1047,-0.0048,-0.1725,-0.2116,-0.0151,0.0,0.0,0.0051,0.0,0.0,0.0,0.0,0.0,0.0,0.0,0.0,0.0,0.0,0.0,0.0,0.0,0.0,-0.0048,-0.0978,-0.1417,-0.1484,-0.2377,-0.2823,-0.2911,-0.2911,-0.2957,-0.3045,-0.3135,-0.3092,-0.3045,-0.3045,-0.2911,-0.2777,-0.2777,-0.1614,-0.0404,-0.1301,-0.0942,-0.0449,-0.1301,-0.0942,-0.0269,-0.0269,-0.018,-0.0135,-0.0135,-0.0045,0.0,0.0,0.0,0.0,0.0,0.0,0.0,0.0,0.0,0.0,0.0,0.0,0.0,0.0,0.0,0.0,0.0,0.0,0.0,0.0,0.0,0.0,0.0,0.0079,0.0118,0.0118,0.0196,0.0235,0.0235,0.1019,0.1019,0.0235,0.1019,0.098,0.0118,0.0118,0.0118,0.6239,0.6318,0.646,0.6399,0.6118,0.5824,0.5606,0.4808,0.4102,0.3928,0.3244,0.2673,0.2673,0.2215,0.1751,0.142,0.0966,0.0541,0.0225,0.0078,0.0,0.0,-0.0363,-0.047,-0.0048,-0.0789,-0.0908,-0.0051,0.0,0.0,0.0,0.0,0.0,0.0,0.0,0.0,0.0,0.0,0.0,0.0,0.0,-0.0351,-0.0958,-0.0298,-0.0343,-0.0968,-0.1281,-0.1394,-0.1413,-0.1847,-0.2376,-0.2911,-0.2911,-0.3226,-0.3807,-0.4389,-0.4567,-0.4567,-0.4567,-0.421,-0.3762,-0.3762,-0.2822,-0.1793,-0.2196,-0.2062,-0.1838,-0.2196,-0.2017,-0.1749,-0.1749,-0.1301,-0.0718,-0.0135,0.0,0.0,0.0,0.0,0.0,0.0,0.0,0.0,0.0,0.0,0.0,0.0,0.0,0.0,0.0,0.0,0.0,0.0,0.0,0.0,0.0,0.0,0.0,0.0,0.0,0.0,0.0,0.0,0.0,0.0,0.0353,0.0353,0.0,0.0353,0.0353,0.0,0.0,0.0,0.5925,0.607,0.6165,0.617,0.5952,0.5649,0.5396,0.4485,0.3615,0.3429,0.2555,0.1815,0.1815,0.1324,0.0926,0.0977,0.0501,0.0165,0.0218,0.0075,-0.0078,-0.0334,-0.0661,-0.0871,-0.0847,-0.0934,-0.1059,-0.1412,-0.111,-0.0958,-0.0958,-0.0958,-0.0656,0.0,0.0,0.0,0.0,-0.0303,-0.0454,-0.0454,-0.0807,-0.1361,-0.2065,-0.1246,-0.128,-0.1988,-0.1891,-0.1855,-0.1828,-0.1849,-0.224,-0.2911,-0.2911,-0.3314,-0.3985,-0.4612,-0.4882,-0.4882,-0.4882,-0.4433,-0.3896,-0.3896,-0.3449,-0.2911,-0.2911,-0.2911,-0.2957,-0.3226,-0.3135,-0.2822,-0.2553,-0.1928,-0.1166,-0.0225,0.0,0.0,0.0,0.0,0.0,0.0,0.0,0.0,0.0,0.0,0.0,0.0,0.0,0.0,0.0,0.0,0.0,0.0,0.0,0.0,0.0,0.0,0.0,0.0,0.0,0.0,0.0,0.0,0.0,0.0,0.0,0.0,0.0,0.0,0.0,0.0,0.0,0.0,0.5835,0.5915,0.5836,0.5902,0.5691,0.5415,0.5066,0.4126,0.3257,0.3134,0.1948,0.0926,0.0926,0.0432,0.0,0.0,0.0,0.0,0.0,0.0,-0.032,-0.117,-0.2228,-0.2868,-0.2848,-0.3067,-0.3626,-0.4684,-0.3776,-0.3173,-0.3173,-0.3173,-0.2217,-0.0051,0.0,0.0,0.0,-0.1059,-0.1563,-0.1613,-0.267,-0.3173,-0.3169,-0.305,-0.2995,-0.2988,-0.292,-0.2868,-0.2868,-0.2867,-0.2911,-0.2911,-0.2911,-0.2911,-0.2913,-0.2913,-0.2913,-0.2913,-0.2913,-0.2913,-0.2911,-0.2911,-0.2911,-0.2911,-0.2911,-0.2911,-0.3092,-0.403,-0.3628,-0.2689,-0.1659,-0.1391,-0.1166,-0.0225,0.0,0.0,0.0,0.0,0.0,0.0,0.0,0.0,0.0,0.0,0.0,0.0,0.0,0.0,0.0,0.0,0.0,0.0,0.0,0.0,0.0,0.0,0.0,0.0,0.0,0.0,0.0,0.0,0.0,0.0,0.0,0.0,0.0,0.0,0.0,0.0,0.0,0.0,0.5183,0.529,0.5316,0.5237,0.4769,0.4264,0.4018,0.2927,0.189,0.1772,0.0974,0.028,0.028,0.0141,0.0,0.0,0.0,-0.0208,-0.0823,-0.094,-0.1292,-0.217,-0.269,-0.3004,-0.3077,-0.314,-0.3324,-0.3676,-0.3374,-0.3224,-0.3224,-0.3224,-0.2871,-0.2217,-0.2167,-0.2167,-0.2167,-0.2519,-0.267,-0.272,-0.3022,-0.3575,-0.4279,-0.3482,-0.3511,-0.4178,-0.4034,-0.395,-0.3851,-0.3851,-0.4253,-0.4748,-0.4119,-0.4253,-0.4837,-0.4837,-0.4837,-0.4837,-0.4837,-0.4837,-0.4837,-0.501,-0.5099,-0.5099,-0.5228,-0.4158,-0.3001,-0.3444,-0.3223,-0.2867,-0.2685,-0.2508,-0.2331,-0.2062,-0.1973,-0.1793,-0.1122,-0.0942,-0.0763,-0.0135,0.0,0.0,0.0,0.0,0.0,0.0,0.0,0.0,0.0,0.0,0.0,0.0,0.0,0.0,0.0,0.0,0.0,0.0,0.0,0.0,0.0,0.0,0.0,0.0,0.0,0.0,0.0,0.0,0.0,0.0,0.0,0.0,0.4779,0.4846,0.4764,0.45,0.4056,0.3575,0.3159,0.2118,0.1203,0.112,0.0516,0.0,0.0,0.0,0.0,0.0,0.0,-0.0312,-0.1196,-0.1357,-0.1882,-0.3149,-0.3762,-0.414,-0.4275,-0.4342,-0.4427,-0.4427,-0.4427,-0.4427,-0.4427,-0.4427,-0.4427,-0.4427,-0.3626,-0.3224,-0.3224,-0.3626,-0.3827,-0.3827,-0.4228,-0.478,-0.5384,-0.4698,-0.4722,-0.5284,-0.5108,-0.5005,0.0,-0.4851,-0.5196,-0.5644,-0.5149,-0.5327,-0.5863,-0.5949,-0.5949,-0.5949,-0.5949,-0.5949,-0.5994,-0.6171,-0.6213,-0.6257,-0.6343,-0.5361,-0.4247,-0.4378,-0.4247,-0.4071,-0.3846,-0.358,-0.336,-0.3001,-0.2911,-0.2732,-0.2107,-0.2016,-0.1792,-0.0718,-0.0632,-0.0544,-0.009,0.0,0.0,0.0,0.0,0.0,0.0,0.0,0.0,0.0,0.0,0.0,0.0,0.0,0.0,0.0,0.0,0.0,0.0,0.0,0.0,0.0,0.0,0.0,0.0,0.0,0.0,0.0,0.0,0.0,0.0,0.4454,0.4171,0.3753,0.348,0.3126,0.2358,0.1589,0.0,0.1025,0.0486,0.0,0.0,0.0,0.0,0.0,-0.0067,-0.0418,-0.1353,-0.1599,-0.237,-0.4183,-0.528,-0.5964,-0.6086,-0.6304,-0.6387,-0.6387,-0.6387,-0.6387,-0.6387,-0.6387,-0.6387,-0.6387,-0.4477,-0.3425,-0.3425,-0.4431,-0.4935,-0.4935,-0.5937,-0.6387,-0.6381,-0.6377,-0.6325,-0.6303,-0.6065,-0.5955,-0.5942,-0.5779,-0.5733,-0.5733,-0.6041,-0.6127,-0.6127,-0.6343,-0.6384,-0.6384,-0.6384,-0.6384,-0.6384,-0.6432,-0.6432,-0.6428,-0.6428,-0.6432,-0.6384,-0.6432,-0.6299,-0.5902,-0.5053,-0.4652,-0.4208,-0.3314,-0.3135,-0.3092,-0.3001,-0.3132,-0.2907,-0.1749,-0.173,-0.1512,-0.0406,-0.0139,-0.0094,-0.009,-0.0046,0.0,0.0,0.0,0.0,0.0,0.0,0.0,0.0,0.0,0.0,0.0,0.0,0.0,0.0,0.0,0.0,0.0,0.0,0.0,0.0,0.0,0.0,0.0,0.0,0.0,0.3629,0.0,0.3196,0.2995,0.222,0.1461,0.0,0.0731,0.0263,0.0256,0.0113,0.0,0.0,0.0,0.0,0.0,-0.057,-0.1323,-0.2251,-0.3619,-0.4803,-0.5422,-0.5858,-0.6092,-0.6262,-0.6352,-0.6387,-0.6387,-0.6387,-0.6387,-0.6387,-0.6387,-0.6387,-0.6387,-0.5934,-0.5632,-0.5632,-0.5884,-0.6037,-0.6037,-0.6287,-0.6387,-0.6384,-0.6611,-0.6648,-0.6594,-0.6582,-0.6456,-0.6219,-0.6221,-0.6124,-0.6041,-0.6257,-0.6343,-0.6343,-0.6387,-0.6384,-0.6384,-0.6384,-0.6384,-0.6432,-0.6656,-0.6789,-0.6918,-0.6918,-0.6697,-0.6432,-0.6656,-0.6523,-0.6343,-0.6302,-0.5991,-0.5636,-0.5413,-0.5191,-0.4837,-0.4119,-0.403,-0.376,-0.2732,-0.2609,-0.2568,-0.2287,-0.1582,-0.1089,-0.1078,-0.0451,0.0,0.0,0.0,0.0,0.0,0.0,0.0,0.0,0.0,0.0,0.0,0.0,0.0,0.0,0.0,0.0,0.0,0.0,0.0,0.0,0.0,0.0,0.0,0.0,0.0,0.2875,0.281,0.2638,0.2345,0.1593,0.0818,0.0547,0.023,0.0,0.0,0.0,0.0,0.0,-0.0311,-0.0582,-0.06,-0.135,-0.228,-0.3304,-0.4666,-0.5656,-0.5882,-0.601,-0.6132,-0.6306,-0.6372,-0.6387,-0.6387,-0.6387,-0.6387,-0.6387,-0.6387,-0.6387,-0.6387,-0.6387,-0.6387,-0.6387,-0.6387,-0.6387,-0.6387,-0.6539,-0.6589,-0.6589,-0.6842,-0.6953,-0.6926,-0.6939,-0.6842,-0.6667,-0.656,-0.6481,-0.6388,-0.6548,-0.6567,-0.6612,-0.6697,-0.6738,-0.6738,-0.6738,-0.6738,-0.6741,-0.6877,-0.701,-0.7095,-0.7095,-0.6918,-0.6741,-0.6877,-0.6745,-0.6612,-0.6748,-0.6526,-0.6257,-0.6257,-0.6124,-0.5861,-0.5235,-0.5188,-0.4919,-0.376,-0.3626,-0.3535,-0.3001,-0.2464,-0.2106,-0.2106,-0.1256,-0.0628,-0.0628,-0.0269,0.0,0.0,0.0,0.0,0.0,0.0,0.0,0.0,0.0,0.0,0.0,0.0,0.0,0.0,0.0,0.0,0.0,0.0,0.0,0.0,0.0,0.0,0.2203,0.2209,0.2137,0.1767,0.1201,0.0616,0.0117,0.0,0.0,0.0,0.0,-0.003,-0.0155,-0.0784,-0.1367,-0.1481,-0.2299,-0.3297,-0.4347,-0.5198,-0.5723,-0.5866,-0.5986,-0.61,-0.6251,-0.6333,-0.6363,-0.6363,-0.6376,-0.6387,-0.6387,-0.6387,-0.6387,-0.6387,-0.6437,-0.6437,-0.6437,-0.6437,-0.6437,-0.6487,-0.6742,-0.6842,-0.6892,-0.7141,-0.7238,-0.7282,-0.7241,-0.7179,-0.716,-0.6889,-0.6776,-0.6761,-0.6805,-0.6836,-0.6881,-0.7054,-0.7095,-0.7095,-0.7095,-0.7095,-0.7095,-0.7095,-0.7095,-0.7095,-0.7095,-0.7095,-0.7095,-0.7095,-0.6966,-0.6836,-0.6836,-0.6656,-0.6476,-0.6476,-0.6387,-0.6299,-0.6127,-0.6213,-0.5944,-0.4746,-0.4699,-0.4518,-0.3492,-0.3226,-0.3135,-0.3135,-0.2285,-0.1614,-0.1614,-0.0808,-0.0225,-0.0225,-0.009,0.0,0.0,0.0,0.0,0.0,0.0,0.0,0.0,0.0,0.0,0.0,0.0,0.0,0.0,0.0,0.0,0.0,0.0,0.0,0.1795,0.1358,0.0982,0.1016,0.0577,0.0117,0.0028,0.0,0.0,0.0,0.0,-0.0181,-0.0818,-0.1193,-0.1591,-0.2221,-0.3283,-0.434,-0.52,-0.5555,-0.5696,-0.5712,-0.586,-0.5937,-0.5958,-0.6162,-0.6293,-0.6293,-0.6382,-0.6387,-0.6387,-0.6387,-0.6387,-0.6387,-0.6639,-0.6742,-0.6742,-0.6742,-0.6742,-0.6742,-0.6989,-0.7138,-0.7138,-0.7391,-0.7543,-0.7537,-0.7635,-0.7621,-0.7408,-0.7356,-0.7145,-0.695,-0.7025,-0.7054,-0.7051,-0.7095,-0.7095,-0.7095,-0.7095,-0.7095,-0.7095,-0.7095,-0.7095,-0.7095,-0.7095,-0.7095,-0.7095,-0.7095,-0.7098,-0.7054,-0.7054,-0.6877,-0.6748,-0.6748,-0.6438,-0.6127,-0.6127,-0.5952,-0.5733,-0.551,-0.5508,-0.5508,-0.5285,-0.4612,-0.4076,-0.4076,-0.3269,-0.2689,-0.2689,-0.1793,-0.1166,-0.1166,-0.0494,0.0,0.0,0.0,0.0,0.0,0.0,0.0,0.0,0.0,0.0,0.0,0.0,0.0,0.0,0.0,0.0,0.0,0.0,0.0,0.1234,0.0716,0.0248,-0.0085,-0.0388,-0.0678,-0.1062,-0.1134,-0.116,-0.1228,-0.1251,-0.1417,-0.1936,-0.2405,-0.304,-0.3955,-0.4603,-0.5122,-0.5545,-0.5653,-0.5688,-0.5688,-0.5833,-0.5904,-0.5904,-0.6064,-0.617,-0.617,-0.6217,-0.6246,-0.6246,-0.6453,-0.6538,-0.6538,-0.6854,-0.6992,-0.6992,-0.7144,-0.7108,-0.6891,-0.7183,-0.7328,-0.7328,-0.7573,-0.7766,-0.7839,-0.7868,-0.7838,-0.7769,-0.757,-0.7449,-0.7287,-0.7145,-0.7095,-0.7095,-0.7095,-0.7095,-0.7095,-0.7095,-0.7095,-0.7095,-0.7095,-0.7095,-0.7095,-0.7095,-0.7095,-0.7095,-0.7095,-0.7095,-0.7098,-0.6966,-0.6881,-0.6748,-0.6612,-0.6435,-0.6213,-0.6127,-0.5994,-0.5863,-0.5733,-0.5688,-0.5688,-0.5688,-0.5329,-0.506,-0.506,-0.4253,-0.3673,-0.3673,-0.2822,-0.2196,-0.2196,-0.1838,-0.1569,-0.1569,-0.1569,-0.1122,-0.0045,0.0,0.0,0.0,0.0,0.0,0.0,0.0,0.0,0.0,0.0,0.0,0.0,0.0,0.0,0.0674,0.0287,-0.019,-0.0904,-0.098,-0.1076,-0.2018,-0.2072,-0.2023,-0.2405,-0.2403,-0.2494,-0.2978,-0.3713,-0.4553,-0.5368,-0.5575,-0.5668,-0.5675,-0.5688,-0.5688,-0.5688,-0.5809,-0.5863,-0.5863,-0.5972,-0.6043,-0.6043,-0.6114,-0.6178,-0.6178,-0.6505,-0.6705,-0.6705,-0.7043,-0.7193,-0.7193,-0.7445,-0.741,-0.7094,-0.7382,-0.7459,-0.7475,-0.7667,-0.7824,-0.7887,-0.7887,-0.7887,-0.7867,-0.7655,-0.7546,-0.7519,-0.7203,-0.7095,-0.7095,-0.7095,-0.7095,-0.7095,-0.7095,-0.7095,-0.7095,-0.7095,-0.7095,-0.7095,-0.7095,-0.7095,-0.7095,-0.7054,-0.701,-0.701,-0.684,-0.6795,-0.6748,-0.6476,-0.6387,-0.6302,-0.6127,-0.6038,-0.5952,-0.5733,-0.5688,-0.5688,-0.5688,-0.5688,-0.5688,-0.5688,-0.5104,-0.4612,-0.4612,-0.3807,-0.3226,-0.3226,-0.3045,-0.2911,-0.2911,-0.2911,-0.2285,-0.0763,-0.0449,-0.0449,-0.0673,-0.0225,-0.009,-0.0314,-0.009,0.0,0.0,0.0,0.0,0.0,0.0,0.0,0.018,0.0027,-0.0164,-0.093,-0.0573,-0.0511,-0.2191,-0.1948,-0.167,-0.28,-0.2748,-0.2775,-0.3674,-0.466,-0.5423,-0.5467,-0.5818,-0.5985,-0.573,-0.5688,-0.5688,-0.5688,-0.5696,-0.5702,-0.5702,-0.585,-0.5915,-0.5915,-0.6205,-0.6361,-0.6361,-0.6658,-0.6809,-0.6809,-0.7051,-0.7196,-0.7196,-0.7486,-0.7502,-0.7382,-0.7621,-0.7695,-0.7567,-0.7614,-0.7621,-0.7631,-0.7631,-0.7631,-0.7617,-0.7455,-0.7433,-0.737,-0.7204,-0.7095,-0.7095,-0.7095,-0.7095,-0.7095,-0.7095,-0.7095,-0.7095,-0.7095,-0.7095,-0.7095,-0.7095,-0.7095,-0.7051,-0.6881,-0.6836,-0.6836,-0.6795,-0.6795,-0.6748,-0.6476,-0.6257,-0.6127,-0.6083,-0.5908,-0.5733,-0.5688,-0.5688,-0.5688,-0.5688,-0.5688,-0.5688,-0.5688,-0.5644,-0.5599,-0.5599,-0.4792,-0.421,-0.421,-0.3403,-0.2911,-0.2911,-0.2911,-0.2822,-0.2688,-0.1793,-0.1704,-0.2644,-0.0942,-0.0404,-0.1301,-0.0449,0.0,0.0,0.0,0.0,0.0,0.0,0.0,0.0122,-0.0386,-0.0867,-0.1056,-0.1293,-0.1813,-0.2998,-0.3021,-0.3093,-0.4123,-0.4361,-0.4456,-0.4832,-0.5413,-0.5843,-0.5763,-0.5886,-0.5947,-0.5941,-0.5819,-0.5688,-0.5688,-0.5688,-0.5688,-0.5688,-0.5905,-0.6017,-0.6017,-0.6238,-0.64,-0.64,-0.6716,-0.6904,-0.6904,-0.7266,-0.7453,-0.7453,-0.755,-0.7533,-0.7399,-0.7493,-0.7509,-0.7458,-0.7458,-0.7509,-0.76,-0.76,-0.76,-0.7587,-0.7434,-0.7415,-0.7402,-0.72,-0.7095,-0.7095,-0.7095,-0.7095,-0.7095,-0.7095,-0.7095,-0.7095,-0.7095,-0.7095,-0.7095,-0.7095,-0.7095,-0.7098,-0.701,-0.6966,-0.6877,-0.6482,-0.6349,-0.6305,-0.6038,-0.5908,-0.5863,-0.5863,-0.5777,-0.5688,-0.5688,-0.5688,-0.5688,-0.5688,-0.5688,-0.5688,-0.5688,-0.5688,-0.5688,-0.5688,-0.5374,-0.5151,-0.5151,-0.4837,-0.4659,-0.4659,-0.4659,-0.4659,-0.4659,-0.3181,-0.251,-0.2867,-0.2196,-0.1973,-0.2331,-0.139,-0.0853,-0.0853,-0.0269,0.0,0.0,0.0,0.0,-0.0264,-0.0787,-0.1295,-0.1501,-0.1845,-0.2468,-0.3689,-0.3863,-0.4091,-0.5239,-0.5497,-0.5582,-0.5687,-0.59,-0.6097,-0.6028,-0.6097,-0.62,-0.6201,-0.6038,-0.5908,-0.5908,-0.5908,-0.5908,-0.5908,-0.6083,-0.6213,-0.6213,-0.639,-0.665,-0.6956,-0.7282,-0.7611,-0.7923,-0.8166,-0.8318,-0.8318,-0.8046,-0.7991,-0.8188,-0.7878,-0.7614,-0.7299,-0.7299,-0.7356,-0.7455,-0.7455,-0.7455,-0.7444,-0.7343,-0.7299,-0.7288,-0.7136,-0.7095,-0.7095,-0.7095,-0.7095,-0.7095,-0.7095,-0.7095,-0.7095,-0.7095,-0.7095,-0.7095,-0.7095,-0.7095,-0.7095,-0.701,-0.701,-0.6877,-0.6346,-0.6213,-0.6127,-0.5863,-0.5777,-0.5688,-0.5688,-0.5688,-0.5688,-0.5688,-0.5688,-0.5688,-0.5688,-0.5688,-0.5688,-0.5688,-0.5688,-0.5688,-0.5688,-0.5688,-0.5688,-0.5688,-0.5688,-0.5688,-0.5688,-0.5688,-0.5688,-0.5688,-0.4478,-0.3762,-0.3762,-0.3226,-0.3045,-0.3315,-0.2374,-0.1883,-0.1883,-0.1211,-0.0898,-0.0898,-0.0584,-0.0449,-0.1097,-0.1112,-0.1321,-0.2251,-0.2059,-0.2151,-0.4072,-0.4196,-0.4364,-0.5978,-0.5912,-0.572,-0.6027,-0.6121,-0.6164,-0.6264,-0.6571,-0.67,-0.6432,-0.6384,-0.6384,-0.6384,-0.6384,-0.6384,-0.6384,-0.6384,-0.6428,-0.6432,-0.6659,-0.7228,-0.8181,-0.8408,-0.893,-0.9879,-0.9879,-0.9879,-0.9879,-0.8973,-0.8973,-0.9879,-0.8973,-0.8017,-0.7139,-0.7139,-0.7139,-0.7095,-0.7095,-0.7095,-0.7095,-0.7095,-0.7095,-0.7095,-0.7095,-0.7095,-0.7095,-0.7095,-0.7095,-0.7095,-0.7095,-0.7095,-0.7095,-0.7095,-0.7095,-0.7095,-0.7095,-0.7095,-0.7051,-0.6836,-0.6795,-0.6748,-0.6476,-0.6384,-0.6343,-0.6169,-0.5908,-0.5688,-0.5688,-0.5688,-0.5688,-0.5688,-0.5688,-0.5688,-0.5688,-0.5688,-0.5688,-0.5688,-0.5688,-0.5688,-0.5688,-0.5688,-0.5688,-0.5688,-0.5688,-0.5688,-0.5688,-0.5688,-0.5688,-0.5688,-0.5688,-0.5688,-0.5688,-0.3896,-0.336,-0.43,-0.3403,-0.2911,-0.2911,-0.2911,-0.2911,-0.2867,-0.1883,-0.1436,-0.0315,-0.1191,-0.206,-0.1902,-0.2979,-0.418,-0.4568,-0.4426,-0.4614,-0.5949,-0.6136,-0.607,-0.6287,-0.6408,-0.654,-0.6514,-0.6615,-0.6676,-0.6688,-0.652,-0.6384,-0.6384,-0.6384,-0.6384,-0.6384,-0.6567,-0.6962,-0.761,-0.7881,-0.8408,-0.9357,-0.9444,-0.9618,-0.9879,-0.9879,-0.9879,-0.9879,-0.9618,-0.9618,-0.9879,-0.9618,-0.9362,-0.9052,-0.9052,-0.8707,-0.8105,-0.8105,-0.7709,-0.7095,-0.7095,-0.7095,-0.7095,-0.7095,-0.7095,-0.7095,-0.7095,-0.7095,-0.7095,-0.7095,-0.7095,-0.7095,-0.7095,-0.7095,-0.7095,-0.7095,-0.7095,-0.7095,-0.701,-0.701,-0.701,-0.6918,-0.6789,-0.6571,-0.6171,-0.6041,-0.5952,-0.5733,-0.5688,-0.5777,-0.5952,-0.5997,-0.5997,-0.5997,-0.5997,-0.5908,-0.5733,-0.5688,-0.5777,-0.5952,-0.5822,-0.5819,-0.6169,-0.6083,-0.6038,-0.6169,-0.6213,-0.6213,-0.6213,-0.6213,-0.6038,-0.5733,-0.5151,-0.5015,-0.5285,-0.4344,-0.3896,-0.3896,-0.3357,-0.3132,-0.3087,-0.2819,-0.2839,-0.1338,-0.2172,-0.296,-0.2972,-0.3918,-0.4904,-0.5147,-0.5164,-0.5378,-0.6148,-0.6192,-0.6191,-0.6527,-0.6569,-0.6641,-0.6757,-0.679,-0.6823,-0.6912,-0.6786,-0.6697,-0.6697,-0.7003,-0.7092,-0.6694,-0.7485,-0.8101,-0.8317,-0.8798,-0.9453,-1.0404,-1.0448,-1.0621,-1.1009,-1.1004,-1.1004,-1.1004,-1.0621,-1.0621,-1.1004,-1.0621,-1.0664,-1.1009,-1.0226,-0.9579,-0.9061,-0.9061,-0.8536,-0.7665,-0.7665,-0.7448,-0.7095,-0.7095,-0.7095,-0.7095,-0.7095,-0.7095,-0.7095,-0.7095,-0.7095,-0.7095,-0.7095,-0.7095,-0.7095,-0.7095,-0.7095,-0.7095,-0.7095,-0.7095,-0.7095,-0.7095,-0.701,-0.6836,-0.6482,-0.6305,-0.6169,-0.5994,-0.5994,-0.6038,-0.6169,-0.6213,-0.6213,-0.6213,-0.6213,-0.6169,-0.5994,-0.5994,-0.6038,-0.6213,-0.6083,-0.6083,-0.6387,-0.6349,-0.6382,-0.6514,-0.6563,-0.6593,-0.6593,-0.6542,-0.6379,-0.6116,-0.6022,-0.5994,-0.5994,-0.5411,-0.5142,-0.5142,-0.4692,-0.4465,-0.4467,-0.4144,-0.4142,-0.3165,-0.3501,-0.383,-0.4801,-0.4837,-0.489,-0.5736,-0.6138,-0.634,-0.6444,-0.6205,-0.6162,-0.6788,-0.6632,-0.6593,-0.7031,-0.7088,-0.7095,-0.7095,-0.7095,-0.7139,-0.7228,-0.7973,-0.8193,-0.7445,-0.8882,-0.9575,-0.8803,-0.9536,-1.0448,-1.1365,-1.1408,-1.1843,-1.2662,-1.2705,-1.2705,-1.2705,-1.1843,-1.1843,-1.2705,-1.1843,-1.1886,-1.2656,-1.0918,-1.0096,-1.0009,-0.9923,-0.9405,-0.8627,-0.8627,-0.8145,-0.7356,-0.7356,-0.7356,-0.7356,-0.7272,-0.7228,-0.7228,-0.7228,-0.7183,-0.7095,-0.7183,-0.7183,-0.7095,-0.7095,-0.7139,-0.7228,-0.7228,-0.7272,-0.7356,-0.7356,-0.7356,-0.7316,-0.7143,-0.6741,-0.6432,-0.6384,-0.6384,-0.6384,-0.6432,-0.6432,-0.6432,-0.6432,-0.6432,-0.6432,-0.6384,-0.6384,-0.6428,-0.6432,-0.6432,-0.6435,-0.6491,-0.6653,-0.6734,-0.6792,-0.6914,-0.6985,-0.6985,-0.6867,-0.6795,-0.6795,-0.6556,-0.6384,-0.6384,-0.6384,-0.6384,-0.6384,-0.6432,-0.6438,-0.6453,-0.5705,-0.5399,-0.1724,-0.2665,-0.3764,-0.4461,-0.5261,-0.5949,-0.616,-0.6261,-0.6302,-0.6288,-0.6331,-0.6451,-0.6709,-0.6778,-0.6813,-0.692,-0.7024,-0.7095,-0.7095,-0.7095,-0.736,-0.8105,-0.8368,-0.8711,-0.9231,-0.9662,-1.0101,-1.0674,-1.089,-1.1408,-1.2357,-1.2406,-1.2491,-1.2705,-1.2705,-1.2705,-1.2705,-1.2491,-1.2491,-1.2705,-1.2491,-1.2491,-1.2705,-1.2266,-1.1709,-1.0971,-1.0226,-0.9792,-0.9579,-0.9579,-0.9488,-0.9314,-0.9314,-0.9314,-0.9231,-0.8452,-0.8193,-0.8193,-0.8193,-0.7709,-0.7228,-0.7973,-0.7709,-0.7095,-0.7095,-0.7621,-0.8193,-0.8193,-0.8711,-0.9314,-0.9314,-0.9314,-0.927,-0.9226,-0.7925,-0.6656,-0.6432,-0.6384,-0.6476,-0.6659,-0.6704,-0.6704,-0.6704,-0.6704,-0.6656,-0.6432,-0.6384,-0.6476,-0.6704,-0.652,-0.6605,-0.7125,-0.7034,-0.7056,-0.7399,-0.7439,-0.7456,-0.7456,-0.7429,-0.7409,-0.7409,-0.6744,-0.6384,-0.6384,-0.6384,-0.6384,-0.6384,-0.6612,-0.6761,-0.6872,-0.6673,-0.6842,-0.2252,-0.3296,-0.436,-0.4968,-0.561,-0.6115,-0.6265,-0.63,-0.6281,-0.6241,-0.6333,-0.6457,-0.6563,-0.6658,-0.6732,-0.6807,-0.7279,-0.7509,-0.7081,-0.7833,-0.8448,-0.85,-0.9283,-0.9845,-0.9879,-1.0702,-1.1268,-1.1284,-1.1714,-1.2186,-1.2662,-1.2705,-1.2705,-1.2705,-1.2705,-1.2705,-1.2705,-1.2705,-1.2705,-1.2705,-1.2705,-1.2705,-1.2705,-1.2705,-1.2448,-1.1923,-1.1445,-1.1009,-1.0577,-1.0577,-1.0318,-0.9879,-0.9879,-0.9879,-0.9836,-0.9362,-0.9192,-0.9192,-0.9192,-0.8842,-0.8532,-0.9013,-0.8838,-0.8444,-0.8444,-0.8794,-0.9192,-0.9192,-0.9536,-0.9879,-0.9879,-0.9879,-0.9879,-0.9879,-0.9056,-0.8141,-0.7529,-0.7397,-0.7312,-0.701,-0.6922,-0.6922,-0.6922,-0.6922,-0.6877,-0.6741,-0.6741,-0.6786,-0.6922,-0.683,-0.6895,-0.7341,-0.7353,-0.7449,-0.7692,-0.777,-0.7811,-0.7811,-0.7743,-0.7699,-0.7699,-0.725,-0.6995,-0.6995,-0.6927,-0.6889,-0.6889,-0.6913,-0.7045,-0.7194,-0.7263,-0.7459,-0.3128,-0.414,-0.5059,-0.5661,-0.582,-0.5915,-0.6235,-0.63,-0.6338,-0.6493,-0.6416,-0.6334,-0.6453,-0.6614,-0.6753,-0.6842,-0.7738,-0.8185,-0.7392,-0.8696,-0.9518,-0.8923,-1.0249,-1.1,-1.0388,-1.1766,-1.2357,-1.158,-1.2272,-1.2705,-1.2705,-1.2705,-1.2705,-1.2705,-1.2705,-1.2705,-1.2705,-1.2705,-1.2705,-1.2705,-1.2705,-1.2705,-1.2705,-1.2705,-1.2705,-1.2705,-1.2705,-1.2272,-1.1542,-1.1542,-1.1101,-1.0399,-1.0399,-1.0399,-1.0356,-1.0183,-1.0139,-1.0139,-1.0139,-1.0053,-0.9923,-1.0096,-1.0009,-0.9879,-0.9879,-1.0009,-1.0139,-1.0139,-1.0269,-1.0399,-1.0399,-1.0399,-1.0399,-1.0399,-1.0399,-1.0096,-0.8973,-0.8759,-0.8496,-0.7753,-0.7445,-0.7272,-0.7139,-0.7095,-0.7095,-0.7095,-0.7095,-0.7095,-0.7095,-0.7125,-0.7223,-0.7422,-0.7601,-0.7732,-0.7845,-0.7917,-0.7988,-0.7988,-0.7919,-0.7848,-0.7848,-0.774,-0.7675,-0.7675,-0.7502,-0.7443,-0.7415,-0.7244,-0.7258,-0.746,-0.7539,-0.7689,-0.2296,-0.3693,-0.5184,-0.5684,-0.5901,-0.6047,-0.6259,-0.63,-0.649,-0.718,-0.6795,-0.6306,-0.6323,-0.6974,-0.7545,-0.7569,-0.8369,-0.8941,-0.8823,-0.9046,-0.9476,-1.0167,-1.0642,-1.123,-1.1897,-1.2397,-1.2662,-1.2528,-1.2619,-1.2705,-1.2705,-1.2705,-1.2705,-1.2705,-1.2705,-1.2705,-1.2705,-1.2705,-1.2705,-1.2705,-1.2705,-1.2705,-1.2705,-1.2705,-1.2705,-1.2705,-1.2705,-1.2619,-1.2528,-1.2528,-1.2443,-1.2308,-1.2308,-1.2308,-1.2223,-1.1408,-1.1106,-1.1106,-1.1106,-1.0577,-1.0009,-1.0842,-1.0577,-0.9879,-0.9879,-1.0448,-1.1106,-1.1106,-1.1709,-1.2308,-1.2308,-1.2308,-1.2308,-1.2308,-1.2308,-1.1832,-1.0096,-0.9705,-0.9662,-0.9531,-0.8886,-0.8061,-0.7228,-0.7095,-0.7095,-0.7095,-0.7095,-0.7095,-0.7095,-0.7247,-0.7432,-0.7631,-0.7712,-0.7858,-0.7948,-0.7978,-0.7988,-0.7988,-0.7971,-0.7961,-0.7961,-0.7941,-0.7931,-0.7931,-0.7709,-0.7502,-0.7415,-0.7395,-0.7417,-0.757,-0.759,-0.7746,-0.3321,-0.4228,-0.5033,-0.5647,-0.585,-0.5966,-0.6245,-0.6644,-0.7065,-0.7446,-0.7561,-0.7633,-0.7633,-0.7966,-0.825,-0.825,-0.9124,-0.9577,-0.9054,-0.9963,-1.0616,-1.0519,-1.1074,-1.1601,-1.2054,-1.233,-1.2487,-1.2487,-1.262,-1.2705,-1.2705,-1.2705,-1.2705,-1.2705,-1.2705,-1.2705,-1.2705,-1.2705,-1.2705,-1.2705,-1.2705,-1.2705,-1.2705,-1.2705,-1.2705,-1.2705,-1.2705,-1.2705,-1.2705,-1.2705,-1.2705,-1.2705,-1.2705,-1.2705,-1.2662,-1.2229,-1.21,-1.21,-1.21,-1.1794,-1.1531,-1.1966,-1.1794,-1.1488,-1.1488,-1.1752,-1.21,-1.21,-1.2357,-1.2705,-1.2705,-1.2705,-1.2705,-1.2705,-1.2705,-1.2539,-1.1899,-1.1328,-1.0799,-1.0433,-0.956,-0.8779,-0.8481,-0.7798,-0.7227,-0.7112,-0.7095,-0.7216,-0.7553,-0.7675,-0.7762,-0.785,-0.7877,-0.7917,-0.7985,-0.7988,-0.7988,-0.7988,-0.7988,-0.7988,-0.7988,-0.7988,-0.7988,-0.7988,-0.7828,-0.7645,-0.7499,-0.7499,-0.7536,-0.76,-0.7682,-0.7834,-0.4149,-0.455,-0.4788,-0.5739,-0.5997,-0.6183,-0.6693,-0.7333,-0.7863,-0.8055,-0.8589,-0.9079,-0.9263,-0.9155,-0.9003,-0.9003,-0.9827,-1.0252,-0.9539,-1.0757,-1.1433,-1.0745,-1.1328,-1.1784,-1.1784,-1.2059,-1.2216,-1.2216,-1.2397,-1.2506,-1.2506,-1.2566,-1.2608,-1.2608,-1.2668,-1.2705,-1.2705,-1.2705,-1.2705,-1.2705,-1.2705,-1.2705,-1.2705,-1.2705,-1.2705,-1.2705,-1.2705,-1.2705,-1.2705,-1.2705,-1.2705,-1.2705,-1.2705,-1.2705,-1.2705,-1.2705,-1.2705,-1.2705,-1.2705,-1.2705,-1.2705,-1.2705,-1.2705,-1.2705,-1.2705,-1.2705,-1.2705,-1.2705,-1.2705,-1.2705,-1.2705,-1.2705,-1.2705,-1.2705,-1.2759,-1.2886,-1.3113,-1.2628,-1.1952,-1.1212,-1.0463,-0.9822,-0.9553,-0.8303,-0.7267,-0.7119,-0.7227,-0.7486,-0.7931,-0.7988,-0.7988,-0.7988,-0.7988,-0.7988,-0.7988,-0.7988,-0.7988,-0.7988,-0.7988,-0.7988,-0.7988,-0.7988,-0.7988,-0.7988,-0.7877,-0.7797,-0.7651,-0.7651,-0.7651,-0.7655,-0.7763,-0.7892,-0.3859,-0.4191,-0.4556,-0.6014,-0.6562,-0.6994,-0.797,-0.844,-0.8856,-0.9614,-0.9803,-1.0067,-1.085,-1.0363,-0.9846,-0.9846,-1.0524,-1.1055,-1.098,-1.1067,-1.1116,-1.1073,-1.1351,-1.1513,-1.1513,-1.1748,-1.1904,-1.1904,-1.1916,-1.1922,-1.1922,-1.2198,-1.233,-1.233,-1.2572,-1.2705,-1.2705,-1.2705,-1.2705,-1.2705,-1.2705,-1.2705,-1.2705,-1.2705,-1.2705,-1.2705,-1.2705,-1.2705,-1.2705,-1.2705,-1.2705,-1.2705,-1.2705,-1.2705,-1.2705,-1.2705,-1.2705,-1.2705,-1.2705,-1.2705,-1.2705,-1.2705,-1.2705,-1.2705,-1.2705,-1.2705,-1.2705,-1.2705,-1.2705,-1.2705,-1.2705,-1.2705,-1.2705,-1.2705,-1.291,-1.3065,-1.3083,-1.3276,-1.3126,-1.2204,-1.1976,-1.142,-0.9781,-0.8173,-0.7109,-0.7098,-0.758,-0.7955,-0.7985,-0.7988,-0.7988,-0.7988,-0.7988,-0.7988,-0.7988,-0.7988,-0.7988,-0.7988,-0.7988,-0.7988,-0.7988,-0.7988,-0.7988,-0.7988,-0.7982,-0.7904,-0.7801,-0.7801,-0.7801,-0.7801,-0.7807,-0.7892,-0.3906,-0.412,-0.4409,-0.5236,-0.5995,-0.6663,-0.7116,-0.8106,-0.9021,-0.931,-0.9782,-1.0254,-1.0539,-1.0626,-1.0663,-1.0663,-1.0925,-1.1111,-1.1111,-1.1111,-1.1111,-1.1111,-1.1164,-1.1224,-1.1224,-1.1471,-1.1633,-1.1633,-1.179,-1.188,-1.188,-1.2011,-1.2024,-1.2024,-1.2155,-1.2282,-1.2451,-1.262,-1.2705,-1.2705,-1.2705,-1.2705,-1.2705,-1.2705,-1.2705,-1.2705,-1.2705,-1.2705,-1.2705,-1.2705,-1.2705,-1.2705,-1.2705,-1.2705,-1.2705,-1.2705,-1.2705,-1.2705,-1.2705,-1.2705,-1.2705,-1.2705,-1.2705,-1.2705,-1.2705,-1.2705,-1.2705,-1.2705,-1.2705,-1.2705,-1.2705,-1.2705,-1.2705,-1.2705,-1.2921,-1.3191,-1.335,-1.358,-1.3716,-1.3549,-1.2959,-1.2505,-1.2592,-1.0976,-1.0157,-1.1517,-0.9582,-0.8333,-0.9221,-0.8581,-0.7988,-0.7988,-0.7988,-0.7988,-0.7988,-0.7988,-0.7988,-0.7988,-0.7988,-0.7988,-0.7988,-0.7988,-0.7988,-0.7988,-0.7988,-0.7914,-0.7811,-0.7909,-0.7909,-0.7814,-0.7913,-0.7938,-0.3877,-0.3994,-0.4238,-0.4973,-0.5716,-0.6417,-0.7189,-0.8275,-0.9173,-0.9463,-0.9939,-1.0292,-1.0292,-1.0575,-1.0876,-1.0966,-1.0979,-1.1009,-1.1099,-1.1111,-1.1111,-1.1111,-1.1111,-1.1111,-1.1111,-1.1242,-1.1351,-1.1351,-1.1513,-1.1648,-1.1648,-1.17,-1.179,-1.192,-1.2005,-1.2137,-1.2312,-1.2572,-1.2705,-1.2705,-1.2705,-1.2705,-1.2705,-1.2705,-1.2705,-1.2705,-1.2705,-1.2705,-1.2705,-1.2705,-1.2705,-1.2705,-1.2705,-1.2705,-1.2705,-1.2705,-1.2705,-1.2705,-1.2705,-1.2705,-1.2705,-1.2705,-1.2705,-1.2705,-1.2705,-1.2705,-1.2705,-1.2705,-1.2705,-1.2705,-1.2705,-1.2705,-1.2729,-1.2825,-1.2987,-1.3221,-1.3471,-1.3719,-1.3984,-1.4244,-1.3709,-1.3463,-1.4196,-1.3173,-1.2732,-1.41,-1.1512,-0.9756,-1.069,-0.9805,-0.9069,-0.9069,-0.8775,-0.8676,-0.9019,-0.8432,-0.8137,-0.8531,-0.8187,-0.7988,-0.7988,-0.7988,-0.7988,-0.7988,-0.7988,-0.7941,-0.7889,-0.7941,-0.7938,-0.7889,-0.7941,-0.7988,0.0,0.0,0.0,-0.5345,-0.576,-0.6404,-0.8358,-0.8941,-0.9293,-1.0064,-1.0256,-1.0262,-1.0268,-1.0274,-1.0358,-1.0617,-1.0677,-1.0773,-1.1075,-1.1111,-1.1111,-1.1111,-1.1111,-1.1111,-1.1111,-1.1111,-1.1111,-1.1111,-1.1111,-1.1111,-1.1111,-1.1333,-1.1597,-1.189,-1.2155,-1.2288,-1.2288,-1.256,-1.2693,-1.2693,-1.2699,-1.2705,-1.2705,-1.2705,-1.2705,-1.2705,-1.2705,-1.2705,-1.2705,-1.2705,-1.2705,-1.2705,-1.2705,-1.2705,-1.2705,-1.2705,-1.2705,-1.2705,-1.2705,-1.2705,-1.2705,-1.2705,-1.2705,-1.2705,-1.2705,-1.2705,-1.2705,-1.2705,-1.2705,-1.2705,-1.2705,-1.2705,-1.2771,-1.3049,-1.3109,-1.3137,-1.3447,-1.3707,-1.396,-1.4232,-1.4292,-1.4298,-1.4298,-1.4298,-1.4298,-1.4298,-1.3082,-1.2209,-1.2209,-1.1614,-1.1219,-1.1219,-1.0293,-1.0047,-1.1121,-0.9316,-0.8531,-0.9558,-0.8627,-0.8038,-0.7988,-0.7988,-0.7988,-0.7988,-0.7988,-0.7988,-0.7988,-0.7988,-0.7988,-0.7988,-0.7988,-0.7988,-0.3651,0.0,0.0,0.0,0.0,0.0,-0.6472,-0.7431,-0.8362,-0.8764,-0.9166,-0.9492,-0.9697,-0.9733,-0.9817,-1.0075,-1.0436,-1.0773,-1.1075,-1.1111,-1.1111,-1.1111,-1.1111,-1.1111,-1.1111,-1.1111,-1.1111,-1.1111,-1.1111,-1.1111,-1.1111,-1.1184,-1.1224,-1.1335,-1.1567,-1.1706,-1.1706,-1.2198,-1.2421,-1.2421,-1.2614,-1.2705,-1.2705,-1.2705,-1.2705,-1.2705,-1.2705,-1.2705,-1.2705,-1.2705,-1.2705,-1.2705,-1.2705,-1.2705,-1.2705,-1.2705,-1.2705,-1.2705,-1.2705,-1.2705,-1.2705,-1.2705,-1.2705,-1.2705,-1.2705,-1.2705,-1.2705,-1.2705,-1.2705,-1.2705,-1.2705,-1.2705,-1.2723,-1.2801,-1.2819,-1.2892,-1.3131,-1.329,-1.3471,-1.3924,-1.4165,-1.4298,-1.4298,-1.4298,-1.4298,-1.4298,-1.3082,-1.2306,-1.2543,-1.176,-1.1219,-1.1219,-1.093,-1.0877,-1.117,-1.0685,-1.0096,-0.9608,-0.9312,-0.8825,-0.8038,-0.7988,-0.7988,-0.7988,-0.7988,-0.7988,-0.7988,-0.7988,-0.7988,-0.7988,-0.7988,-0.7988,-0.3692,-0.3792,-0.3968,-0.4158,0.0,0.0,-0.6009,-0.6784,-0.7608,-0.8463,-0.8874,-0.9185,-0.9462,-0.9516,-0.96,-0.9865,-1.016,-1.0491,-1.0894,-1.1045,-1.1111,-1.1111,-1.1111,-1.1111,-1.1111,-1.1111,-1.1111,-1.1111,-1.1111,-1.1111,-1.1111,-1.1111,-1.1111,-1.1111,-1.1345,-1.1495,-1.1495,-1.1904,-1.2149,-1.2155,-1.23,-1.2379,-1.2379,-1.2493,-1.2542,-1.2548,-1.2656,-1.2705,-1.2705,-1.2705,-1.2705,-1.2705,-1.2705,-1.2705,-1.2705,-1.2705,-1.2705,-1.2705,-1.2705,-1.2705,-1.2705,-1.2705,-1.2705,-1.2705,-1.2705,-1.2705,-1.2705,-1.2705,-1.2705,-1.2705,-1.2705,-1.2705,-1.2705,-1.2705,-1.2705,-1.2747,-1.2916,-1.2952,-1.3139,-1.3779,-1.4002,-1.4123,-1.4274,-1.4298,-1.4298,-1.4298,-1.3619,-1.313,-1.3318,-1.2877,-1.249,-1.249,-1.2096,-1.1999,-1.2441,-1.1707,-1.1121,-1.0925,-1.0096,-0.9312,-0.8676,-0.8233,-0.7988,-0.7988,-0.7988,-0.7988,-0.7988,-0.7988,-0.7988,-0.7988,-0.7988,-0.7988,-0.3843,-0.3839,-0.3982,-0.4368,-0.4379,0.0,-0.6207,-0.6518,-0.6909,-0.8421,-0.8762,-0.8905,-0.9182,-0.9229,-0.9306,-0.9634,-0.9723,-0.9984,-1.0605,-1.0924,-1.1081,-1.1105,-1.1111,-1.1111,-1.1111,-1.1111,-1.1111,-1.1111,-1.1111,-1.1111,-1.1111,-1.1111,-1.1111,-1.1111,-1.1315,-1.1447,-1.1447,-1.1706,-1.1838,-1.1838,-1.1908,-1.188,-1.1926,-1.2161,-1.2288,-1.2324,-1.256,-1.2681,-1.2705,-1.2705,-1.2705,-1.2705,-1.2705,-1.2705,-1.2705,-1.2705,-1.2705,-1.2705,-1.2705,-1.2705,-1.2705,-1.2705,-1.2705,-1.2705,-1.2705,-1.2705,-1.2705,-1.2705,-1.2705,-1.2705,-1.2705,-1.2705,-1.2705,-1.2705,-1.2705,-1.2705,-1.2705,-1.2705,-1.2916,-1.3634,-1.3809,-1.3924,-1.4195,-1.4274,-1.4298,-1.4298,-1.4298,-1.4298,-1.4298,-1.4298,-1.4298,-1.4298,-1.3463,-1.327,-1.4202,-1.2587,-1.1853,-1.263,-1.0974,-0.9899,-0.9801,-0.8726,-0.8187,-0.8187,-0.8187,-0.8233,-0.8333,-0.8137,-0.7988,-0.7988,-0.7988,-0.7988,-0.4154,-0.4148,-0.4351,-0.4271,-0.4513,0.0,-0.4922,-0.5385,-0.5912,-0.6296,-0.675,-0.7163,-0.7451,-0.7491,-0.7658,-0.8196,-0.8665,-0.9342,-1.0545,-1.0767,-1.0876,-1.1087,-1.1111,-1.1111,-1.1111,-1.1111,-1.1111,-1.1111,-1.1111,-1.1111,-1.1111,-1.1111,-1.1111,-1.1111,-1.1166,-1.119,-1.119,-1.1429,-1.1567,-1.1573,-1.1784,-1.188,-1.1886,-1.1934,-1.2113,-1.2318,-1.2367,-1.2506,-1.2705,-1.2705,-1.2705,-1.2705,-1.2705,-1.2705,-1.2705,-1.2705,-1.2705,-1.2705,-1.2705,-1.2705,-1.2705,-1.2705,-1.2705,-1.2705,-1.2705,-1.2705,-1.2705,-1.2705,-1.2705,-1.2705,-1.2705,-1.2705,-1.2705,-1.2705,-1.2705,-1.2705,-1.2705,-1.2705,-1.2747,-1.291,-1.3616,-1.4129,-1.3912,-1.4111,-1.4298,-1.4298,-1.4298,-1.4298,-1.4298,-1.4298,-1.4298,-1.4298,-1.41,-1.4052,-1.4292,-1.3908,-1.3414,-1.2732,-1.2339,-1.1755,-1.0925,-0.9854,-0.9266,-0.9266,-0.9266,-0.9706,-1.0587,-0.8825,-0.7988,-0.7988,-0.7988,-0.7988,-0.4326,-0.4217,-0.4375,-0.4422,-0.4582,0.0,0.0,-0.5249,-0.5608,-0.6135,-0.6443,-0.6697,-0.7038,-0.704,-0.7121,-0.7481,-0.8094,-0.8775,-0.9502,-1.0107,-1.0587,-1.0888,-1.0918,-1.0918,-1.0918,-1.1033,-1.1111,-1.1111,-1.1111,-1.1111,-1.1111,-1.1111,-1.1111,-1.1111,-1.1111,-1.1111,-1.1111,-1.1212,-1.1285,-1.1285,-1.1455,-1.1516,-1.1522,-1.1621,-1.176,-1.1938,-1.2198,-1.2391,-1.2518,-1.265,-1.2705,-1.2705,-1.2705,-1.2705,-1.2705,-1.2705,-1.2705,-1.2705,-1.2705,-1.2705,-1.2705,-1.2705,-1.2705,-1.2705,-1.2705,-1.2705,-1.2705,-1.2705,-1.2705,-1.2705,-1.2705,-1.2705,-1.2705,-1.2705,-1.2705,-1.2705,-1.2705,-1.2705,-1.2705,-1.2705,-1.3357,-1.3936,-1.402,-1.4183,-1.4298,-1.4298,-1.4298,-1.4298,-1.4298,-1.4298,-1.4298,-1.4298,-1.4298,-1.4298,-1.4298,-1.4298,-1.4052,-1.3511,-1.3022,-1.2484,-1.195,-1.0925,-1.0391,-1.0391,-1.0391,-1.0681,-1.1219,-1.0096,-0.9312,-0.8825,-0.9361,-0.9312,-0.473,-0.4537,-0.4625,-0.4815,-0.4926,-0.5138,0.0,0.0,0.0,-0.6503,-0.6429,-0.6324,-0.6743,-0.6664,-0.6579,-0.6806,-0.742,-0.7943,-0.8165,-0.9058,-0.9903,-1.0497,-1.0575,-1.0629,-1.0677,-1.0864,-1.1003,-1.1105,-1.1015,-1.1003,-1.1105,-1.1111,-1.1111,-1.1111,-1.1111,-1.1111,-1.1111,-1.1111,-1.1111,-1.1111,-1.1111,-1.1111,-1.1117,-1.1309,-1.1441,-1.1513,-1.198,-1.2216,-1.233,-1.2542,-1.2656,-1.2705,-1.2705,-1.2705,-1.2705,-1.2705,-1.2705,-1.2705,-1.2705,-1.2705,-1.2705,-1.2705,-1.2705,-1.2705,-1.2705,-1.2705,-1.2705,-1.2705,-1.2705,-1.2705,-1.2705,-1.2705,-1.2705,-1.2705,-1.2705,-1.2705,-1.2705,-1.2705,-1.2705,-1.2705,-1.3115,-1.361,-1.4069,-1.4226,-1.4298,-1.4298,-1.4298,-1.4298,-1.4298,-1.4298,-1.4298,-1.4298,-1.4298,-1.4298,-1.4298,-1.4298,-1.4298,-1.4298,-1.3511,-1.3022,-1.3022,-1.2047,-1.1512,-1.1512,-1.1512,-1.1609,-1.1809,-1.1809,-1.117,-0.9948,-1.0779,-1.0734,-0.5727,-0.5693,-0.5896,-0.5564,-0.6164,-0.6692,-0.623,0.0,-0.5685,-0.617,0.0,-0.491,-0.5417,0.0,0.0,-0.5449,-0.5927,-0.6479,-0.7095,-0.7402,-0.8163,-0.9797,-1.0196,-1.043,-1.0695,-1.0503,-1.0575,-1.1075,-1.0647,-1.0587,-1.1087,-1.1111,-1.1111,-1.1111,-1.1111,-1.1111,-1.1111,-1.1111,-1.1111,-1.1111,-1.1111,-1.1111,-1.1111,-1.1141,-1.1298,-1.1495,-1.1555,-1.1844,-1.2318,-1.2343,-1.2493,-1.2705,-1.2705,-1.2705,-1.2705,-1.2705,-1.2705,-1.2705,-1.2705,-1.2705,-1.2705,-1.2705,-1.2705,-1.2705,-1.2705,-1.2705,-1.2705,-1.2705,-1.2705,-1.2705,-1.2705,-1.2705,-1.2705,-1.2705,-1.2705,-1.2705,-1.2705,-1.2705,-1.2705,-1.2705,-1.2975,-1.3306,-1.3568,-1.399,-1.4298,-1.4298,-1.4298,-1.4298,-1.4298,-1.4298,-1.4298,-1.4298,-1.4298,-1.4298,-1.4298,-1.4298,-1.4298,-1.4298,-1.4202,-1.41,-1.41,-1.3119,-1.2538,-1.2538,-1.2538,-1.3022,-1.3956,-1.3956,-1.2926,-1.1023,-1.1121,-1.1121,-0.6452,-0.6409,-0.661,-0.6363,-0.6565,-0.6714,-0.6393,-0.6114,-0.6016,-0.6272,0.0,0.0,0.0,0.0,0.0,0.0,-0.5674,-0.5919,-0.6153,-0.6703,-0.7448,-0.8445,-0.8608,-0.8937,-0.9702,-0.9959,-1.0226,-1.0593,-1.028,-1.0298,-1.0858,-1.0882,-1.0954,-1.1105,-1.1111,-1.1111,-1.1111,-1.1111,-1.1111,-1.1111,-1.1111,-1.1111,-1.1111,-1.1111,-1.1178,-1.1298,-1.1423,-1.1615,-1.1844,-1.2186,-1.2379,-1.2493,-1.2644,-1.2705,-1.2705,-1.2705,-1.2705,-1.2705,-1.2705,-1.2705,-1.2705,-1.2705,-1.2705,-1.2705,-1.2705,-1.2705,-1.2705,-1.2705,-1.2705,-1.2705,-1.2705,-1.2705,-1.2705,-1.2705,-1.2705,-1.2705,-1.2705,-1.2705,-1.2705,-1.2705,-1.2957,-1.3294,-1.3622,-1.4014,-1.4298,-1.4298,-1.4298,-1.4298,-1.4298,-1.4298,-1.4298,-1.4298,-1.4298,-1.4298,-1.4298,-1.4298,-1.4298,-1.4298,-1.4298,-1.4298,-1.4298,-1.3854,-1.3613,-1.3613,-1.3613,-1.3854,-1.4298,-1.4298,-1.3859,-1.298,-1.298,-1.2684,-0.7214,-0.7195,-0.736,-0.7096,-0.7125,-0.7117,-0.6859,-0.667,-0.6613,-0.6861,-0.6642,0.0,0.0,0.0,-0.5732,-0.5649,0.0,-0.5669,-0.5351,-0.5914,-0.6611,-0.7243,-0.74,-0.7785,-0.8673,-0.9136,-0.9587,-0.9985,-0.9813,-0.9979,-1.0647,-1.0683,-1.0803,-1.1099,-1.1111,-1.1111,-1.1111,-1.1111,-1.1111,-1.1111,-1.1111,-1.1111,-1.1111,-1.1111,-1.1111,-1.1123,-1.1329,-1.1423,-1.1519,-1.1904,-1.2186,-1.233,-1.2524,-1.2644,-1.2705,-1.2705,-1.2705,-1.2705,-1.2705,-1.2705,-1.2705,-1.2705,-1.2705,-1.2705,-1.2705,-1.2705,-1.2705,-1.2705,-1.2705,-1.2705,-1.2705,-1.2705,-1.2705,-1.2705,-1.2705,-1.2705,-1.2705,-1.2705,-1.2705,-1.2705,-1.2922,-1.3185,-1.3634,-1.3918,-1.4129,-1.4274,-1.4298,-1.4298,-1.4298,-1.4298,-1.4298,-1.4298,-1.4298,-1.4298,-1.4298,-1.4298,-1.4298,-1.4298,-1.4298,-1.4298,-1.4298,-1.4298,-1.4298,-1.4298,-1.4298,-1.4298,-1.4298,-1.4298,-1.4148,-1.3854,-1.4148,-1.3709,-0.8115,-0.8254,-0.8323,-0.7813,-0.8169,-0.8502,-0.7973,-0.7654,-0.7593,-0.8117,-0.7573,-0.7161,-0.7739,-0.7344,-0.6674,-0.5822,-0.5864,0.0,0.0,-0.4688,-0.5245,-0.6482,-0.7192,-0.7649,-0.7836,-0.804,-0.849,-0.9262,-0.9209,-0.9582,-1.0629,-1.0683,-1.0803,-1.1099,-1.1111,-1.1111,-1.1111,-1.1111,-1.1111,-1.1111,-1.1111,-1.1111,-1.1111,-1.1111,-1.1111,-1.1111,-1.1123,-1.1242,-1.1495,-1.1513,-1.1814,-1.2312,-1.2324,-1.2481,-1.2705,-1.2705,-1.2705,-1.2705,-1.2705,-1.2705,-1.2705,-1.2705,-1.2705,-1.2705,-1.2705,-1.2705,-1.2705,-1.2705,-1.2705,-1.2705,-1.2705,-1.2705,-1.2705,-1.2705,-1.2705,-1.2705,-1.2705,-1.2705,-1.2705,-1.2705,-1.2711,-1.2892,-1.3429,-1.3532,-1.3713,-1.422,-1.4298,-1.4298,-1.4298,-1.4298,-1.4298,-1.4298,-1.4298,-1.4298,-1.4298,-1.4298,-1.4298,-1.4298,-1.4298,-1.4298,-1.4298,-1.4298,-1.4298,-1.4298,-1.4298,-1.4298,-1.4298,-1.4298,-1.3757,-1.278,-1.3806,-1.3709,-0.8996,-0.9168,-0.9255,-0.8747,-0.8652,-0.8614,-0.8237,-0.8086,-0.8089,-0.8263,-0.8201,-0.8198,-0.8381,-0.7957,-0.7317,-0.643,-0.6025,-0.5493,0.0,-0.4535,-0.4773,-0.5276,-0.6127,-0.6755,-0.6986,-0.7675,-0.8399,-0.9128,-0.9127,-0.9408,-1.013,-1.0334,-1.0545,-1.0846,-1.1021,-1.1111,-1.1111,-1.1111,-1.1111,-1.1111,-1.1111,-1.1111,-1.1111,-1.1111,-1.1111,-1.1111,-1.1111,-1.1166,-1.1268,-1.1417,-1.17,-1.203,-1.2246,-1.2475,-1.2705,-1.2705,-1.2705,-1.2705,-1.2705,-1.2705,-1.2705,-1.2705,-1.2705,-1.2705,-1.2705,-1.2705,-1.2705,-1.2705,-1.2705,-1.2705,-1.2705,-1.2705,-1.2705,-1.2705,-1.2705,-1.2705,-1.2705,-1.2705,-1.2705,-1.2705,-1.2856,-1.3043,-1.3179,-1.326,-1.3254,-1.3242,-1.3646,-1.3954,-1.3954,-1.4002,-1.4039,-1.4039,-1.4039,-1.4039,-1.4039,-1.4195,-1.4298,-1.4298,-1.4298,-1.4298,-1.4298,-1.4298,-1.4298,-1.4298,-1.4298,-1.4298,-1.4298,-1.4298,-1.41,-1.3757,-1.4148,-1.3709,-1.0247,-1.0269,-1.0191,-1.0038,-0.9827,-0.9502,-0.8899,-0.8773,-0.8736,-0.8486,-0.8662,-0.8878,-0.8975,-0.8638,-0.8036,-0.721,-0.6472,-0.5677,0.0,-0.4491,-0.4528,-0.4627,-0.5244,-0.5882,-0.6397,-0.7017,-0.7777,-0.8799,-0.8854,-0.9137,-0.9865,-1.0154,-1.0412,-1.0677,-1.0972,-1.1111,-1.1111,-1.1111,-1.1111,-1.1111,-1.1111,-1.1111,-1.1111,-1.1111,-1.1111,-1.1111,-1.1111,-1.1111,-1.1123,-1.131,-1.1555,-1.1938,-1.2107,-1.2391,-1.2705,-1.2705,-1.2705,-1.2705,-1.2705,-1.2705,-1.2705,-1.2705,-1.2705,-1.2705,-1.2705,-1.2705,-1.2705,-1.2705,-1.2705,-1.2705,-1.2705,-1.2705,-1.2705,-1.2705,-1.2705,-1.2705,-1.2705,-1.2705,-1.2705,-1.2705,-1.285,-1.2976,-1.2976,-1.2976,-1.3012,-1.3115,-1.3369,-1.3646,-1.393,-1.3845,-1.3839,-1.4026,-1.396,-1.3948,-1.4039,-1.4201,-1.4298,-1.4298,-1.4298,-1.4298,-1.4298,-1.4298,-1.4298,-1.4298,-1.4298,-1.4298,-1.4298,-1.4298,-1.41,-1.3757,-1.41,-1.3709]},{"header":{"parameterUnit":"m.s-1","parameterCategory":1,"la1":30.6,"la2":29.2853,"lo1":-89.7004,"lo2":-87.6739,"dy":0.0162,"dx":0.0183,"nx":112,"ny":82,"refTime":"2024-08-23T18:00:00:Z","depth":0,"parameterNumber":3,"parameterNumberName":"V-component_of_WINDS"},"data":[0.0,0.0,0.0,0.0,0.0,0.0,0.0,0.0,0.0,0.0,0.0,0.0,0.0,0.0,0.0,0.0,0.0,0.0,0.0,0.0,0.0,0.0,0.0,0.0,0.0,0.0,0.0,0.0,0.0,0.0,0.0,0.0,0.0,0.0,0.0,0.0,0.0,0.0,0.0,0.0,0.0,0.0,0.0,0.0,0.0,0.0,0.0,0.0,0.0,0.0,0.0,0.0,0.0,0.0,0.0,0.0,0.0,0.0,0.0,0.0,0.0,0.0,0.0,0.0,0.0,0.0,0.0,0.0,0.0,0.0,0.0,0.0,0.0,0.0,0.0,0.0,0.0,0.0,0.0,0.0,0.0,0.0,0.0,0.0,0.0,0.0,0.0,0.0,0.0,0.0,1.8372,1.9777,2.1351,2.2296,2.2296,2.2296,2.1637,2.0103,0.0,0.0,0.0,0.0,0.0,0.0,0.0,0.0,0.0,0.0,0.0,0.0,0.0,0.0,0.0,0.0,0.0,0.0,0.0,0.0,0.0,0.0,0.0,0.0,0.0,0.0,0.0,0.0,0.0,0.0,0.0,0.0,0.0,0.0,0.0,0.0,0.0,0.0,0.0,0.0,0.0,0.0,0.0,0.0,0.0,0.0,0.0,0.0,0.0,0.0,0.0,0.0,0.0,0.0,0.0,0.0,0.0,0.0,0.0,0.0,0.0,0.0,0.0,0.0,0.0,0.0,0.0,0.0,0.0,0.0,0.0,0.0,0.0,0.0,0.0,0.0,0.0,0.0,0.0,0.0,0.0,0.0,0.0,0.0,0.0,0.0,0.0,0.0,0.0,0.0,0.0,0.0,0.0,0.0,0.0,0.0,0.0,0.0,0.0,0.0,0.0,0.0,0.0,0.0,1.8368,2.1544,2.2116,2.2296,2.2296,2.2296,2.1637,2.0103,0.0,0.0,0.0,0.0,0.0,0.0,0.0,0.0,0.0,0.0,0.0,0.0,0.0,0.0,0.0,0.0,0.0,0.0,0.0,0.0,0.0,0.0,0.0,0.0,0.0,0.0,0.0,0.0,0.0,0.0,0.0,0.0,0.0,0.0,0.0,0.0,0.0,0.0,0.0,0.0,0.0,0.0,0.0,0.0,0.0,0.0,0.0,0.0,0.0,0.0,0.0,0.0,0.0,0.0,0.0,0.0,0.0,0.0,0.0,0.0,0.0,0.0,0.0,0.0,0.0,0.0,0.0,0.0,0.0,0.0,0.0,0.0,0.0,0.0,0.0,0.0,0.0,0.0,0.0,0.0,0.0,0.0,0.0,0.0,0.0,0.0,0.0,0.0,0.0,0.0,0.0,0.0,0.0,0.0,0.0,0.0,0.0,0.0,0.0,0.0,0.0,0.0,0.0,1.797,1.9369,2.2018,2.2296,2.2296,2.2296,2.2296,2.1637,2.0103,1.8628,0.0,0.0,0.0,0.0,0.0,0.0,0.0,0.0,0.0,0.0,0.0,0.0,0.0,0.0,0.0,0.0,0.0,0.0,0.0,0.0,0.0,0.0,0.0,0.0,0.0,0.0,0.0,0.0,0.0,0.0,0.0,0.0,0.0,0.0,0.0,0.0,0.0,0.0,0.0,0.0,0.0,0.0,0.0,0.0,0.0,0.0,0.0,0.0,0.0,0.0,0.0,0.0,0.0,0.0,0.0,0.0,0.0,0.0,0.0,0.0,0.0,0.0,0.0,0.0,0.0,0.0,0.0,0.0,0.0,0.0,0.0,0.0,0.0,0.0,0.0,0.0,0.0,0.0,0.0,0.0,0.0,0.0,0.0,0.0,0.0,0.0,0.0,0.0,0.0,0.0,0.0,0.0,0.0,0.0,0.0,0.0,0.0,0.0,0.0,0.0,0.0,0.0,1.9791,2.0521,2.2116,2.2296,2.2296,2.2296,2.1975,2.1248,2.0069,1.829,0.0,0.0,0.0,0.0,0.0,0.0,0.0,0.0,0.0,0.0,0.0,0.0,0.0,0.0,0.0,0.0,0.0,0.0,0.0,0.0,0.0,0.0,0.0,0.0,0.0,0.0,0.0,0.0,0.0,0.0,0.0,0.0,0.0,0.0,0.0,0.0,0.0,0.0,0.0,0.0,0.0,0.0,0.0,0.0,0.0,0.0,0.0,0.0,0.0,0.0,0.0,0.0,0.0,0.0,0.0,0.0,0.0,0.0,0.0,0.0,0.0,0.0,0.0,0.0,0.0,0.0,0.0,0.0,0.0,0.0,0.0,0.0,0.0,0.0,0.0,0.0,0.0,0.0,0.0,0.0,0.0,0.0,0.0,0.0,0.0,0.0,0.0,0.0,0.0,0.0,0.0,0.0,0.0,0.0,0.0,0.0,0.0,0.0,0.0,0.0,0.0,0.0,1.9887,2.14,2.2212,2.2296,2.2296,2.2296,2.0995,2.012,2.0002,1.7326,0.0,0.0,0.0,0.0,0.0,0.0,0.0,0.0,0.0,0.0,0.0,0.0,0.0,0.0,0.0,0.0,0.0,0.0,0.0,0.0,0.0,0.0,0.0,0.0,0.0,0.0,0.0,0.0,0.0,0.0,0.0,0.0,0.0,0.0,0.0,0.0,0.0,0.0,0.0,0.0,0.0,0.0,0.0,0.0,0.0,0.0,0.0,0.0,0.0,0.0,0.0,0.0,0.0,0.0,0.0,0.0,0.0,0.0,0.0,0.0,0.0,0.0,0.0,0.0,0.0,0.0,0.0,0.0,0.0,0.0,0.0,0.0,0.0,0.0,0.0,0.0,0.0,0.0,0.0,0.0,0.0,0.0,0.0,0.0,0.0,0.0,0.0,0.0,0.0,0.0,0.0,0.0,0.0,0.0,0.0,0.0,0.0,0.0,0.0,0.0,0.0,0.0,1.9929,2.1211,2.2198,2.2296,2.2296,2.2296,2.1772,2.0826,1.9389,0.0,0.0,0.0,0.0,0.0,0.0,0.0,0.0,0.0,0.0,0.0,0.0,0.0,0.0,0.0,0.0,0.0,0.0,0.0,0.0,0.0,0.0,0.0,0.0,0.0,0.0,0.0,0.0,0.0,0.0,0.0,0.0,0.0,0.0,0.0,0.0,0.0,0.0,0.0,0.0,0.0,0.0,0.0,0.0,0.0,0.0,0.0,0.0,0.0,0.0,0.0,0.0,0.0,0.0,0.0,0.0,0.0,0.0,0.0,0.0,0.0,0.0,0.0,0.0,0.0,0.0,0.0,0.0,0.0,0.0,0.0,0.0,0.0,0.0,0.0,0.0,0.0,0.0,0.0,0.0,0.0,0.0,0.0,0.0,0.0,0.0,0.0,0.0,0.0,0.0,0.0,0.0,0.0,0.0,0.0,0.0,0.0,0.0,0.0,0.0,0.0,0.0,1.8919,2.0322,2.1434,2.2215,2.2296,2.2338,2.2419,2.1742,2.0667,1.912,0.0,0.0,0.0,0.0,0.0,0.0,0.0,0.0,0.0,0.0,0.0,0.0,0.0,0.0,0.0,0.0,0.0,0.0,0.0,0.0,0.0,0.0,0.0,0.0,0.0,0.0,0.0,0.0,0.0,0.0,0.0,0.0,0.0,0.0,0.0,0.0,0.0,0.0,0.0,0.0,0.0,0.0,0.0,0.0,0.0,0.0,0.0,0.0,0.0,0.0,0.0,0.0,0.0,0.0,0.0,0.0,0.0,0.0,0.0,0.0,0.0,0.0,0.0,0.0,0.0,0.0,0.0,0.0,0.0,0.0,0.0,0.0,0.0,0.0,0.0,0.0,0.0,0.0,0.0,0.0,0.0,0.0,0.0,0.0,0.0,0.0,0.0,0.0,0.0,0.0,0.0,0.0,0.0,0.0,0.0,0.0,0.0,0.0,0.0,0.0,0.0,0.0,1.9419,2.1172,2.231,2.231,2.231,2.2422,2.2685,2.0567,1.9245,0.0,0.0,0.0,0.0,0.0,0.0,0.0,0.0,0.0,0.0,0.0,0.0,0.0,0.0,0.0,0.0,0.0,0.0,0.0,0.0,0.0,0.0,0.0,0.0,0.0,0.0,0.0,0.0,0.0,0.0,0.0,0.0,0.0,0.0,0.0,0.0,0.0,0.0,0.0,0.0,0.0,0.0,0.0,0.0,0.0,0.0,0.0,0.0,0.0,0.0,0.0,0.0,0.0,0.0,0.0,0.0,0.0,0.0,0.0,0.0,0.0,0.0,0.0,0.0,0.0,0.0,0.0,0.0,0.0,0.0,0.0,0.0,0.0,0.0,0.0,0.0,0.0,0.0,0.0,0.0,0.0,0.0,0.0,0.0,0.0,0.0,0.0,0.0,0.0,0.0,0.0,0.0,0.0,0.0,0.0,0.0,0.0,0.0,0.0,0.0,0.0,0.0,0.0,1.9276,2.1289,2.2565,2.2565,2.2747,2.2897,2.2973,2.1831,2.0361,1.863,0.0,0.0,0.0,0.0,0.0,0.0,0.0,0.0,0.0,0.0,0.0,0.0,0.0,0.0,0.0,0.0,0.0,0.0,0.0,0.0,0.0,0.0,0.0,0.0,0.0,0.0,0.0,0.0,0.0,0.0,0.0,0.0,0.0,0.0,0.0,0.0,0.0,0.0,0.0,0.0,0.0,0.0,0.0,0.0,0.0,0.0,0.0,0.0,0.0,0.0,0.0,0.0,0.0,0.0,0.0,0.0,0.0,0.0,0.0,0.0,0.0,0.0,0.0,0.0,0.0,0.0,0.0,0.0,0.0,0.0,0.0,0.0,0.0,0.0,0.0,0.0,0.0,0.0,0.0,0.0,0.0,0.0,0.0,0.0,0.0,0.0,0.0,0.0,0.0,0.0,0.0,0.0,0.0,0.0,0.0,0.0,0.0,0.0,0.0,0.0,0.0,0.0,1.9571,2.1485,2.2751,2.285,2.301,2.314,2.3253,2.2511,2.1161,1.9049,0.0,0.0,0.0,0.0,0.0,0.0,0.0,0.0,0.0,0.0,0.0,0.0,0.0,0.0,0.0,0.0,0.0,0.0,0.0,0.0,0.0,0.0,0.0,0.0,0.0,0.0,0.0,0.0,0.0,0.0,0.0,0.0,0.0,0.0,0.0,0.0,0.0,0.0,0.0,0.0,0.0,0.0,0.0,0.0,0.0,0.0,0.0,0.0,0.0,0.0,0.0,0.0,0.0,0.0,0.0,0.0,0.0,0.0,0.0,0.0,0.0,0.0,0.0,0.0,0.0,0.0,0.0,0.0,0.0,0.0,0.0,0.0,0.0,0.0,0.0,0.0,0.0,0.0,0.0,0.0,0.0,0.0,0.0,0.0,0.0,0.0,0.0,0.0,0.0,0.0,0.0,0.0,0.0,0.0,0.0,0.0,0.0,0.0,0.0,0.0,0.0,0.0,2.0089,2.1754,2.2876,2.3103,2.3152,2.3259,2.3515,2.2789,2.1675,2.0096,0.0,0.0,0.0,0.0,0.0,0.0,0.0,0.0,0.0,0.0,0.0,0.0,0.0,0.0,0.0,0.0,0.0,0.0,0.0,0.0,0.0,0.0,0.0,0.0,0.0,0.0,0.0,0.0,0.0,0.0,0.0,0.0,0.0,0.0,0.0,0.0,0.0,0.0,0.0,0.0,0.0,0.0,0.0,0.0,0.0,0.0,0.0,0.0,0.0,0.0,0.0,0.0,0.0,0.0,0.0,0.0,0.0,0.0,0.0,0.0,1.7873,1.7097,0.0,0.0,0.0,0.0,0.0,0.0,0.0,0.0,0.0,0.0,0.0,0.0,0.0,0.0,0.0,0.0,0.0,0.0,0.0,0.0,0.0,0.0,0.0,0.0,0.0,0.0,0.0,0.0,0.0,0.0,0.0,0.0,0.0,0.0,0.0,0.0,0.0,0.0,0.0,0.0,2.0095,2.206,2.3348,2.3406,2.3558,2.3678,2.3732,2.3053,2.1866,2.0106,1.8556,0.0,0.0,0.0,0.0,0.0,0.0,0.0,0.0,0.0,0.0,0.0,0.0,0.0,0.0,0.0,0.0,0.0,0.0,0.0,0.0,0.0,0.0,0.0,0.0,0.0,0.0,0.0,0.0,0.0,0.0,0.0,0.0,0.0,0.0,0.0,0.0,0.0,0.0,0.0,0.0,0.0,0.0,0.0,0.0,0.0,0.0,0.0,0.0,0.0,0.0,0.0,0.0,0.0,0.0,0.0,0.0,0.0,0.0,0.0,1.9998,1.9129,0.0,0.0,0.0,0.0,0.0,0.0,0.0,0.0,0.0,0.0,0.0,0.0,0.0,0.0,0.0,0.0,0.0,0.0,0.0,0.0,0.0,0.0,0.0,0.0,0.0,0.0,0.0,0.0,0.0,0.0,0.0,0.0,0.0,0.0,0.0,0.0,0.0,0.0,0.0,0.0,2.0512,2.2331,2.3549,2.3642,2.3732,2.3806,2.3806,2.3451,2.2679,2.138,2.0173,0.0,0.0,0.0,0.0,0.0,0.0,0.0,0.0,0.0,0.0,0.0,0.0,0.0,0.0,0.0,0.0,0.0,0.0,0.0,0.0,0.0,0.0,0.0,0.0,0.0,0.0,0.0,0.0,0.0,0.0,0.0,0.0,0.0,0.0,0.0,0.0,0.0,0.0,0.0,0.0,0.0,0.0,0.0,0.0,0.0,0.0,0.0,0.0,0.0,0.0,0.0,0.0,0.0,2.2602,2.3187,2.358,2.358,2.4042,2.4703,2.2588,2.1791,2.1832,2.0198,0.0,0.0,0.0,0.0,0.0,0.0,0.0,0.0,0.0,0.0,0.0,0.0,0.0,0.0,0.0,0.0,0.0,0.0,0.0,0.0,0.0,0.0,2.1237,2.1646,2.2163,2.1948,1.9716,0.0,0.0,0.0,0.0,0.0,0.0,0.0,0.0,0.0,0.0,0.0,2.1151,2.2618,2.362,2.3785,2.3806,2.3816,2.3858,2.3858,2.3541,2.2835,2.2035,2.0988,0.0,0.0,0.0,0.0,0.0,0.0,0.0,0.0,0.0,0.0,0.0,0.0,0.0,0.0,0.0,0.0,0.0,0.0,0.0,0.0,0.0,0.0,0.0,0.0,0.0,0.0,0.0,0.0,0.0,0.0,0.0,0.0,1.7266,1.7338,0.0,0.0,0.0,0.0,0.0,0.0,0.0,0.0,0.0,0.0,0.0,0.0,0.0,2.2254,2.2516,2.3322,2.4211,2.5166,2.5755,2.6519,2.7455,2.7455,2.7414,2.7317,2.7214,0.0,2.3791,2.3065,0.0,0.0,0.0,0.0,0.0,0.0,0.0,0.0,0.0,0.0,0.0,0.0,0.0,0.0,0.0,0.0,0.0,0.0,0.0,0.0,0.0,0.0,2.429,2.5252,2.5392,2.5052,2.424,2.1661,1.948,1.9343,1.877,1.7974,0.0,0.0,0.0,0.0,0.0,0.0,2.1953,2.3098,2.3774,2.3795,2.3806,2.3878,2.4058,2.4068,2.3805,2.3169,2.2388,2.184,2.1636,1.9394,0.0,0.0,0.0,0.0,0.0,0.0,0.0,0.0,0.0,0.0,0.0,0.0,0.0,0.0,0.0,0.0,0.0,0.0,0.0,0.0,0.0,0.0,0.0,0.0,0.0,0.0,0.0,0.0,0.0,1.7036,1.8318,1.8772,1.9042,1.907,0.0,0.0,0.0,0.0,0.0,0.0,0.0,0.0,0.0,2.3257,2.4687,2.5592,2.5862,2.669,2.742,2.8057,2.8744,2.9332,2.9769,2.9769,2.9714,2.96,2.9714,2.9107,2.7834,2.5486,2.3982,2.3072,0.0,0.0,0.0,0.0,2.2348,2.2468,2.3233,2.3501,2.3413,2.3105,0.0,0.0,0.0,0.0,0.0,0.0,0.0,2.2976,2.3898,2.4694,2.5422,2.6055,2.6104,2.5967,2.5728,2.4446,2.2919,2.1451,2.0886,2.0043,1.8204,1.8645,0.0,0.0,0.0,2.1748,2.255,2.3518,2.4145,2.4145,2.4145,2.4174,2.4256,2.4265,2.4162,2.3886,2.3541,2.3159,2.2683,2.1595,2.0537,0.0,0.0,0.0,0.0,0.0,0.0,0.0,0.0,0.0,0.0,0.0,0.0,0.0,0.0,0.0,0.0,0.0,0.0,0.0,0.0,0.0,0.0,0.0,0.0,0.0,0.0,0.0,0.0,1.8115,1.9345,1.9947,2.0306,2.047,0.0,0.0,0.0,0.0,0.0,0.0,2.2693,2.4658,2.5794,2.59,2.7543,2.8557,2.8832,2.9492,3.0012,3.0418,3.1034,3.1442,3.1724,3.1724,3.1746,3.1827,3.1827,3.1659,3.1152,2.7879,2.6254,2.5706,2.4775,2.4357,2.436,2.507,2.5159,2.505,2.6003,2.6141,2.5877,2.5651,2.4967,2.404,2.3009,0.0,0.0,0.0,0.0,2.4908,2.5379,2.5913,2.6435,2.6868,2.6979,2.6943,2.6735,2.6699,2.5947,2.3473,2.3031,2.2319,1.9956,2.0593,0.0,2.0011,2.1516,2.2887,2.3235,2.3949,2.4398,2.4398,2.4398,2.4415,2.4476,2.4485,2.4501,2.4551,2.4551,2.4279,2.3685,2.3403,2.2436,2.0639,0.0,0.0,0.0,0.0,0.0,0.0,0.0,0.0,0.0,0.0,0.0,0.0,0.0,0.0,0.0,0.0,0.0,0.0,0.0,0.0,0.0,0.0,0.0,0.0,0.0,0.0,0.0,0.0,0.0,2.0833,2.2132,0.0,0.0,0.0,0.0,2.2853,2.4248,2.5102,2.5208,2.7368,2.8782,2.9137,2.9937,3.0514,3.0862,3.0898,3.131,3.2071,3.2125,3.2661,3.3665,3.3665,3.381,3.4031,3.4031,3.3451,3.2381,3.0384,2.9382,2.9001,2.8438,2.8031,2.7826,2.8426,2.8011,2.7228,2.7777,2.7362,2.6717,2.7626,2.7119,2.5964,2.4884,2.4568,0.0,0.0,2.5313,2.6338,2.7379,2.7673,2.793,2.8923,2.9142,2.8938,2.816,2.8003,2.7372,2.5277,2.5014,2.4549,2.2715,0.0,2.2994,2.2737,2.2969,2.345,2.4222,2.4371,2.4398,2.4398,2.4398,2.4485,2.4676,2.4673,2.4761,2.4957,2.4964,2.4945,2.4907,2.3995,2.3441,2.3309,2.0877,0.0,0.0,0.0,0.0,0.0,0.0,0.0,0.0,0.0,0.0,0.0,0.0,0.0,0.0,0.0,0.0,0.0,0.0,0.0,0.0,0.0,0.0,0.0,0.0,0.0,0.0,0.0,0.0,2.3543,2.4606,0.0,2.5032,2.5509,2.6042,2.6557,2.7157,2.7682,2.8146,2.972,3.0647,3.0742,3.1799,3.2393,3.2488,3.2513,3.2687,3.2977,3.314,3.3437,3.382,3.3985,3.4111,3.4197,3.4197,3.3981,3.358,3.2902,3.1861,3.0657,3.063,3.0542,3.0465,3.0687,3.0513,3.0216,3.04,3.0251,2.9919,2.9752,2.9421,2.8904,2.8009,2.808,2.8375,2.7819,2.8293,2.8938,2.8796,2.877,2.8865,2.9209,2.9304,2.9229,2.8932,2.8868,2.8493,2.7239,2.6631,2.5967,2.4792,2.5143,2.5382,2.478,2.531,2.5889,2.618,2.6317,2.6174,2.5619,2.5563,2.5378,2.4939,2.4882,2.4929,2.5003,2.5003,2.5003,2.5003,2.4659,2.4197,2.3649,2.2702,2.121,0.0,0.0,0.0,0.0,0.0,0.0,0.0,0.0,0.0,0.0,0.0,0.0,0.0,0.0,0.0,0.0,0.0,0.0,0.0,0.0,0.0,0.0,0.0,0.0,0.0,2.2819,2.4453,2.546,2.6731,2.7472,2.7329,2.8044,2.8742,2.9301,2.9627,3.0015,3.045,3.1511,3.2219,3.2507,3.3324,3.3918,3.428,3.432,3.4407,3.4521,3.4678,3.4824,3.4895,3.507,3.5189,3.527,3.527,3.5074,3.475,3.4843,3.3918,3.2504,3.2676,3.2731,3.2742,3.2828,3.262,3.2305,3.1995,3.1944,3.1892,3.1287,3.1099,3.0995,3.0383,3.0628,3.0976,3.0325,3.0588,3.0928,3.0377,3.0031,2.9864,2.9915,2.9719,2.9513,2.9513,2.9513,2.9345,2.8802,2.7998,2.7139,2.6344,2.6706,2.6911,2.6332,2.6854,2.7285,2.7244,2.7392,2.7285,2.669,2.6387,2.5989,2.5458,2.5155,2.5003,2.5003,2.5003,2.5003,2.5003,2.4719,2.4283,2.3708,2.3139,2.1935,2.0061,0.0,0.0,0.0,0.0,0.0,0.0,0.0,0.0,0.0,0.0,0.0,0.0,0.0,0.0,0.0,0.0,0.0,0.0,0.0,0.0,0.0,0.0,0.0,2.3077,2.5001,2.6457,2.6443,2.8462,2.969,2.923,2.9913,3.0528,3.0876,3.1628,3.2077,3.2095,3.2778,3.3597,3.4501,3.4553,3.5094,3.6203,3.6217,3.6371,3.6695,3.6708,3.6814,3.7002,3.7002,3.7144,3.7401,3.7401,3.6814,3.5877,3.6145,3.5632,3.468,3.4642,3.4623,3.4626,3.484,3.4272,3.332,3.2483,3.2317,3.2446,3.226,3.2201,3.2142,3.1955,3.2029,3.2142,3.1926,3.1992,3.2144,3.2126,3.1533,3.0998,3.1188,3.0598,2.9991,2.9991,2.9953,2.9934,2.9934,2.913,2.8199,2.7418,2.7452,2.7532,2.7393,2.7483,0.0,2.7412,2.7483,2.757,2.7551,2.6785,2.6254,2.6197,2.5484,2.5029,2.501,2.501,2.4991,2.5017,2.4188,2.3746,2.3746,2.211,2.1197,2.1048,0.0,0.0,0.0,0.0,0.0,0.0,0.0,0.0,0.0,0.0,0.0,0.0,0.0,0.0,0.0,0.0,0.0,0.0,0.0,0.0,0.0,2.4753,2.5991,2.5885,2.7102,2.8412,2.949,3.0724,3.1387,3.1222,3.1885,3.2599,3.3223,3.3519,3.3912,3.444,3.4878,3.525,3.5501,3.5798,3.609,3.6403,3.6512,3.6617,3.6695,3.6863,3.6951,3.7002,3.7206,3.732,3.7401,3.7401,3.7279,3.711,3.7186,3.7043,3.6644,3.5324,3.4821,3.4812,3.4889,3.4728,3.4462,3.4207,3.4169,3.4197,3.415,3.4131,3.4121,3.4054,3.4092,3.3989,3.3355,3.3223,3.311,3.2486,3.2136,3.2003,3.2067,3.1886,3.1715,3.1715,3.1242,3.0844,3.0844,3.0101,2.9425,2.9187,2.9209,2.9225,2.9201,2.9217,2.9225,2.9201,2.9217,2.9033,2.8419,2.8154,2.7517,2.6292,2.6032,2.5691,2.5108,2.507,2.5082,2.514,2.4816,2.4643,2.4643,2.347,2.2549,0.0,0.0,0.0,0.0,0.0,0.0,0.0,0.0,0.0,0.0,0.0,0.0,0.0,0.0,0.0,0.0,0.0,0.0,0.0,0.0,0.0,0.0,2.7023,2.8306,2.9294,2.9802,3.0365,3.1171,3.1984,3.258,3.2847,3.3371,3.3993,3.4736,3.4916,3.5193,3.5634,3.5841,3.6121,3.6574,3.6808,3.7178,3.7744,3.7835,3.7953,3.8124,3.8228,3.8325,3.839,3.8537,3.8604,3.8604,3.8604,3.8469,3.8225,3.8225,3.8014,3.7547,0.0,0.0,0.0,0.0,3.4991,3.4917,3.4963,3.4982,3.4973,3.4927,3.4936,3.4982,3.4982,3.4982,3.4896,3.4482,3.4365,3.4251,3.3756,3.3356,3.3116,3.3116,3.2831,3.2572,3.2572,3.2191,3.1752,3.1394,3.0918,0.0,3.0129,3.0015,2.9984,2.9981,3.003,3.0045,2.9988,3.003,2.9881,2.9432,2.9051,2.8422,2.7464,2.6766,0.0,0.0,0.0,2.5004,2.4718,2.4579,0.0,0.0,0.0,0.0,0.0,0.0,0.0,0.0,2.1948,2.195,0.0,0.0,0.0,0.0,0.0,0.0,0.0,0.0,0.0,0.0,0.0,0.0,0.0,0.0,0.0,0.0,2.901,3.0453,3.2607,3.2525,3.2209,3.2029,3.2714,3.347,3.4124,3.4492,3.4976,3.572,3.5994,3.6185,3.6261,3.6291,0.0,0.0,0.0,3.8324,3.952,3.9568,3.9769,4.0129,4.0129,4.0176,4.0309,4.0309,4.0309,4.0309,4.0309,3.9895,3.9268,3.9268,3.8757,3.7909,3.7053,3.666,3.6474,3.571,3.5308,3.5096,3.5117,0.0,0.0,3.4982,3.5027,3.5122,3.5122,3.5122,3.5147,3.5278,3.5308,3.5308,3.5308,3.4779,3.4249,3.4249,3.3643,3.3081,3.3081,3.3004,3.2716,3.1948,3.1641,3.1277,3.0574,3.0277,3.0118,3.0115,3.0215,3.0266,3.0148,3.0234,3.0292,3.0292,2.9602,0.0,2.9014,2.7645,2.671,2.6518,2.5718,2.4907,2.4167,2.4042,2.3973,2.3961,2.3903,2.4258,2.5018,2.5119,2.5176,2.5113,2.2576,2.2644,0.0,0.0,0.0,0.0,0.0,0.0,0.0,0.0,0.0,0.0,0.0,0.0,0.0,0.0,0.0,3.0381,3.1528,3.2447,3.339,3.3447,3.3382,3.3336,3.4029,3.4564,3.4654,3.5299,3.6036,3.6823,3.6942,3.7247,3.7888,3.8145,3.8357,3.8549,3.9006,3.9402,3.9671,3.9984,4.0184,4.0266,4.0266,0.0,4.0309,4.0309,4.0309,4.0309,4.0309,4.0271,4.0231,4.0231,3.9807,3.9065,3.7985,3.7547,3.7428,3.6646,3.6316,3.6162,3.55,3.5251,3.5251,3.5227,3.5235,3.5251,3.5251,3.5251,0.0,3.5281,3.5308,3.5308,3.5308,3.5174,3.5059,3.5059,3.4951,3.4817,3.4817,3.4307,3.3789,3.3635,3.2466,3.1476,3.1435,3.0772,3.026,3.0266,3.0279,3.0286,3.0254,3.0279,3.0292,3.0292,3.0158,2.9756,2.9052,2.8752,2.8027,2.6665,2.5869,2.5306,2.4987,2.4995,2.497,2.4941,2.4925,2.499,2.5162,2.5876,2.6207,2.6182,2.5487,2.5428,0.0,0.0,0.0,0.0,0.0,0.0,0.0,0.0,0.0,0.0,0.0,2.6046,2.8115,0.0,3.0046,3.2039,3.3115,3.3929,3.4555,3.5042,3.5048,3.4324,3.4607,3.5141,3.5933,3.649,3.7118,3.7943,3.8085,3.8328,3.8733,3.8998,3.9178,3.9259,3.9648,3.9901,4.0002,4.0204,4.0336,4.0399,4.0399,4.0458,4.0557,4.0557,4.0557,4.0557,4.0557,4.0586,4.0654,4.0654,4.0456,4.0088,3.9514,3.8724,3.7865,3.7518,3.7315,3.7091,3.631,3.6056,3.5972,3.5465,3.5352,3.5402,3.5402,3.5402,3.5416,3.5489,3.5502,3.5502,3.5502,3.5502,3.5502,3.5502,3.5502,3.5502,3.5502,3.5175,3.4777,3.4334,3.3544,3.2829,3.2458,3.164,3.0918,3.0513,3.0455,3.0455,3.0455,3.0455,3.0455,3.0455,3.0455,3.0263,2.9844,2.9438,2.8666,2.7382,2.6945,2.6704,2.6612,2.6593,2.6593,2.6553,2.6529,2.6507,2.6507,2.6929,2.7146,2.716,2.7466,2.7578,0.0,0.0,0.0,0.0,0.0,0.0,0.0,2.405,2.4577,2.7238,2.7799,2.8536,3.0865,3.1397,3.2021,3.3687,3.4562,3.5237,3.5797,3.6477,3.6509,3.5427,3.5404,3.6001,3.729,3.7779,3.8289,3.8943,3.9132,3.924,3.924,3.9446,3.9616,3.9721,3.9941,4.012,4.0306,4.0349,4.0441,4.0559,4.0559,4.0635,4.0797,4.0797,4.0797,4.0797,4.0797,4.0797,4.0797,4.0797,4.0797,4.0797,4.0797,3.9876,3.8543,3.8478,3.8318,3.8031,3.7327,3.7064,3.6916,3.5928,3.5674,3.5733,3.5598,3.554,3.5553,3.5668,3.5704,3.5704,3.5704,3.5704,3.5704,3.5704,3.5704,3.5704,3.5704,3.5704,3.5496,3.48,3.4529,3.4181,3.3474,3.2623,3.1773,3.0965,3.0694,3.0598,3.0598,3.0598,3.0598,3.0598,3.0598,3.0598,3.0598,2.9805,2.8997,2.83,2.8088,2.7991,2.7991,2.7957,2.7928,2.7928,2.7867,2.783,2.783,2.8003,2.808,2.8099,2.8902,2.9142,2.175,2.2704,2.3638,2.4382,2.4259,2.4946,0.0,2.8445,2.8216,3.0711,3.1373,3.2048,3.3824,3.4196,3.4781,3.6397,3.6637,3.6688,3.6824,3.693,3.7006,3.7017,3.7558,3.7972,3.8159,3.9013,3.9584,3.9679,3.9709,3.972,3.972,3.9754,3.9775,3.9786,4.0043,4.0211,4.03,4.0542,4.0687,4.0778,4.0778,4.0784,4.0797,4.0797,4.0797,4.0797,4.0797,4.0797,4.0797,4.0797,4.0797,4.0797,4.0797,4.0674,4.0391,3.963,3.9334,3.918,3.8336,3.8046,3.791,3.7009,3.6725,3.6615,3.5886,3.5673,3.5673,3.5704,3.5704,3.5704,3.5704,3.5704,3.5704,3.5704,3.5704,3.5704,3.5704,3.5704,3.5665,3.5568,3.4935,3.4374,3.4278,3.3538,3.2662,3.1792,3.1062,3.0598,3.0598,3.0598,3.0598,3.0598,3.0598,3.0598,3.0598,2.9805,2.9268,2.9171,2.8436,2.7991,2.7991,2.7982,2.7982,2.7982,2.7974,2.7989,2.7989,2.8742,2.9129,2.9144,2.9899,2.9796,2.4295,2.4991,2.5517,2.6358,2.6732,2.7508,2.9876,3.001,3.034,3.2906,3.3531,3.4093,3.5694,3.6123,3.6413,3.7065,3.7607,3.7934,3.7937,3.7926,3.7967,3.8052,3.7979,3.8092,3.8436,3.9288,3.9808,3.9808,3.9808,3.9808,3.9808,3.9953,4.0032,4.0032,4.0267,4.0411,4.0473,4.0593,4.07,4.0797,4.0797,4.0797,4.0797,4.0797,4.0814,4.0856,4.0827,4.084,4.0902,4.0837,4.082,4.0856,4.0827,4.0797,4.0758,4.039,4.0255,4.0139,3.9268,3.8953,3.8818,3.7947,3.7651,3.7502,3.6651,3.64,3.6303,3.582,3.5704,3.5704,3.5704,3.5704,3.5704,3.5704,3.5704,3.5704,3.5704,3.5704,3.5704,3.5704,3.5419,3.5168,3.5168,3.4427,3.3731,3.3363,3.2609,3.1869,3.1366,3.1294,3.112,3.0656,3.0598,3.0598,3.0598,3.0269,3.0056,3.0056,2.9708,2.9515,2.9515,2.9515,2.9515,2.9515,2.9515,2.9515,2.9515,2.9882,3.0056,3.0056,3.0371,3.0553,2.6049,2.6761,2.7361,2.8201,2.9046,2.9952,3.101,3.1337,3.2042,3.4223,3.472,3.5186,3.6599,3.6948,3.7151,3.7575,3.8216,3.8762,3.902,3.8829,3.863,3.8451,3.8057,3.795,3.8394,3.9175,3.9756,3.9984,3.9984,3.9984,3.9984,4.0186,4.0286,4.0286,4.0441,4.0542,4.0595,4.0621,4.0694,4.0797,4.0814,4.0825,4.0831,4.084,4.0878,4.0924,4.0873,4.0902,4.0984,4.0898,4.0883,4.092,4.0868,4.0856,4.0856,4.0856,4.0837,4.0719,4.0081,3.9868,3.9719,3.8858,3.8598,3.8424,3.7552,3.7133,3.6838,3.6226,3.5907,3.5737,3.5737,3.5737,3.5737,3.5737,3.5713,3.5693,3.5693,3.5706,3.5704,3.5704,3.5704,3.5704,3.5704,3.5187,3.4761,3.4761,3.4214,3.3416,3.2295,3.1947,3.1483,3.0694,3.0598,3.0598,3.0598,3.0598,3.0598,3.0598,3.0598,3.0598,3.0598,3.0598,3.0598,3.0598,3.0598,3.0598,3.0598,3.0598,3.0714,3.0926,3.0926,3.1366,2.6381,2.7673,2.92,3.0014,3.1062,3.2123,3.2929,3.3165,3.3546,3.4671,3.4879,3.523,3.6315,3.6404,3.6853,3.8498,3.8674,3.8979,4.0015,3.9422,3.8663,3.8086,3.8,3.8,3.8012,3.88,3.9635,4.0423,4.0481,4.0481,4.0481,4.0489,4.0489,4.0489,4.0565,4.061,4.0595,4.0661,4.0739,4.0797,4.0872,4.0903,4.0907,4.0953,4.1007,4.1007,4.0987,4.1007,4.099,4.1007,4.1007,4.1007,4.0987,4.0984,4.0984,4.0984,4.0906,4.0797,4.0777,4.0758,4.0622,3.9825,3.9567,3.9397,3.8527,3.7707,3.7085,3.6985,3.6397,3.5805,3.5805,3.5805,3.5805,3.5805,3.5755,3.5693,3.5693,3.5699,3.5704,3.5704,3.5704,3.5704,3.5704,3.5684,3.5665,3.5665,3.5646,3.5007,3.3281,3.2314,3.1483,3.0694,3.0598,3.0598,3.0598,3.0598,3.0598,3.0598,3.0598,3.0598,3.0598,3.0598,3.0598,3.0598,3.0598,3.0598,3.0598,3.0598,3.1004,3.1753,3.1753,3.2237,2.8101,2.9225,3.0449,3.1915,3.2582,3.3108,3.4098,3.4377,3.4671,3.5524,3.5761,3.6093,3.6872,3.7147,3.7608,3.8754,3.9006,3.9397,4.0326,3.9714,3.8888,3.8096,3.8007,3.8007,3.8007,3.8277,3.9008,4.04,4.0015,3.9938,4.0477,4.0496,4.0537,4.0636,4.0649,4.0703,4.0791,4.082,4.0872,4.0932,4.0961,4.0976,4.0976,4.0981,4.1014,4.1068,4.1011,4.1057,4.1138,4.1044,4.1037,4.1066,4.1028,4.099,4.099,4.099,4.096,4.0932,4.0932,4.0932,4.0898,4.0618,4.0528,4.0376,3.9484,3.8643,3.7834,3.7232,3.6459,3.5791,3.5791,3.5791,3.5791,3.5791,3.5774,3.5778,3.5778,3.5778,3.5764,3.5764,3.5764,3.5764,3.5764,3.5732,3.5708,3.5695,3.5206,3.4626,3.404,3.3204,3.2333,3.1483,3.1405,3.1178,3.0656,3.0598,3.0598,3.0598,3.0598,3.0598,3.0598,3.0598,3.0598,3.0598,3.0598,3.0868,3.1405,3.1405,3.1831,3.2662,3.2662,3.3126,2.9807,3.0742,3.1578,3.3407,3.3872,3.4053,3.4747,3.4936,3.5115,3.5666,3.5597,3.5595,3.6109,3.6102,3.6397,3.7551,3.812,3.8809,3.9976,3.9646,3.9092,3.8527,3.8211,3.8169,3.8477,3.826,3.8768,4.0389,4.0068,4.002,4.054,4.0584,4.0648,4.0726,4.1057,4.114,4.0909,4.1211,4.125,4.1044,4.1044,4.1054,4.107,4.107,4.1085,4.1122,4.1083,4.1116,4.1191,4.1111,4.1106,4.1122,4.1081,4.107,4.107,4.107,4.107,4.1066,4.1028,4.099,4.0997,4.1039,4.1044,4.0928,4.0367,3.9618,3.8807,3.8226,3.7238,3.6411,3.6723,3.6331,3.5941,3.6253,3.6085,3.5838,3.5838,3.5824,3.5791,3.5791,3.5791,3.5791,3.5791,3.5756,3.5737,3.5699,3.5224,3.4744,3.4438,3.3905,3.3243,3.2391,3.228,3.1947,3.1136,3.1337,3.1236,3.0636,3.0868,3.0907,3.0617,3.0598,3.0733,3.1023,3.1023,3.1444,3.2256,3.2256,3.2701,3.3552,3.3552,3.4021,3.1399,3.2172,3.2654,3.4463,3.4927,3.4927,3.4936,3.4936,3.4973,3.5127,3.4499,3.3953,3.4102,3.3557,3.3608,3.5283,3.6304,3.7453,3.9138,3.9376,3.9357,3.9319,3.8679,3.8545,3.9338,3.8806,3.9034,4.0465,4.0655,4.0725,4.0764,4.0864,4.0948,4.0937,4.1816,4.1877,4.1059,4.1818,4.1852,4.1169,4.1111,4.1143,4.1191,4.1191,4.1191,4.1191,4.1191,4.1191,4.1191,4.1191,4.1191,4.1191,4.1191,4.1191,4.1191,4.1191,4.1191,4.1171,4.1059,4.1003,4.1011,4.108,4.1111,4.1111,4.1111,4.0541,3.9882,3.9829,3.8627,3.7559,3.8398,3.7363,3.6328,3.7109,3.6615,3.5956,3.5917,3.5851,3.5799,3.5799,3.5799,3.5819,3.5816,3.5816,3.5774,3.5718,3.5706,3.54,3.4564,3.4476,3.4149,3.3351,3.3218,3.2832,3.2038,3.2651,3.2411,3.083,3.1405,3.1483,3.0752,3.0694,3.1043,3.185,3.1869,3.2295,3.3165,3.3165,3.3615,3.4471,3.4471,3.4916,3.1868,3.3008,3.4143,3.4931,3.5124,3.5157,3.5316,3.5346,3.5189,3.458,3.4279,3.3947,3.3346,3.3596,3.4449,3.6183,3.7192,3.8363,4.01,4.034,4.0112,3.9514,3.9829,3.9966,3.9597,3.9927,4.0582,4.1618,4.1121,4.1058,4.1713,4.2368,4.2782,4.2886,4.3122,4.3168,4.298,4.2552,4.2242,4.2069,4.1463,4.1171,4.1191,4.1191,4.1191,4.1191,4.1191,4.1191,4.1191,4.1191,4.1191,4.1191,4.1191,4.1191,4.1191,4.1191,4.1191,4.1191,4.1168,4.1146,4.1146,4.1169,4.117,4.117,4.117,4.0585,3.9902,3.9882,3.9101,3.832,3.8535,3.8262,3.7832,3.7402,3.7128,3.6776,3.6112,3.5953,3.5951,3.5951,3.5951,3.5927,3.5887,3.5862,3.5849,3.5777,3.5768,3.5682,3.5402,3.5369,3.5055,3.4245,3.4151,3.3798,3.2932,3.302,3.2914,3.2488,3.2043,3.2005,3.2449,3.1831,3.1908,3.2759,3.2778,3.3204,3.406,3.406,3.4524,3.538,3.538,3.5496,3.3617,3.4887,3.5932,3.5889,3.5856,3.5706,3.5063,3.493,3.468,3.3814,3.3353,3.2833,3.1968,3.2549,3.3465,3.4416,3.6288,3.8081,3.9416,4.0255,4.0578,4.0111,4.0886,4.1282,4.0836,4.1572,4.2275,4.2766,4.1964,4.184,4.2708,4.3241,4.3575,4.3648,4.4008,4.4233,4.4277,4.3418,4.2773,4.2383,4.1933,4.1543,4.1191,4.1191,4.1191,4.1191,4.1169,4.1167,4.1167,4.1167,4.1143,4.1115,4.1144,4.1142,4.1114,4.1114,4.1121,4.1167,4.1167,4.117,4.1191,4.1191,4.1191,4.1191,4.1191,4.0859,4.0469,4.0469,3.9844,3.9258,3.9648,3.918,3.8574,3.8476,3.8144,3.7637,3.6758,3.6562,3.6465,3.6074,3.5996,3.5996,3.5951,3.5949,3.5923,3.5851,3.5845,3.5816,3.5745,3.5745,3.5571,3.5154,3.5094,3.474,3.3935,3.4127,3.3961,3.3227,3.305,3.3024,3.314,3.2653,3.2778,3.3654,3.3673,3.4098,3.4974,3.4974,3.5227,3.5699,3.5699,3.5699,3.5695,3.6899,3.7543,3.6868,3.6615,3.6142,3.4571,3.4032,3.3628,3.2756,3.2006,3.125,3.0385,3.1072,3.1849,3.2031,3.4744,3.719,3.8249,3.9703,4.0719,4.0817,4.1716,4.2317,4.2305,4.3144,4.3744,4.3861,4.3123,4.2992,4.3748,4.3946,4.4058,4.4042,4.4785,4.5176,4.5176,4.4316,4.3496,4.2734,4.2519,4.2109,4.1523,4.1406,4.1367,4.1367,4.1297,4.1207,4.1109,4.1085,4.1059,4.1016,4.1068,4.1057,4.099,4.099,4.1047,4.1081,4.1081,4.1119,4.117,4.1191,4.1191,4.1191,4.1191,4.1191,4.1191,4.1191,4.0664,4.0254,4.0996,4.0078,3.9101,3.9746,3.9316,3.8535,3.7656,3.7383,3.7031,3.6172,3.5996,3.5996,3.5996,3.5996,3.5975,3.5923,3.59,3.5892,3.5838,3.5827,3.5838,3.5892,3.5847,3.5548,3.4902,3.5433,3.5173,3.3719,3.4189,3.4229,3.3572,3.3395,3.3698,3.4575,3.4579,3.4942,3.5713,3.5697,3.5704,3.5714,3.5714,3.5714,3.6176,3.7016,3.7543,3.6868,3.6192,3.5442,3.4436,3.3122,3.1891,3.1,3.0712,3.0365,2.9486,3.0637,3.2207,3.3698,3.5048,3.6755,3.91,3.9752,4.0229,4.0881,4.1797,4.2375,4.2372,4.3176,4.3998,4.472,4.4617,4.4594,4.4753,4.5444,4.5858,4.5859,4.5996,4.6074,4.6074,4.5215,4.4707,4.4531,4.3086,4.2695,4.3242,4.2519,4.2187,4.2187,4.2117,4.1714,4.1106,4.105,4.1003,4.0994,4.1006,4.1003,4.099,4.099,4.1019,4.1028,4.1028,4.1014,4.1057,4.1168,4.1191,4.1191,4.1191,4.1191,4.1191,4.1191,4.1094,4.1016,4.1152,4.0976,4.0605,4.0039,3.9785,3.9434,3.8555,3.7812,3.7031,3.6172,3.5996,3.5996,3.5996,3.5996,3.5996,3.5976,3.5976,3.5975,3.5974,3.5922,3.5889,3.5893,3.589,3.583,3.5699,3.5763,3.5675,3.5385,3.4873,3.4809,3.5329,3.47,3.4714,3.5545,3.55,3.5578,3.5778,3.5729,3.5722,3.5774,3.5774,3.5774,3.636,3.71,3.7667,3.6889,3.6096,3.5154,3.3833,3.2237,3.0769,2.991,2.939,2.8832,2.7967,2.9249,3.0738,3.1601,3.328,3.5374,3.8022,3.8845,3.9641,4.0905,4.2242,4.3085,4.3083,4.4275,4.5233,4.5643,4.5682,4.5681,4.568,4.6073,4.6308,4.6308,4.6308,4.6308,4.6308,4.5898,4.5449,4.498,4.4141,4.373,4.3691,4.3262,4.3086,4.3047,4.2528,4.2087,4.1693,4.1244,4.1022,4.099,4.099,4.099,4.0949,4.0902,4.0915,4.0953,4.0953,4.0987,4.1066,4.1139,4.1119,4.1104,4.1104,4.1104,4.1104,4.1104,4.1104,4.1104,4.1104,4.1117,4.1048,4.0619,4.0194,3.9668,3.8789,3.793,3.7031,3.6172,3.5996,3.5996,3.5996,3.5996,3.5996,3.5996,3.5996,3.5996,3.5996,3.5975,3.5951,3.5951,3.5951,3.5951,3.5951,3.5924,3.5897,3.5897,3.5513,3.5442,3.5849,3.5459,3.5404,3.5791,3.5762,3.5778,3.5791,3.5778,3.5797,3.5849,3.5849,3.5849,3.6405,3.7226,3.7796,3.6923,3.5942,3.4769,3.3045,3.1198,2.9627,2.8747,2.8076,2.7436,2.6742,2.7959,2.9179,2.9543,3.1522,3.3994,3.6836,3.8024,3.9238,4.0917,4.2637,4.3671,4.369,4.5253,4.6267,4.6308,4.6308,4.6308,4.6307,4.6308,4.6308,4.6308,4.6308,4.6308,4.6308,4.6308,4.5957,4.5273,4.5098,4.4746,4.4238,4.3867,4.3691,4.3652,4.2704,4.2204,4.1988,4.1355,4.1054,4.099,4.099,4.0976,4.093,4.0867,4.0873,4.092,4.092,4.0984,4.1078,4.1078,4.1066,4.1047,4.1037,4.1022,4.1047,4.1037,4.1022,4.103,4.103,4.1078,4.1117,4.1117,4.0641,3.9941,3.9062,3.834,3.7598,3.6738,3.6406,3.6289,3.6289,3.6113,3.5996,3.5996,3.5996,3.5996,3.5996,3.5996,3.5996,3.5996,3.5996,3.5996,3.5996,3.5996,3.5996,3.5996,3.5951,3.5923,3.5923,3.5861,3.5845,3.5845,3.5834,3.5834,3.5845,3.5834,3.5851,3.5923,3.5923,3.5923,3.6423,3.732,3.7796,3.6923,3.5507,3.3872,3.2199,2.9907,2.7883,2.7017,2.6812,2.68,2.6703,2.7517,2.8738,3.0306,3.1433,3.3323,3.6796,3.8047,3.9238,4.0976,4.2628,4.364,4.3691,4.5162,4.6162,4.6289,4.6308,4.6308,4.6308,4.6308,4.6308,4.6308,4.6308,4.6308,4.6308,4.6308,4.6269,4.6172,4.5371,4.5371,4.6016,4.4414,4.3691,4.3652,4.2704,4.189,4.1204,4.1064,4.1016,4.099,4.099,4.1007,4.0981,4.0974,4.0997,4.0981,4.0981,4.099,4.1,4.1,4.1081,4.117,4.1112,4.1122,4.1169,4.1112,4.1122,4.1171,4.1171,4.1191,4.1191,4.1191,4.1133,4.084,3.9961,3.9726,3.9394,3.8535,3.7715,3.7187,3.7187,3.6523,3.5996,3.5996,3.5996,3.5996,3.5996,3.5996,3.5996,3.5996,3.5996,3.5996,3.5996,3.5996,3.5996,3.5996,3.5996,3.5996,3.5996,3.5976,3.5976,3.5976,3.5923,3.5923,3.5976,3.5923,3.5924,3.5996,3.5996,3.5996,3.4936,3.5834,3.6404,3.6058,3.4699,3.3244,3.2627,3.0146,2.7864,2.7514,2.6659,2.5976,2.5976,2.6313,2.717,2.891,2.9515,3.0991,3.4452,3.5703,3.709,3.9375,4.1541,4.3083,4.3652,4.5227,4.6241,4.6308,4.6308,4.6308,4.6308,4.6308,4.6308,4.6308,4.6308,4.6308,4.6308,4.6308,4.6308,4.6308,4.5957,4.5936,4.622,4.5565,4.496,4.4364,4.3477,4.2594,4.1773,4.1267,4.1044,4.099,4.099,4.0986,4.0937,4.0898,4.0878,4.0878,4.0878,4.0917,4.0941,4.0941,4.0997,4.1074,4.1054,4.1061,4.1072,4.1054,4.1064,4.1076,4.1076,4.1112,4.1146,4.1191,4.1191,4.0957,4.0098,3.9902,3.9648,3.8769,3.832,3.8086,3.8086,3.7793,3.7559,3.7559,3.7559,3.7559,3.7559,3.7109,3.6777,3.6777,3.6309,3.5996,3.5996,3.5996,3.5996,3.5996,3.5996,3.5996,3.5996,3.5996,3.5996,3.5996,3.5975,3.5975,3.5996,3.5975,3.5975,3.5996,3.5996,3.5996,3.3821,3.4648,3.5187,3.5443,3.4193,3.2877,3.2682,3.0236,2.7931,2.7679,2.6537,2.5561,2.5561,2.5806,2.6507,2.7991,2.8706,3.0175,3.3339,3.4531,3.5957,3.8299,4.0366,4.2042,4.3156,4.5068,4.6238,4.6209,4.6237,4.624,4.624,4.624,4.6265,4.6308,4.6308,4.6308,4.6308,4.6288,4.6267,4.6267,4.6243,4.621,4.6145,4.5686,4.5118,4.4428,4.3318,4.2479,4.1874,4.1306,4.1033,4.099,4.099,4.096,4.092,4.0873,4.0862,4.0862,4.0862,4.0893,4.0928,4.0928,4.0968,4.099,4.099,4.099,4.1007,4.0986,4.0974,4.0997,4.1014,4.1068,4.1116,4.1171,4.1191,4.1035,4.043,4.0273,4.0098,3.9492,3.9375,3.9297,3.9023,3.9199,3.9199,3.8672,3.8828,3.8887,3.8633,3.8066,3.7676,3.7676,3.6894,3.6289,3.6016,3.5996,3.5996,3.5996,3.5996,3.5996,3.5996,3.5996,3.5996,3.5996,3.5996,3.5996,3.5996,3.5996,3.5996,3.5996,3.5996,3.6133,3.3519,3.4199,3.4411,3.5271,3.4237,3.2798,3.1984,2.9833,2.7778,2.6986,2.6217,2.5706,2.5706,2.6403,2.7266,2.8164,2.9746,3.1777,3.4336,3.5449,3.662,3.8302,3.9234,4.0386,4.2052,4.4562,4.6068,4.6012,4.6056,4.6102,4.6102,4.6102,4.6158,4.6308,4.6308,4.6308,4.6308,4.6238,4.6204,4.6202,4.6134,4.6102,4.6043,4.4309,4.351,4.3413,4.1753,4.1013,4.1013,4.0994,4.099,4.099,4.099,4.099,4.101,4.101,4.101,4.101,4.101,4.101,4.099,4.099,4.099,4.099,4.099,4.099,4.0997,4.0915,4.0953,4.1025,4.108,4.1109,4.1116,4.1171,4.1191,4.1191,4.1191,4.1191,4.1172,4.1172,4.1172,4.0898,4.0039,4.0605,4.0586,3.8867,3.9336,3.957,3.8711,3.8594,3.8594,3.8594,3.7812,3.6934,3.6074,3.5996,3.5996,3.5996,3.5996,3.5996,3.5996,3.5996,3.5996,3.5996,3.5996,3.5996,3.5996,3.5996,3.5996,3.5996,3.5996,3.6465,3.056,3.1611,3.2419,3.2154,3.1674,3.1076,3.0262,2.9072,2.7905,2.7032,2.6251,2.5702,2.5702,2.5937,2.6973,2.9648,3.0547,3.1777,3.4287,3.5886,3.7009,3.7496,4.036,4.2961,4.4699,4.5615,4.6091,4.6064,4.6087,4.6098,4.6098,4.6098,4.6122,4.6158,4.616,4.616,4.616,4.6142,4.6134,4.6131,4.6112,4.6072,4.6012,4.5511,4.4608,4.3393,4.2877,4.1982,4.0932,4.0932,4.0893,4.0877,4.0906,4.0893,4.0867,4.0867,4.0867,4.0867,4.0867,4.0867,4.0867,4.0807,4.0796,4.0796,4.074,4.0844,4.0984,4.091,4.0948,4.0994,4.0967,4.0998,4.1047,4.1061,4.1066,4.1074,4.1117,4.1122,4.1145,4.1191,4.1191,4.1113,4.084,4.1016,4.1016,4.0469,4.0605,4.0684,4.041,3.9863,3.9492,3.9492,3.8711,3.7832,3.6953,3.6348,3.5996,3.5996,3.5996,3.5996,3.5996,3.5996,3.5996,3.5996,3.5996,3.5996,3.5996,3.6601,3.7187,3.7773,3.7773,3.8242,2.8944,2.9962,3.0727,3.0569,3.0296,2.9924,2.944,2.8496,2.7552,2.7008,2.6264,2.5801,2.6133,2.6465,2.75,3.0,3.0684,3.1776,3.4256,3.5521,3.667,3.7897,4.0941,4.3495,4.4914,4.5614,4.5979,4.5979,4.5979,4.5979,4.5979,4.5979,4.5979,4.5979,4.6068,4.6098,4.6098,4.6068,4.6052,4.6052,4.6017,4.5963,4.5916,4.5657,4.4928,4.3823,4.3156,4.2283,0.0,4.0983,4.0843,4.0803,4.0829,4.0806,4.0752,4.072,4.072,4.072,4.072,4.072,4.0713,4.0687,4.0661,4.0654,4.0621,4.0723,4.0834,4.0801,4.0834,4.0872,4.0874,4.0918,4.0976,4.0984,4.099,4.1003,4.1059,4.1044,4.1055,4.1146,4.1401,4.1539,4.125,4.1719,4.1933,4.1308,4.1465,4.1543,4.123,4.0723,4.0391,4.0391,3.9609,3.8867,3.832,3.7187,3.6484,3.6484,3.6172,3.5996,3.5996,3.6328,3.6484,3.6484,3.6816,3.6973,3.6973,3.7539,3.8066,3.8613,3.8945,3.9375,0.0,2.8937,2.9215,3.002,2.9679,2.913,2.9143,2.7982,0.0,2.6836,2.6226,2.5996,2.6914,2.7695,2.8574,2.9687,3.0547,3.1931,3.4426,3.4885,3.6153,3.9388,4.1147,4.2434,4.3305,4.4852,4.5807,4.5807,4.5807,4.5807,4.5807,4.5807,4.5807,4.5807,4.5974,4.6084,4.6084,4.6018,4.5986,4.5986,4.5867,4.5807,4.5768,4.5019,4.4652,4.4497,4.2815,4.2041,4.1944,4.1119,4.079,4.079,4.0726,4.0694,4.0694,4.0621,4.0595,4.0595,4.0595,4.0595,4.0595,4.0607,4.0607,4.0588,4.0588,4.0607,4.0595,4.0607,4.0628,4.0707,4.0782,4.0829,4.0897,4.096,4.0974,4.0997,4.0984,4.0935,4.0932,4.1076,4.1702,4.1984,4.1307,4.248,4.2988,4.1426,4.1836,4.2031,4.1308,4.1191,4.1191,4.1191,4.0488,3.998,3.998,3.8398,3.7383,3.7383,3.6621,3.6172,3.6172,3.6953,3.7383,3.7383,3.8184,3.8633,3.8691,3.8691,3.8711,3.8809,3.9629,3.998,2.5031,0.0,2.7255,2.6806,2.7077,2.7305,0.0,2.6787,2.6796,2.6112,2.584,2.6172,2.7715,2.7617,2.8457,3.1934,3.2671,3.3685,3.616,3.758,3.912,4.1187,4.2351,4.3343,4.4207,4.52,4.5807,4.5807,4.5807,4.5807,4.5807,4.5807,4.5807,4.5807,4.5848,4.5866,4.5866,4.5854,4.5854,4.5854,4.5821,4.5807,4.5787,4.5597,4.5158,4.4455,4.339,4.256,4.1924,4.1015,4.0674,4.0726,4.0654,4.0621,4.0621,4.0614,4.0595,4.0595,4.0595,4.0595,4.0607,4.0591,4.0569,4.0527,4.0527,4.0564,4.0607,4.0591,4.0612,4.0621,4.0647,4.0694,4.0745,4.0775,4.0804,4.0867,4.0906,4.0915,4.0921,4.1003,4.1187,4.1248,4.1069,4.1415,4.1587,4.1177,4.1326,4.1406,4.1211,4.1191,4.1191,4.1191,4.1016,4.0898,4.0898,3.9297,3.8281,3.8281,3.8105,3.7988,3.7988,3.8184,3.8281,3.8281,3.8496,3.8926,3.959,3.959,3.9941,4.0586,4.0801,4.0898,2.3418,2.4901,2.6196,2.6145,2.6515,2.6784,2.6381,2.6347,2.6269,2.5801,2.6016,2.6719,2.8047,2.8533,2.9623,3.2358,3.343,3.4789,3.7295,3.9058,4.0565,4.1854,4.2763,4.3634,4.4516,4.5336,4.5807,4.5807,4.5807,4.5807,4.5807,4.5807,4.5807,4.5807,4.5807,4.5807,4.5807,4.5807,4.5807,4.5807,4.5805,4.5798,4.5798,4.5781,4.5507,4.4997,4.4126,4.3508,4.3002,4.1714,4.1212,4.1207,4.0766,4.0605,4.0598,4.0564,4.0537,4.0537,4.0537,4.0537,4.0557,4.0554,4.0531,4.0496,4.0496,4.0527,4.0557,4.0554,4.0576,4.0598,4.0595,4.0631,4.0654,4.0654,4.0674,4.0733,4.0798,4.0784,4.0798,4.0921,4.0933,4.0922,4.0984,4.102,4.104,4.104,4.1114,4.1147,4.1147,4.1171,4.1191,4.1191,4.1191,4.1191,4.1191,4.0332,3.9629,3.9219,3.8828,3.8594,3.8594,3.8984,3.9375,3.9785,3.9785,4.0039,4.0508,4.0508,4.0742,4.1191,4.1191,4.1191,2.2882,2.4333,2.5712,2.6523,2.6829,2.6907,2.6816,2.623,2.5742,2.5879,2.6484,2.7344,2.8476,2.9951,3.1318,3.231,3.3946,3.5884,3.8152,3.9818,4.1048,4.1738,4.2589,4.3401,4.413,4.5065,4.5633,4.5633,4.5729,4.5807,4.5807,4.5807,4.5807,4.5807,4.58,4.58,4.58,4.58,4.58,4.5793,4.5795,4.5781,4.5773,4.5735,4.57,4.5653,4.477,4.4384,4.4268,4.2591,4.1897,4.18,4.0942,4.058,4.0573,4.0523,4.0496,4.0496,4.0496,4.0496,4.0496,4.0496,4.0496,4.0496,4.0496,4.0496,4.0496,4.0496,4.0539,4.058,4.058,4.0591,4.06,4.06,4.0614,4.0628,4.0694,4.0661,4.0681,4.0858,4.0844,4.0845,4.0945,4.0986,4.0974,4.0974,4.103,4.1081,4.1081,4.1144,4.1171,4.1171,4.1191,4.1191,4.1191,4.1191,4.0879,4.0156,3.9414,3.9004,3.9004,3.9707,4.0449,4.1191,4.1191,4.1191,4.1191,4.1191,4.1191,4.1191,4.1191,4.1191,2.3467,2.4865,2.5704,2.5859,2.6439,2.6797,2.6074,2.5801,2.5918,2.6641,2.6914,2.7695,2.9989,3.1227,3.2383,3.3892,3.616,3.8093,3.9168,4.0164,4.0855,4.0971,4.1699,4.2241,4.2396,4.3846,4.4775,4.4775,4.5413,4.5807,4.5807,4.5807,4.5807,4.5807,4.5791,4.5795,4.5795,4.5795,4.5795,4.5795,4.5739,4.5715,4.5715,4.5695,4.569,4.5651,4.4724,4.435,4.4267,4.2533,4.1855,4.1809,4.0885,4.0523,4.0504,4.0496,4.0496,4.0496,4.0496,4.0496,4.0496,4.0496,4.0496,4.0496,4.0496,4.0496,4.0496,4.0496,4.0516,4.0523,4.0523,4.0554,4.0595,4.0595,4.0646,4.0694,4.0694,4.0739,4.079,4.0821,4.0802,4.0802,4.0831,4.0873,4.093,4.093,4.0963,4.1025,4.1025,4.1074,4.1116,4.1116,4.1169,4.1191,4.1191,4.1191,4.1133,4.1016,4.0879,4.0801,4.0801,4.0937,4.1055,4.1191,4.1191,4.1191,4.1191,4.1191,4.1191,4.1191,4.1191,4.1191,2.3072,2.4306,2.5214,2.6113,2.736,2.8234,2.7792,2.734,2.7241,2.8118,2.8664,2.9497,3.1092,3.2842,3.475,3.6859,3.818,3.9237,4.0087,4.0545,4.0797,4.0797,4.1506,4.2009,4.2009,4.315,4.3904,4.3904,4.4233,4.4446,4.4446,4.4851,4.5095,4.5095,4.5522,4.5758,4.5758,4.5754,4.5522,4.5101,4.5036,4.4993,4.4993,4.4952,4.5197,4.562,4.5199,4.5026,4.4919,4.3209,4.2516,4.2406,4.1043,4.0496,4.0496,4.0496,4.0496,4.0496,4.0496,4.0496,4.0496,4.0496,4.0496,4.0496,4.0496,4.0496,4.0496,4.0496,4.0496,4.0516,4.0539,4.0573,4.0595,4.0598,4.0626,4.0661,4.0694,4.0713,4.0752,4.079,4.0797,4.0797,4.0797,4.0825,4.084,4.084,4.0893,4.0949,4.0949,4.0997,4.1054,4.1054,4.1072,4.1083,4.1083,4.1083,4.1117,4.1191,4.1191,4.1191,4.1191,4.1191,4.1191,4.1191,4.1191,4.1191,4.1191,4.1191,4.1191,4.1191,4.1191,4.1191,2.2881,2.3885,2.4843,2.6723,2.8069,2.9003,2.9325,2.8734,2.8483,2.9727,3.0531,3.1248,3.203,3.4252,3.675,3.9126,3.9669,4.0011,4.07,4.0797,4.0797,4.0797,4.1332,4.1719,4.1719,4.2492,4.2995,4.2995,4.3163,4.3272,4.3272,4.3856,4.4201,4.4201,4.4782,4.5094,4.5094,4.5093,4.4881,4.4477,4.441,4.4278,4.4078,4.4045,4.4374,4.5017,4.5017,4.5017,4.4902,4.3412,4.2797,4.2643,4.1112,4.0496,4.0496,4.0496,4.0496,4.0496,4.0496,4.0496,4.0496,4.0496,4.0496,4.0496,4.0496,4.0496,4.0496,4.0523,4.0531,4.0531,4.06,4.0607,4.0595,4.06,4.0614,4.0647,4.0694,4.0707,4.0739,4.079,4.0797,4.0797,4.0797,4.0797,4.0797,4.0797,4.0834,4.0873,4.0873,4.0937,4.0986,4.0986,4.0981,4.099,4.099,4.099,4.103,4.1145,4.1169,4.1169,4.1147,4.1171,4.1191,4.1171,4.1191,4.1191,4.1191,4.1191,4.1191,4.1191,4.1191,4.1191,2.3613,2.4355,2.4999,2.7484,2.7631,2.7573,2.9058,2.8762,2.8858,3.1222,3.1815,3.2126,3.2881,3.5102,3.7402,3.921,4.0127,4.0655,4.0771,4.0797,4.0797,4.0797,4.0855,4.0893,4.0893,4.1622,4.2086,4.2086,4.2795,4.3206,4.3206,4.326,4.3296,4.3296,4.3297,4.3293,4.3293,4.3283,4.3657,4.441,4.435,4.3921,4.319,4.3181,4.322,4.3278,4.3278,4.3278,4.3201,4.2277,4.1885,4.1797,4.0854,4.0496,4.0496,4.0496,4.0496,4.0496,4.0496,4.0496,4.0496,4.0496,4.0496,4.0496,4.0496,4.0496,4.0504,4.0573,4.058,4.058,4.0607,4.0607,4.0595,4.06,4.0654,4.0694,4.07,4.0746,4.079,4.0797,4.0797,4.0797,4.0797,4.0797,4.0797,4.0797,4.0803,4.0809,4.0809,4.0872,4.0917,4.0917,4.0953,4.099,4.099,4.099,4.0997,4.1006,4.1074,4.1078,4.1028,4.1122,4.117,4.1112,4.1169,4.1191,4.1191,4.1191,4.1191,4.1191,4.1191,4.1191,2.2421,2.3571,2.4829,2.6874,2.7548,2.8125,2.9771,3.0338,3.1057,3.2985,3.3408,3.3848,3.5217,3.6219,3.7418,3.9148,3.9683,4.0089,4.0662,4.0759,4.0797,4.0797,4.0797,4.0797,4.0797,4.1042,4.1184,4.1184,4.1427,4.1581,4.1581,4.2104,4.2391,4.2391,4.2845,4.3091,4.3091,4.3094,4.2997,4.2783,4.2766,4.2585,4.2297,4.2297,4.2585,4.3104,4.3104,4.3104,4.3028,4.2162,4.1788,4.1712,4.0835,4.0496,4.0496,4.0496,4.0496,4.0496,4.0496,4.0496,4.0496,4.0496,4.0496,4.0496,4.0496,4.0496,4.0516,4.0531,4.0539,4.0554,4.0639,4.066,4.0666,4.0707,4.0746,4.0752,4.0752,4.0784,4.0797,4.0797,4.0797,4.0797,4.0797,4.0797,4.0797,4.0797,4.0797,4.0797,4.0797,4.082,4.0848,4.0848,4.0867,4.0888,4.0888,4.0888,4.0888,4.0888,4.099,4.1037,4.0994,4.1054,4.1066,4.1047,4.109,4.1143,4.1143,4.1171,4.1191,4.1191,4.1191,4.1191,2.203,2.3268,2.4712,2.6442,2.7692,2.8938,3.0599,3.1463,3.2438,3.4289,3.4704,3.5244,3.6948,3.725,3.7694,3.9168,3.9612,3.9991,4.0584,4.0707,4.0746,4.0746,4.0746,4.0746,4.0746,4.07,4.0661,4.0661,4.0633,4.0552,4.0481,4.1038,4.1316,4.1238,4.1768,4.2056,4.2056,4.2129,4.1841,4.1166,4.1247,4.1336,4.1393,4.1393,4.172,4.2277,4.2277,4.2277,4.222,4.1643,4.1393,4.1335,4.0727,4.0496,4.0496,4.0496,4.0496,4.0496,4.0496,4.0496,4.0496,4.0496,4.0496,4.0496,4.0496,4.0496,4.0496,4.0531,4.0531,4.0554,4.064,4.0661,4.0694,4.0752,4.0784,4.0797,4.0797,4.0797,4.0797,4.0797,4.0797,4.0797,4.0797,4.0797,4.0797,4.0797,4.0797,4.0797,4.0797,4.0797,4.0797,4.0797,4.0797,4.0797,4.0797,4.0797,4.0797,4.0797,4.0888,4.0941,4.0941,4.0986,4.0981,4.0979,4.1025,4.107,4.107,4.1115,4.1142,4.1142,4.1168,4.1169,2.2845,2.3685,2.4691,2.6389,2.8128,2.9825,3.1456,3.1873,3.26,3.5021,3.5567,3.6112,3.7784,3.8105,3.8375,3.9269,4.007,4.0583,4.0607,4.0595,4.0595,4.0595,4.0595,4.0595,4.0595,4.0595,4.0588,4.0607,4.061,4.0473,4.0211,4.0204,4.0072,3.9808,3.9808,3.9808,3.9808,4.0062,4.0062,3.9808,4.0062,4.0304,4.0489,4.0489,4.0489,4.0496,4.0496,4.0496,4.0496,4.0496,4.0496,4.0496,4.0496,4.0496,4.0496,4.0496,4.0496,4.0496,4.0496,4.0496,4.0496,4.0496,4.0496,4.0496,4.0496,4.0496,4.0504,4.058,4.0607,4.0595,4.06,4.0595,4.0621,4.0668,4.0746,4.0797,4.0797,4.0797,4.0797,4.0797,4.0797,4.0797,4.0797,4.0797,4.0797,4.0797,4.0797,4.0797,4.0797,4.0797,4.0797,4.0797,4.0797,4.0797,4.0797,4.0797,4.0797,4.0797,4.0797,4.0797,4.0797,4.0928,4.0976,4.0907,4.0953,4.099,4.099,4.099,4.099,4.0994,4.107,4.1108,2.2185,2.3212,2.4797,2.7199,2.8949,3.0713,3.3025,3.3616,3.4182,3.6036,3.642,3.6768,3.7821,3.8038,3.8313,3.9189,3.9528,3.9894,4.0506,4.0593,4.0595,4.0595,4.0595,4.0595,4.0595,4.0605,4.0519,4.0323,4.0311,4.0204,3.9934,3.9913,3.9872,3.9808,3.9808,3.9808,3.9808,3.9872,3.9872,3.9808,3.9872,3.9953,4.0004,4.0004,4.0101,4.0286,4.0286,4.0364,4.0496,4.0496,4.0496,4.0496,4.0496,4.0496,4.0496,4.0496,4.0496,4.0496,4.0496,4.0496,4.0496,4.0496,4.0496,4.0496,4.0496,4.0496,4.0496,4.0531,4.0531,4.0531,4.0527,4.0569,4.0624,4.0687,4.0726,4.0739,4.079,4.0797,4.0784,4.0739,4.0733,4.0733,4.0733,4.0733,4.0746,4.079,4.0797,4.0784,4.0739,4.0778,4.0759,4.0668,4.07,4.0707,4.0668,4.0661,4.0661,4.0661,4.0661,4.0707,4.079,4.0848,4.0846,4.0831,4.0903,4.0928,4.0928,4.0937,4.0935,4.0938,4.0958,4.125,2.3125,2.4219,2.5729,2.7987,2.9763,3.1634,3.4185,3.4814,3.5197,3.6497,3.651,3.6748,3.8236,3.8229,3.8395,3.9584,3.9776,3.9969,4.0488,4.0549,4.0564,4.0564,4.0492,4.0477,4.0545,4.0386,4.0267,4.0203,4.0101,3.9951,3.9694,3.9683,3.9637,3.9531,3.9512,3.9512,3.9512,3.9637,3.9637,3.9512,3.9637,3.9625,3.9531,3.972,3.9901,4.0042,4.0042,4.0157,4.0372,4.0372,4.0433,4.0496,4.0496,4.0496,4.0496,4.0496,4.0496,4.0496,4.0496,4.0496,4.0496,4.0496,4.0496,4.0496,4.0496,4.0496,4.0496,4.0496,4.0496,4.0496,4.0496,4.0531,4.058,4.0639,4.0666,4.0668,4.0713,4.0713,4.0707,4.0668,4.0661,4.0661,4.0661,4.0661,4.0668,4.0713,4.0713,4.0707,4.0661,4.07,4.07,4.0614,4.0956,4.1168,4.1128,4.1437,4.1629,4.1629,4.1301,4.1149,4.1228,4.0907,4.0713,4.0713,4.0756,4.0771,4.0771,4.0786,4.0772,4.0791,4.1159,4.1591,2.4878,2.5937,2.7035,2.8881,3.0755,3.2722,3.4982,3.5489,3.5731,3.6546,3.6111,3.6337,3.8746,3.8594,3.8621,4.0131,4.0458,4.0496,4.0496,4.0496,4.0489,4.0473,4.0313,4.0269,4.0414,4.0062,3.9882,4.012,3.9912,3.9683,3.9471,3.9458,3.935,3.9115,3.9101,3.9101,3.9101,3.935,3.935,3.9101,3.935,3.9337,3.9096,3.9536,3.9754,3.9775,3.9797,3.9943,4.0158,4.0158,4.0258,4.043,4.043,4.043,4.043,4.0465,4.0473,4.0473,4.0473,4.0481,4.0496,4.0481,4.0481,4.0496,4.0496,4.0489,4.0473,4.0473,4.0465,4.043,4.043,4.043,4.0457,4.0508,4.0557,4.0607,4.0595,4.0595,4.0595,4.0607,4.0607,4.0607,4.0607,4.0607,4.0607,4.0595,4.0595,4.0588,4.0607,4.0607,4.0626,4.0696,4.1422,4.1923,4.1993,4.2745,4.3189,4.3189,4.2456,4.2013,4.2013,4.1101,4.0595,4.0595,4.0595,4.0595,4.0595,4.0607,4.0646,4.0742,4.1583,4.2077,2.4275,2.5093,2.6571,3.0298,3.2981,3.4847,3.5386,3.5507,3.5738,3.6593,3.6605,3.6822,3.8046,3.8688,3.9138,3.9496,4.0092,4.0496,4.0496,4.0496,4.0449,4.0286,4.0233,4.012,3.9983,3.9861,3.9772,3.9663,3.9604,3.9458,3.9192,3.9197,3.917,3.9101,3.9101,3.9101,3.9101,3.917,3.917,3.9101,3.917,3.917,3.9101,3.92,3.937,3.9561,3.972,3.9829,3.9901,3.9901,3.9903,3.9944,3.9944,3.9944,3.9983,4.0195,4.0269,4.0269,4.0269,4.0364,4.0473,4.0313,4.0364,4.0496,4.0496,4.0381,4.0269,4.0269,4.012,3.9944,3.9944,3.9944,3.9954,3.9964,4.0302,4.0591,4.0607,4.0595,4.06,4.061,4.0603,4.0603,4.0603,4.0603,4.0591,4.0607,4.0595,4.06,4.0603,4.0593,4.0836,4.1463,4.1755,4.2167,4.2783,4.3014,4.311,4.311,4.2956,4.284,4.284,4.1407,4.0595,4.0595,4.0595,4.0595,4.0595,4.0598,4.0949,4.1624,4.1834,4.2598,2.4506,2.5688,2.7528,3.1367,3.33,3.4462,3.5308,3.55,3.5622,3.6085,3.6149,3.6385,3.7219,3.7757,3.818,3.8604,3.9272,3.9786,3.9904,4.0062,4.0176,4.0205,4.0011,3.9857,3.9808,3.9595,3.9458,3.9514,3.9389,3.9245,3.9115,3.9101,3.9101,3.9101,3.9101,3.9101,3.9101,3.9101,3.9101,3.9101,3.9101,3.9101,3.9101,3.9101,3.9183,3.9305,3.9427,3.9531,3.9648,3.9648,3.9717,3.9808,3.9808,3.9808,3.9819,3.9953,4.0012,4.0012,4.0012,4.0091,4.0138,4.0033,4.0072,4.0157,4.0157,4.0082,4.0012,4.0012,3.9912,3.9808,3.9808,3.9808,3.9808,3.9808,4.0023,4.0239,4.0378,4.0403,4.0438,4.0531,4.0546,4.0546,4.0546,4.0546,4.0554,4.0557,4.0557,4.0549,4.0546,4.0542,4.0927,4.1901,4.2513,4.3071,4.3624,4.4066,4.4297,4.4297,4.3912,4.3662,4.3662,4.2471,4.1801,4.1801,4.1397,4.1166,4.1166,4.0766,4.1001,4.1867,4.2271,4.3129,2.4587,2.6515,2.8876,3.2102,3.3006,3.3545,3.5135,3.55,3.5493,3.5465,3.5479,3.5692,3.6365,3.6575,3.6887,3.7605,3.8248,3.8714,3.8933,3.9223,3.9454,3.9633,3.9452,3.9331,3.9456,3.9251,3.9192,3.9408,3.9219,3.9101,3.9101,3.9101,3.9101,3.9101,3.9101,3.9101,3.9101,3.9101,3.9101,3.9101,3.9101,3.9101,3.9101,3.9101,3.9101,3.9101,3.9101,3.9219,3.9439,3.9439,3.9525,3.9675,3.9675,3.9675,3.9687,3.9731,3.9742,3.9742,3.9742,3.9765,3.9797,3.9754,3.9775,3.9808,3.9808,3.9775,3.9742,3.9742,3.9709,3.9675,3.9675,3.9675,3.9675,3.9675,3.9675,3.9754,4.0062,4.0129,4.0186,4.0356,4.0414,4.0465,4.0489,4.0496,4.0496,4.0496,4.0496,4.0496,4.0496,4.0669,4.1227,4.2362,4.3382,4.4132,4.4489,4.519,4.5594,4.5594,4.4913,4.4509,4.4509,4.3893,4.3528,4.3528,4.2547,4.1942,4.1788,4.1085,4.1162,4.2038,4.2758,4.3605,2.305,2.6068,2.9588,3.2237,3.3468,3.4295,3.5269,3.55,3.5446,3.5293,3.5369,3.5538,3.5635,3.609,3.6474,3.6589,3.7175,3.7604,3.7652,3.7679,3.7654,3.7453,3.8051,3.8371,3.8169,3.8728,3.9115,3.9137,3.9129,3.9101,3.9101,3.9101,3.9101,3.9101,3.9101,3.9101,3.9101,3.9101,3.9101,3.9101,3.9101,3.9101,3.9101,3.9101,3.9101,3.9101,3.9101,3.9129,3.9137,3.9137,3.9165,3.9187,3.9187,3.9187,3.9213,3.9458,3.9544,3.9544,3.9544,3.9648,3.9775,3.9597,3.9648,3.9808,3.9808,3.9683,3.9544,3.9544,3.937,3.9187,3.9187,3.9187,3.9187,3.9187,3.9187,3.9313,3.9754,3.9851,3.9861,3.9893,4.0081,4.0295,4.0473,4.0496,4.0496,4.0496,4.0496,4.0496,4.0496,4.1362,4.242,4.3555,4.4017,4.4566,4.5364,4.5537,4.5594,4.5594,4.5498,4.5441,4.5441,4.5325,4.5267,4.5267,4.372,4.2547,4.1788,4.1673,4.2066,4.2931,4.3047,4.3932,2.4404,2.6323,2.8544,3.2025,3.3179,3.3833,3.5192,3.5417,3.5316,3.5218,3.5193,3.5157,3.5157,3.5384,3.5559,3.5559,3.6091,3.6539,3.6652,3.6861,3.7024,3.699,3.7236,3.7361,3.7238,3.7949,3.8432,3.8432,3.8841,3.9101,3.9101,3.9101,3.9101,3.9101,3.9101,3.9101,3.9101,3.9101,3.9101,3.9101,3.9101,3.9101,3.9101,3.9101,3.9101,3.9101,3.9101,3.9101,3.9101,3.9101,3.9101,3.9101,3.9101,3.9101,3.9115,3.9232,3.9272,3.9272,3.9272,3.9344,3.9402,3.9292,3.9344,3.9414,3.9414,3.9357,3.9272,3.9272,3.9192,3.9101,3.9101,3.9101,3.9101,3.9101,3.9101,3.9319,4.0169,4.0334,4.0479,4.1079,4.1411,4.1523,4.1226,4.1321,4.1247,4.0593,4.0496,4.1189,4.3113,4.3805,4.4306,4.4806,4.496,4.519,4.5575,4.5594,4.5594,4.5594,4.5594,4.5594,4.5594,4.5594,4.5594,4.5594,4.4393,4.3355,4.2527,4.2527,4.2739,4.3104,4.3566,4.4432,2.5129,2.5972,2.6981,3.1155,3.2359,3.296,3.4633,3.5062,3.5107,3.5063,3.4936,3.4792,3.4723,3.4772,3.4812,3.4812,3.5136,3.5462,3.56,3.5883,3.6124,3.6274,3.6342,3.6402,3.6402,3.7113,3.7596,3.7596,3.8154,3.8488,3.8488,3.8674,3.8804,3.8804,3.899,3.9101,3.9101,3.9101,3.9101,3.9101,3.9101,3.9101,3.9101,3.9101,3.9101,3.9101,3.9101,3.9101,3.9101,3.9101,3.9101,3.9101,3.9101,3.9101,3.9101,3.9101,3.9101,3.9101,3.9101,3.9101,3.9101,3.9101,3.9101,3.9101,3.9101,3.9101,3.9101,3.9101,3.9101,3.9101,3.9101,3.9101,3.9101,3.9101,3.9268,3.9658,4.0508,4.0826,4.1171,4.2026,4.236,4.2332,4.1793,4.1741,4.1477,4.0631,4.1247,4.2728,4.5267,4.5594,4.5594,4.5594,4.5594,4.5594,4.5594,4.5594,4.5594,4.5594,4.5594,4.5594,4.5594,4.5594,4.5594,4.5594,4.496,4.422,4.3393,4.3393,4.3393,4.3412,4.4028,4.4759,2.3533,2.423,2.5197,2.9232,3.0873,3.1878,3.3358,3.4329,3.487,3.4668,3.4615,3.4539,3.4281,3.4431,3.4623,3.4623,3.4423,3.4277,3.4301,3.4314,3.4339,3.4333,3.5064,3.5566,3.5566,3.629,3.6773,3.6773,3.6811,3.6829,3.6829,3.7541,3.7949,3.7949,3.8692,3.9101,3.9101,3.9101,3.9101,3.9101,3.9101,3.9101,3.9101,3.9101,3.9101,3.9101,3.9101,3.9101,3.9101,3.9101,3.9101,3.9101,3.9101,3.9101,3.9101,3.9101,3.9101,3.9101,3.9101,3.9101,3.9101,3.9101,3.9101,3.9101,3.9101,3.9101,3.9101,3.9101,3.9101,3.9101,3.9101,3.9101,3.9101,3.9101,3.9733,4.036,4.0416,4.101,4.1632,4.1871,4.1937,4.1889,4.174,4.1089,4.0573,4.0516,4.3267,4.5402,4.5575,4.5594,4.5594,4.5594,4.5594,4.5594,4.5594,4.5594,4.5594,4.5594,4.5594,4.5594,4.5594,4.5594,4.5594,4.5594,4.5556,4.5114,4.4239,4.4239,4.4239,4.4239,4.4278,4.4759,2.2733,2.3667,2.4846,2.7911,2.9634,3.0851,3.1932,3.2662,3.3089,3.3009,3.2893,3.2769,3.2678,3.3573,3.434,3.434,3.4257,3.4197,3.4197,3.4197,3.4197,3.4197,3.4488,3.4674,3.4674,3.5436,3.5937,3.5937,3.642,3.6699,3.6699,3.6965,3.7145,3.7145,3.7411,3.7801,3.8321,3.8841,3.9101,3.9101,3.9101,3.9101,3.9101,3.9101,3.9101,3.9101,3.9101,3.9101,3.9101,3.9101,3.9101,3.9101,3.9101,3.9101,3.9101,3.9101,3.9101,3.9101,3.9101,3.9101,3.9101,3.9101,3.9101,3.9101,3.9101,3.9101,3.9101,3.9101,3.9101,3.9101,3.9101,3.9101,3.9101,3.9101,3.9914,4.075,4.1089,4.1794,4.253,4.3137,4.34,4.3431,4.3202,4.3218,4.3137,4.2794,4.4368,4.5513,4.5321,4.5467,4.5594,4.5594,4.5594,4.5594,4.5594,4.5594,4.5594,4.5594,4.5594,4.5594,4.5594,4.5594,4.5594,4.5594,4.5594,4.5171,4.4297,4.4855,4.4855,4.4316,4.4874,4.5306,2.1985,2.2797,2.3885,2.6669,2.8096,2.9246,3.0833,3.1429,3.1728,3.1948,3.1885,3.1794,3.1794,3.2667,3.3473,3.3751,3.3788,3.3881,3.416,3.4197,3.4197,3.4197,3.4197,3.4197,3.4197,3.4729,3.5064,3.5064,3.5566,3.585,3.585,3.6142,3.642,3.6686,3.6946,3.7355,3.7894,3.8692,3.9101,3.9101,3.9101,3.9101,3.9101,3.9101,3.9101,3.9101,3.9101,3.9101,3.9101,3.9101,3.9101,3.9101,3.9101,3.9101,3.9101,3.9101,3.9101,3.9101,3.9101,3.9101,3.9101,3.9101,3.9101,3.9101,3.9101,3.9101,3.9101,3.9101,3.9101,3.9101,3.9101,3.9101,3.9175,3.9472,4.0118,4.0843,4.146,4.2222,4.3039,4.3838,4.4151,4.4206,4.4017,4.4294,4.4402,4.4048,4.4714,4.5169,4.4957,4.5159,4.5332,4.5332,4.541,4.5429,4.5342,4.5495,4.5568,4.5476,4.5559,4.5594,4.5594,4.5594,4.5594,4.5594,4.5594,4.5325,4.4739,4.5325,4.5306,4.4739,4.5325,4.5594,0.0,0.0,0.0,2.5421,2.6251,2.7065,3.001,3.0677,3.0878,3.1559,3.1682,3.1701,3.1719,3.1738,3.1998,3.2797,3.2983,3.328,3.4086,3.4197,3.4197,3.4197,3.4197,3.4197,3.4197,3.4197,3.4197,3.4197,3.4197,3.4197,3.4197,3.5008,3.5826,3.6593,3.7411,3.7819,3.7819,3.8655,3.9064,3.9064,3.9082,3.9101,3.9101,3.9101,3.9101,3.9101,3.9101,3.9101,3.9101,3.9101,3.9101,3.9101,3.9101,3.9101,3.9101,3.9101,3.9101,3.9101,3.9101,3.9101,3.9101,3.9101,3.9101,3.9101,3.9101,3.9101,3.9101,3.9101,3.9101,3.9101,3.9101,3.9101,3.9305,4.016,4.0346,4.0583,4.1386,4.2184,4.2965,4.3801,4.3986,4.4005,4.4005,4.4005,4.4005,4.4005,4.4341,4.4589,4.4589,4.4707,4.4788,4.4788,4.503,4.5085,4.4812,4.5282,4.5476,4.5211,4.5438,4.5586,4.5594,4.5594,4.5594,4.5594,4.5594,4.5594,4.5594,4.5594,4.5594,4.5594,4.5594,4.5594,2.0577,0.0,0.0,0.0,0.0,0.0,2.735,2.7854,2.8343,2.912,2.918,2.9322,2.9954,3.0065,3.0326,3.1125,3.224,3.328,3.4086,3.4197,3.4197,3.4197,3.4197,3.4197,3.4197,3.4197,3.4197,3.4197,3.4197,3.4197,3.4197,3.442,3.4674,3.4884,3.5733,3.616,3.616,3.7541,3.8228,3.8228,3.8822,3.9101,3.9101,3.9101,3.9101,3.9101,3.9101,3.9101,3.9101,3.9101,3.9101,3.9101,3.9101,3.9101,3.9101,3.9101,3.9101,3.9101,3.9101,3.9101,3.9101,3.9101,3.9101,3.9101,3.9101,3.9101,3.9101,3.9101,3.9101,3.9101,3.9101,3.9101,3.9157,3.9398,3.9454,3.9677,4.0564,4.0903,4.146,4.2853,4.3596,4.4005,4.4005,4.4005,4.4005,4.4005,4.4341,4.4562,4.4476,4.4669,4.4788,4.4788,4.4879,4.4872,4.48,4.4938,4.5074,4.5201,4.5263,4.54,4.5586,4.5594,4.5594,4.5594,4.5594,4.5594,4.5594,4.5594,4.5594,4.5594,4.5594,4.5594,2.0808,2.1504,2.2504,2.3581,0.0,0.0,2.6555,2.6711,2.6975,2.8007,2.8146,2.8374,2.9229,2.9396,2.9657,3.0474,3.1385,3.2407,3.3528,3.3993,3.4197,3.4197,3.4197,3.4197,3.4197,3.4197,3.4197,3.4197,3.4197,3.4197,3.4197,3.4197,3.4197,3.4197,3.5045,3.551,3.551,3.6773,3.7392,3.7411,3.7856,3.8098,3.8098,3.8451,3.8599,3.8618,3.8952,3.9101,3.9101,3.9101,3.9101,3.9101,3.9101,3.9101,3.9101,3.9101,3.9101,3.9101,3.9101,3.9101,3.9101,3.9101,3.9101,3.9101,3.9101,3.9101,3.9101,3.9101,3.9101,3.9101,3.9101,3.9101,3.9101,3.9101,3.9101,3.9231,3.9751,3.9863,4.0438,4.2407,4.3095,4.3466,4.3931,4.4005,4.4005,4.4005,4.4199,4.4327,4.425,4.436,4.4471,4.4471,4.4559,4.4585,4.4484,4.4663,4.4812,4.4861,4.5074,4.5263,4.5429,4.5531,4.5594,4.5594,4.5594,4.5594,4.5594,4.5594,4.5594,4.5594,4.5594,4.5594,2.1654,2.1773,2.2442,2.4615,2.4832,0.0,2.675,2.6636,2.6477,2.7652,2.7895,2.8136,2.9011,2.916,2.9402,3.0097,3.0376,3.1072,3.276,3.3621,3.4104,3.4179,3.4197,3.4197,3.4197,3.4197,3.4197,3.4197,3.4197,3.4197,3.4197,3.4197,3.4197,3.4197,3.4952,3.5361,3.5361,3.616,3.6569,3.6569,3.6649,3.6699,3.6705,3.7429,3.7819,3.7931,3.8655,3.9027,3.9101,3.9101,3.9101,3.9101,3.9101,3.9101,3.9101,3.9101,3.9101,3.9101,3.9101,3.9101,3.9101,3.9101,3.9101,3.9101,3.9101,3.9101,3.9101,3.9101,3.9101,3.9101,3.9101,3.9101,3.9101,3.9101,3.9101,3.9101,3.9101,3.9101,3.9751,4.1962,4.25,4.2853,4.3689,4.3931,4.4005,4.4005,4.4005,4.4005,4.4005,4.4005,4.4005,4.4005,4.4206,4.4265,4.4036,4.4443,4.4624,4.4411,4.4849,4.5118,4.514,4.5419,4.5559,4.5559,4.5559,4.5531,4.5513,4.5568,4.5594,4.5594,4.5594,4.5594,2.2689,2.3524,2.4519,2.4375,2.576,0.0,2.5924,2.6031,2.6397,2.6609,2.6578,2.6733,2.7565,2.7716,2.7732,2.7781,2.8905,3.0557,3.2697,3.3138,3.3473,3.4123,3.4197,3.4197,3.4197,3.4197,3.4197,3.4197,3.4197,3.4197,3.4197,3.4197,3.4197,3.4197,3.4364,3.4439,3.4439,3.5306,3.5733,3.5751,3.6402,3.6699,3.6718,3.6866,3.7281,3.7912,3.8061,3.8488,3.9101,3.9101,3.9101,3.9101,3.9101,3.9101,3.9101,3.9101,3.9101,3.9101,3.9101,3.9101,3.9101,3.9101,3.9101,3.9101,3.9101,3.9101,3.9101,3.9101,3.9101,3.9101,3.9101,3.9101,3.9101,3.9101,3.9101,3.9101,3.9101,3.9101,3.9231,3.9733,4.1906,4.3485,4.2816,4.3429,4.4005,4.4005,4.4005,4.4005,4.4005,4.4005,4.4005,4.4005,4.4048,4.4064,4.3986,4.4109,4.4221,4.4402,4.4493,4.465,4.4861,4.5148,4.5292,4.5292,4.5292,4.518,4.4962,4.54,4.5594,4.5594,4.5594,4.5594,2.3631,2.4067,2.4812,2.524,2.5986,0.0,0.0,2.58,2.5964,2.6707,2.6453,2.6491,2.7714,2.7593,2.741,2.78,2.8461,2.9504,3.108,3.1935,3.2704,3.351,3.3603,3.3603,3.3603,3.3956,3.4197,3.4197,3.4197,3.4197,3.4197,3.4197,3.4197,3.4197,3.4197,3.4197,3.4197,3.4637,3.486,3.486,3.5256,3.5442,3.546,3.59,3.6328,3.6742,3.7541,3.8135,3.8525,3.8934,3.9101,3.9101,3.9101,3.9101,3.9101,3.9101,3.9101,3.9101,3.9101,3.9101,3.9101,3.9101,3.9101,3.9101,3.9101,3.9101,3.9101,3.9101,3.9101,3.9101,3.9101,3.9101,3.9101,3.9101,3.9101,3.9101,3.9101,3.9101,3.9101,3.9101,4.1107,4.289,4.315,4.3652,4.4005,4.4005,4.4005,4.4005,4.4005,4.4005,4.4005,4.4005,4.4005,4.4005,4.4005,4.4005,4.4064,4.4192,4.4318,4.4452,4.4599,4.4861,4.5007,4.5007,4.5007,4.4919,4.4788,4.5074,4.5263,4.54,4.5253,4.5263,2.4767,2.4783,2.5264,2.6301,2.6261,2.5981,0.0,0.0,0.0,2.67,2.6396,2.6341,2.7687,2.7364,2.7144,2.7812,2.8059,2.8402,2.907,3.0337,3.1528,3.2425,3.2667,3.2834,3.2983,3.3436,3.3863,3.4179,3.39,3.3863,3.4179,3.4197,3.4197,3.4197,3.4197,3.4197,3.4197,3.4197,3.4197,3.4197,3.4197,3.4197,3.4216,3.4934,3.5343,3.5566,3.6872,3.7596,3.7949,3.8599,3.8952,3.9101,3.9101,3.9101,3.9101,3.9101,3.9101,3.9101,3.9101,3.9101,3.9101,3.9101,3.9101,3.9101,3.9101,3.9101,3.9101,3.9101,3.9101,3.9101,3.9101,3.9101,3.9101,3.9101,3.9101,3.9101,3.9101,3.9101,3.9101,3.9101,4.0364,4.1887,4.3299,4.3782,4.4005,4.4005,4.4005,4.4005,4.4005,4.4005,4.4005,4.4005,4.4005,4.4005,4.4005,4.4005,4.4005,4.4005,4.4192,4.4318,4.4318,4.4572,4.4714,4.4714,4.4714,4.4688,4.4656,4.4656,4.48,4.5107,4.4896,4.4927,2.6517,2.7223,2.8039,2.6752,2.7381,2.7739,2.558,0.0,2.6047,2.5334,0.0,2.5409,2.5485,0.0,0.0,2.5498,2.6734,2.7649,2.7558,2.8366,2.9436,3.0722,3.1496,3.2221,3.2915,3.2444,3.2667,3.4086,3.289,3.2704,3.4123,3.4197,3.4197,3.4197,3.4197,3.4197,3.4197,3.4197,3.4197,3.4197,3.4197,3.4197,3.4197,3.429,3.4773,3.551,3.5696,3.6588,3.7912,3.7986,3.8451,3.9101,3.9101,3.9101,3.9101,3.9101,3.9101,3.9101,3.9101,3.9101,3.9101,3.9101,3.9101,3.9101,3.9101,3.9101,3.9101,3.9101,3.9101,3.9101,3.9101,3.9101,3.9101,3.9101,3.9101,3.9101,3.9101,3.9101,3.9101,3.9101,4.0081,4.1103,4.1757,4.3058,4.4005,4.4005,4.4005,4.4005,4.4005,4.4005,4.4005,4.4005,4.4005,4.4005,4.4005,4.4005,4.4005,4.4005,4.4036,4.4048,4.4048,4.4289,4.4457,4.4457,4.4457,4.4318,4.4094,4.4094,4.4346,4.4837,4.4812,4.4812,2.6491,2.7084,2.7799,2.7155,2.7087,2.6929,2.5882,2.5588,2.5551,2.563,0.0,0.0,0.0,0.0,0.0,0.0,2.6409,2.6835,2.6783,2.7395,2.8415,2.9945,3.0021,3.0413,3.1611,3.1347,3.1589,3.2723,3.1756,3.1812,3.3417,3.3491,3.3714,3.4179,3.4197,3.4197,3.4197,3.4197,3.4197,3.4197,3.4197,3.4197,3.4197,3.4197,3.4401,3.4773,3.5287,3.5882,3.6588,3.7503,3.8098,3.8451,3.8915,3.9101,3.9101,3.9101,3.9101,3.9101,3.9101,3.9101,3.9101,3.9101,3.9101,3.9101,3.9101,3.9101,3.9101,3.9101,3.9101,3.9101,3.9101,3.9101,3.9101,3.9101,3.9101,3.9101,3.9101,3.9101,3.9101,3.9101,4.0025,4.1066,4.1924,4.3132,4.4005,4.4005,4.4005,4.4005,4.4005,4.4005,4.4005,4.4005,4.4005,4.4005,4.4005,4.4005,4.4005,4.4005,4.4005,4.4005,4.4005,4.4106,4.4181,4.4181,4.4181,4.4106,4.4005,4.4005,4.4124,4.4351,4.4351,4.4416,2.6921,2.733,2.7832,2.7437,2.6824,2.6219,2.5823,2.5449,2.5343,2.5944,2.5799,0.0,0.0,0.0,2.5857,2.6294,0.0,2.653,2.6157,2.6676,2.7538,2.8649,2.8871,2.9437,3.0753,3.0354,3.0522,3.1789,3.0655,3.0827,3.289,3.3001,3.3373,3.416,3.4197,3.4197,3.4197,3.4197,3.4197,3.4197,3.4197,3.4197,3.4197,3.4197,3.4197,3.4234,3.4866,3.5287,3.5584,3.6773,3.7503,3.7949,3.8544,3.8915,3.9101,3.9101,3.9101,3.9101,3.9101,3.9101,3.9101,3.9101,3.9101,3.9101,3.9101,3.9101,3.9101,3.9101,3.9101,3.9101,3.9101,3.9101,3.9101,3.9101,3.9101,3.9101,3.9101,3.9101,3.9101,3.9101,3.977,4.0731,4.1962,4.2835,4.3485,4.3931,4.4005,4.4005,4.4005,4.4005,4.4005,4.4005,4.4005,4.4005,4.4005,4.4005,4.4005,4.4005,4.4005,4.4005,4.4005,4.4005,4.4005,4.4005,4.4005,4.4005,4.4005,4.4005,4.4033,4.4106,4.4033,4.4151,2.8536,2.8903,2.9147,2.7587,2.7035,2.6461,2.4907,2.5232,2.5841,2.5743,2.6518,2.7198,2.71,2.717,2.702,2.6397,2.7007,0.0,0.0,2.6086,2.6518,2.6242,2.832,3.0118,3.0997,2.949,2.9486,3.1905,2.9658,2.9601,3.2834,3.3001,3.3373,3.416,3.4197,3.4197,3.4197,3.4197,3.4197,3.4197,3.4197,3.4197,3.4197,3.4197,3.4197,3.4197,3.4234,3.4729,3.551,3.5566,3.6495,3.7894,3.7931,3.8414,3.9101,3.9101,3.9101,3.9101,3.9101,3.9101,3.9101,3.9101,3.9101,3.9101,3.9101,3.9101,3.9101,3.9101,3.9101,3.9101,3.9101,3.9101,3.9101,3.9101,3.9101,3.9101,3.9101,3.9101,3.9101,3.9101,3.912,3.9677,4.133,4.1646,4.2203,4.3763,4.4005,4.4005,4.4005,4.4005,4.4005,4.4005,4.4005,4.4005,4.4005,4.4005,4.4005,4.4005,4.4005,4.4005,4.4005,4.4005,4.4005,4.4005,4.4005,4.4005,4.4005,4.4005,4.4136,4.4388,4.4121,4.4151,2.821,2.8749,2.9132,2.8063,2.7335,2.6609,2.554,2.5548,2.5752,2.5717,2.6412,2.7026,2.699,2.7078,2.6954,2.6276,2.6491,2.6407,0.0,2.5558,2.5912,2.6372,2.807,2.8828,2.7888,2.8152,2.8699,2.9397,2.8619,2.9062,3.1292,3.1924,3.2574,3.338,3.3918,3.4197,3.4197,3.4197,3.4197,3.4197,3.4197,3.4197,3.4197,3.4197,3.4197,3.4197,3.4197,3.4364,3.468,3.5268,3.6142,3.7164,3.7689,3.8395,3.9101,3.9101,3.9101,3.9101,3.9101,3.9101,3.9101,3.9101,3.9101,3.9101,3.9101,3.9101,3.9101,3.9101,3.9101,3.9101,3.9101,3.9101,3.9101,3.9101,3.9101,3.9101,3.9101,3.9101,3.9101,3.9101,3.9565,4.0141,4.0713,4.081,4.0791,4.0754,4.1999,4.2946,4.2946,4.3095,4.3206,4.3206,4.3206,4.3206,4.3206,4.3689,4.4005,4.4005,4.4005,4.4005,4.4005,4.4005,4.4005,4.4005,4.4005,4.4005,4.4005,4.4005,4.4048,4.4136,4.4033,4.4151,2.8154,2.8603,2.8879,2.7959,2.7371,2.6741,2.5752,2.5754,2.6014,2.6117,2.6758,2.7427,2.7724,2.7606,2.7238,2.6558,2.6325,2.6009,0.0,2.5308,2.5519,2.6077,2.7294,2.7822,2.7167,2.7135,2.7577,2.8558,2.7763,2.8226,3.0474,3.1366,3.2165,3.2983,3.377,3.4197,3.4197,3.4197,3.4197,3.4197,3.4197,3.4197,3.4197,3.4197,3.4197,3.4197,3.4197,3.4197,3.4234,3.481,3.5696,3.6742,3.7262,3.8135,3.9101,3.9101,3.9101,3.9101,3.9101,3.9101,3.9101,3.9101,3.9101,3.9101,3.9101,3.9101,3.9101,3.9101,3.9101,3.9101,3.9101,3.9101,3.9101,3.9101,3.9101,3.9101,3.9101,3.9101,3.9101,3.9101,3.9547,3.9937,3.9937,3.9937,4.0048,4.0364,4.1144,4.1999,4.2872,4.2612,4.2593,4.3169,4.2965,4.2927,4.3206,4.3708,4.4005,4.4005,4.4005,4.4005,4.4005,4.4005,4.4005,4.4005,4.4005,4.4005,4.4005,4.4005,4.4048,4.4136,4.4048,4.4151]}]]